GFSCGP_sfc_rhum_000.txt.gz
RH
12 19 19 16 17 15 14 16 16 15 12 14 16 15 12 9 9 12 13 15 16 17 14 17 24 28 30 35 32 32 32 38 38 42 46 46 49 47 48 45 44 48 46 46
13 22 16 14 14 15 13 16 19 16 15 18 17 16 12 11 12 12 13 16 18 18 17 19 23 31 35 34 34 34 32 35 36 36 40 43 46 42 42 44 50 46 50 46
15 20 14 14 15 19 16 23 24 23 19 15 16 14 13 12 12 13 15 16 16 19 20 20 27 33 38 40 41 34 32 33 38 39 36 41 44 46 43 43 46 50 50 51
16 15 16 16 17 19 23 19 23 25 26 28 19 22 13 13 14 14 16 21 22 21 21 22 28 31 37 41 44 40 37 34 33 43 37 45 38 36 35 42 38 36 52 54
24 18 16 18 20 19 24 23 26 24 27 26 20 20 15 13 13 14 17 19 23 25 26 25 25 27 33 37 48 46 42 40 37 42 45 43 48 45 47 49 47 45 47 44
14 14 16 19 18 19 21 24 23 22 27 51 24 25 21 15 15 14 14 17 22 25 27 26 26 28 29 40 45 50 47 37 40 43 46 53 51 53 54 53 54 52 51 54
19 18 17 20 24 20 25 33 58 76 70 60 22 26 26 18 14 15 18 21 26 30 30 32 29 29 34 38 42 46 43 39 40 48 50 50 57 57 56 55 54 50 51 49
33 40 22 22 26 32 30 34 69 73 65 55 30 32 19 13 13 14 16 23 24 30 32 30 31 35 35 39 41 40 35 36 37 43 47 53 54 54 55 53 53 52 50 49
45 34 22 24 24 27 32 43 32 57 90 74 45 28 20 16 15 18 19 20 28 30 31 29 31 34 38 41 42 47 42 38 39 45 52 52 54 54 53 50 54 52 50 38
36 52 30 26 26 27 31 29 53 67 91 68 38 39 32 24 26 26 26 26 30 30 31 32 33 37 39 38 39 45 50 41 40 42 46 47 50 52 49 50 49 47 48 46
36 48 47 37 32 35 33 41 45 37 54 75 76 46 30 31 30 29 27 28 30 33 32 33 34 36 38 40 39 38 39 38 42 43 53 54 49 49 46 44 45 44 49 47
42 53 72 50 31 24 28 35 35 79 68 64 74 61 30 28 28 28 27 27 29 30 29 30 31 34 39 43 44 42 41 41 41 42 50 50 47 45 47 46 46 50 49 49
44 62 70 45 35 32 38 32 34 44 81 78 97 66 28 29 29 26 28 31 32 32 30 33 32 38 42 47 51 48 36 40 39 38 45 47 48 47 47 53 52 50 51 50
53 51 66 74 58 44 53 41 38 44 70 60 60 49 34 28 28 27 30 35 34 34 32 33 37 43 46 51 52 42 34 41 38 38 40 49 47 49 53 53 53 54 52 52
48 76 56 50 45 46 50 48 41 42 43 56 47 38 30 28 28 31 35 37 38 36 40 49 51 47 49 54 54 42 38 39 38 38 40 49 62 59 54 53 56 55 57 50
56 89 85 84 58 50 56 52 47 42 38 36 38 39 28 25 28 35 39 40 44 52 56 57 49 53 55 55 54 41 38 38 39 44 66 71 63 54 53 55 56 58 56 51
63 95 100 89 64 76 91 63 49 42 36 37 52 41 29 31 39 45 48 45 58 59 60 57 60 63 57 56 52 50 48 63 72 76 72 66 65 51 53 50 50 57 58 56
70 99 100 100 100 96 47 32 34 41 36 34 32 32 33 36 46 47 48 62 65 71 65 63 63 57 57 57 62 72 72 65 67 69 69 62 49 47 49 53 53 54 54 56
41 99 100 100 89 67 54 41 48 50 49 35 39 46 45 48 59 64 52 62 74 69 61 62 51 57 63 68 77 81 83 81 75 55 42 39 44 47 50 50 53 58 57 55
63 98 100 100 97 92 64 36 33 36 64 58 58 61 68 67 95 86 61 62 62 59 55 48 59 62 68 76 71 63 61 56 43 41 40 40 45 46 45 50 55 54 53 51
99 99 100 95 97 77 47 36 41 80 91 74 71 72 70 76 84 73 61 61 59 53 46 54 60 70 70 60 56 49 37 38 37 38 40 42 42 41 45 50 51 49 52 71
72 93 97 100 100 93 37 44 89 68 65 66 72 76 78 66 63 60 59 63 56 49 56 61 68 65 58 51 54 36 30 32 36 41 44 44 44 42 39 52 49 52 60 75
77 70 76 63 69 49 43 49 50 54 68 70 73 57 61 62 59 59 62 55 56 66 68 66 64 64 60 48 30 33 43 34 44 46 48 51 50 49 46 49 54 53 58 74
66 53 75 75 55 48 50 49 51 53 63 64 58 62 60 56 47 44 48 56 58 70 74 70 67 57 49 39 35 39 43 47 43 53 60 59 62 59 53 50 52 54 72 81
72 65 75 76 63 56 55 54 54 57 56 63 63 69 42 40 38 41 55 55 70 81 70 68 58 56 43 48 51 42 53 55 56 68 66 67 69 63 56 57 58 70 83 81
70 76 89 87 60 70 62 53 51 57 69 63 45 39 36 38 50 58 62 67 74 77 68 57 53 40 40 48 51 54 59 68 77 76 74 78 74 70 64 57 61 64 72 72

GFSCGP_sfc_rhum_003.txt.gz
RH
20 31 33 26 26 23 22 22 26 25 20 25 26 25 20 19 18 20 23 23 23 23 24 30 33 31 34 35 30 30 33 37 40 43 46 45 50 50 54 49 55 57 55 48
24 35 24 18 19 22 23 28 34 27 23 26 28 25 23 18 19 20 23 25 24 24 24 26 32 37 32 33 34 33 33 36 40 43 45 46 47 47 47 50 55 57 55 53
28 28 18 19 24 26 27 33 35 35 31 28 30 29 20 21 19 21 22 22 23 23 25 26 26 35 41 40 37 36 36 36 43 40 42 47 52 50 45 46 56 53 51 55
26 21 19 22 25 26 31 30 31 34 42 47 31 44 24 23 22 22 22 28 29 28 27 28 28 32 42 42 43 37 36 39 40 47 43 43 43 42 42 44 46 51 57 57
29 25 23 28 26 25 31 31 34 36 43 47 35 40 25 24 25 25 28 29 31 31 31 29 32 31 33 44 50 46 43 42 41 46 50 45 47 54 48 50 48 52 62 58
22 20 24 29 25 28 29 38 40 46 44 66 40 40 39 27 23 24 28 31 32 33 33 34 36 34 36 45 52 54 49 45 46 46 48 52 45 43 53 54 57 59 59 59
34 28 27 29 34 34 36 53 83 77 78 77 35 40 38 28 24 26 30 31 32 32 38 40 37 35 42 46 46 49 53 53 50 53 54 52 52 45 46 56 59 59 57 58
56 60 35 30 38 43 44 47 87 82 89 78 43 51 34 24 21 22 23 27 35 32 34 38 42 45 48 48 48 49 49 48 48 54 58 58 58 54 45 55 62 62 60 57
70 52 36 30 32 36 44 67 46 66 90 87 68 46 27 27 29 30 30 31 34 37 39 43 44 51 53 52 52 56 52 51 52 53 58 64 67 61 63 55 56 58 53 47
52 68 46 39 37 37 41 42 69 84 93 90 61 57 50 41 36 35 39 39 43 44 42 44 47 54 52 53 53 55 51 47 45 52 52 56 53 50 53 52 50 49 50 49
53 66 65 51 49 52 48 61 56 52 75 94 98 76 43 38 40 41 31 38 40 41 42 42 43 49 56 57 58 58 53 52 44 54 60 55 54 49 48 46 47 50 50 46
57 65 88 58 41 38 37 48 46 88 91 87 93 76 37 42 38 30 42 39 42 39 41 43 49 56 58 59 62 57 56 52 44 61 55 52 49 46 46 48 51 56 54 52
56 78 91 68 53 53 54 46 51 65 84 81 95 76 38 37 38 38 44 46 46 44 48 57 58 56 56 62 63 62 58 47 46 49 50 48 47 47 53 54 51 48 52 55
60 67 77 90 73 62 70 57 53 63 90 77 74 59 42 36 38 44 50 50 51 53 60 62 62 61 61 59 58 65 54 52 50 46 48 52 52 53 60 60 57 56 55 56
59 82 73 67 61 57 59 57 56 60 59 73 60 52 42 39 40 50 50 51 50 62 64 63 63 65 66 62 65 60 55 54 51 45 52 72 71 65 61 61 58 62 62 59
67 86 87 88 69 67 72 67 59 57 58 55 51 49 39 34 50 55 57 57 66 66 65 61 64 63 63 63 64 62 62 68 70 74 82 82 76 71 64 54 57 66 63 64
78 89 98 85 80 84 88 66 62 54 46 52 72 61 61 63 60 62 65 72 73 68 68 68 68 67 64 73 66 73 74 72 77 80 78 84 84 85 80 61 56 60 62 60
81 96 97 97 99 97 61 43 41 53 50 53 68 73 71 77 70 63 60 76 70 67 73 75 67 65 76 77 81 84 84 79 77 76 76 81 84 78 56 56 57 59 59 60
74 97 98 99 98 79 67 57 66 60 57 73 71 62 63 72 72 70 66 75 73 72 76 70 70 78 83 82 85 86 87 85 84 82 71 56 55 54 53 55 57 58 59 60
88 95 97 98 98 92 67 52 53 52 75 79 76 90 89 88 95 79 74 70 69 78 70 70 72 79 83 84 78 76 64 77 52 48 48 49 51 50 50 54 56 58 62 61
97 98 98 99 96 84 61 51 64 89 80 80 93 87 88 90 87 74 68 72 71 65 67 73 78 73 74 62 54 52 38 43 45 50 50 49 48 48 51 58 61 59 63 78
82 91 98 98 99 95 55 61 77 73 82 73 84 85 78 76 80 67 67 71 68 78 80 78 78 79 68 55 51 32 38 40 47 50 52 53 57 51 49 57 60 65 74 94
85 79 88 84 83 66 55 57 57 55 61 81 86 76 83 82 76 64 55 68 77 82 86 79 83 68 60 42 39 47 51 48 56 60 64 66 62 61 56 62 67 73 83 96
75 69 84 84 63 56 58 52 52 56 76 71 79 87 73 74 69 56 67 76 85 89 90 82 70 57 60 45 47 50 62 63 58 71 74 73 76 71 67 66 70 75 96 97
83 81 82 81 66 60 59 62 63 68 85 90 81 74 70 62 71 73 71 74 85 86 84 79 68 65 58 59 63 59 64 68 76 81 81 83 83 78 75 73 73 92 93 92
78 76 89 87 62 69 67 67 69 77 84 84 78 61 61 72 75 69 71 80 83 84 83 75 66 53 54 60 62 68 76 78 87 87 88 95 93 89 84 80 78 69 77 75

GFSCGP_sfc_rhum_006.txt.gz
RH
25 31 34 28 29 26 29 32 37 31 27 32 34 34 28 22 26 27 28 28 29 32 41 37 36 38 36 36 34 37 36 37 43 48 50 51 50 54 57 63 70 70 65 60
30 35 27 21 26 27 27 39 39 33 29 36 35 34 26 21 25 26 28 30 28 31 34 34 35 40 34 34 34 34 33 36 42 46 48 46 48 50 49 53 59 70 68 62
32 28 22 23 29 29 32 41 41 39 38 38 36 34 25 23 27 26 28 28 27 27 29 34 37 38 40 37 37 34 35 36 41 45 47 50 56 57 56 53 56 61 64 60
31 23 21 30 31 32 37 30 36 39 46 51 38 55 33 25 27 28 28 30 29 28 31 30 32 42 45 40 44 40 39 39 41 48 49 48 38 38 37 38 50 56 58 58
29 26 27 30 30 32 33 34 42 45 52 54 42 47 32 26 26 26 35 34 37 38 34 34 36 35 34 40 46 48 45 45 44 50 55 54 48 45 42 57 52 55 62 62
26 24 27 31 30 36 34 42 49 52 53 69 49 45 42 35 27 35 38 36 36 38 40 38 39 40 46 50 52 54 53 49 51 53 55 61 58 50 54 55 60 67 70 70
43 33 30 33 39 38 43 60 83 74 80 76 46 50 43 35 30 30 32 37 40 35 38 39 37 47 53 56 56 53 55 52 51 60 62 63 64 60 57 51 56 65 60 61
68 65 43 32 42 47 48 58 86 83 88 78 52 56 41 30 31 30 30 32 35 44 41 44 52 55 56 55 55 50 48 50 49 55 58 66 71 77 74 68 72 73 64 65
76 59 43 37 36 41 48 66 52 69 93 89 72 54 36 34 39 37 39 38 44 45 51 52 55 58 60 59 60 61 60 52 53 58 62 63 65 68 65 64 65 64 59 54
60 74 53 47 43 44 46 45 69 85 88 95 74 67 54 44 44 41 48 47 47 50 49 50 55 60 61 62 63 65 62 58 61 55 58 54 54 58 60 60 59 62 65 70
60 68 64 53 55 60 54 70 62 63 84 97 98 86 54 48 47 47 45 50 50 49 54 59 57 55 54 54 58 65 69 68 52 52 60 59 52 53 54 56 60 58 60 63
61 74 87 61 50 47 53 61 64 91 85 91 94 74 39 50 40 49 51 50 51 52 58 63 63 62 64 66 70 70 73 56 54 58 61 59 55 53 57 61 61 60 58 54
59 76 87 62 51 57 63 54 62 73 86 88 95 82 38 38 44 49 54 54 55 63 72 70 69 63 68 69 69 70 72 58 58 57 60 55 53 54 62 60 59 56 54 54
62 72 74 82 65 72 76 61 57 72 95 84 78 68 51 45 51 55 61 64 65 71 67 69 71 70 73 70 73 76 61 65 67 61 58 57 56 59 66 65 61 57 56 59
65 80 76 71 66 68 67 67 67 75 71 89 73 65 54 65 67 63 63 62 64 68 70 71 72 76 77 75 78 69 70 72 72 58 61 72 72 70 67 65 66 65 61 63
74 88 86 83 75 78 84 72 72 71 68 67 66 60 75 71 69 71 71 67 70 75 68 63 70 74 72 74 77 73 76 79 81 79 83 80 78 77 83 83 82 73 68 64
80 91 98 79 91 95 94 80 71 61 58 62 81 70 78 85 79 75 74 70 76 78 67 69 77 78 77 81 74 83 86 90 81 83 84 90 90 90 84 81 74 64 62 60
89 96 97 98 98 99 64 55 54 62 60 58 75 77 78 78 71 73 67 70 80 74 67 72 80 79 82 81 84 89 90 90 87 87 83 83 87 83 71 61 60 59 58 57
79 98 99 98 97 80 69 60 68 73 70 72 82 80 79 78 84 83 62 70 70 68 74 80 83 83 85 87 88 88 85 85 63 56 57 59 62 59 57 56 58 60 62 64
90 94 90 96 99 91 67 54 59 65 86 74 78 84 87 88 98 78 74 72 61 72 78 78 77 83 87 85 74 52 49 51 55 56 53 51 54 54 55 59 61 61 62 62
98 98 97 100 99 88 64 55 63 81 70 77 78 76 81 92 84 78 79 66 73 79 79 79 80 85 85 64 49 42 48 51 50 53 56 56 56 54 59 59 60 64 72 85
76 89 96 97 99 94 62 61 79 73 80 68 66 79 88 86 88 78 71 73 73 81 81 79 86 86 66 38 39 41 51 47 55 58 62 63 65 61 54 62 66 71 84 95
85 78 84 83 83 68 65 60 66 67 63 71 81 81 85 87 79 79 71 78 82 85 89 86 89 71 62 41 46 54 62 58 65 68 71 74 72 68 63 69 77 77 88 97
76 67 87 82 64 60 62 54 55 63 78 84 89 93 86 85 85 72 71 71 79 87 89 86 80 67 70 52 57 64 66 68 71 76 79 81 83 78 75 76 75 79 96 96
85 87 90 86 73 67 62 63 69 71 82 78 76 77 83 72 62 73 72 75 84 86 87 89 90 93 67 62 66 63 69 73 75 81 84 87 89 84 81 78 80 90 92 94
82 75 92 88 63 70 67 72 72 75 82 84 82 74 58 60 74 70 72 75 81 86 91 85 86 60 57 64 65 71 75 76 80 80 85 96 97 96 84 85 84 74 80 73

GFSCGP_sfc_rhum_009.txt.gz
RH
31 32 34 32 32 29 31 37 45 36 30 37 42 41 34 32 29 29 30 31 36 36 44 42 42 43 42 45 43 36 35 38 50 53 54 55 53 57 62 62 64 78 76 72
34 35 29 26 28 29 35 41 40 38 33 42 40 39 26 24 27 32 34 37 36 38 38 39 42 42 38 38 39 40 38 39 42 47 48 49 51 52 53 58 62 71 75 72
36 31 23 28 33 32 36 42 42 41 41 44 42 39 28 26 29 28 30 32 34 37 38 38 37 38 41 39 38 37 37 38 42 46 49 51 57 58 58 55 59 56 70 70
34 24 28 32 33 37 42 34 40 42 50 53 44 49 36 28 31 31 32 35 36 33 34 35 39 40 42 40 44 44 43 43 42 48 50 53 45 42 39 43 46 47 62 60
34 26 31 32 33 38 40 41 47 52 56 62 44 48 40 34 30 35 42 38 37 38 36 33 32 35 41 45 51 56 55 53 52 56 58 61 62 56 52 54 62 58 60 69
41 28 31 35 35 39 37 50 53 57 57 68 55 51 45 40 37 42 39 38 43 40 37 42 40 47 52 59 60 58 56 54 53 54 60 68 70 65 68 66 69 64 72 75
51 45 40 36 41 41 47 64 79 69 79 76 54 51 45 37 35 38 40 39 38 40 42 45 55 56 58 61 61 56 58 58 58 61 63 61 67 76 78 75 74 73 75 74
72 60 50 41 45 49 53 61 84 74 89 82 57 60 43 36 34 33 35 37 41 42 48 55 58 63 63 64 63 65 63 63 62 66 60 65 67 75 79 84 81 83 76 78
82 62 49 48 49 46 54 70 58 79 95 92 77 58 43 42 48 39 38 42 53 58 60 64 66 64 64 65 65 70 68 66 67 65 62 63 61 64 67 66 76 78 73 72
66 79 56 50 48 48 47 49 73 88 89 93 80 78 61 51 54 45 54 55 56 59 61 64 66 64 63 65 68 74 70 72 72 55 57 58 60 61 63 68 70 72 77 84
62 70 60 53 55 64 62 74 69 70 87 96 98 85 61 56 56 52 58 56 58 63 64 65 66 66 67 70 70 74 74 78 64 60 62 67 66 59 60 64 67 71 73 68
66 75 86 63 52 54 56 67 68 89 85 92 95 76 50 55 54 57 65 60 61 60 65 67 69 68 71 73 74 74 80 76 64 68 68 67 69 59 60 64 62 63 58 58
62 78 84 56 49 53 66 66 70 80 88 89 95 80 48 44 53 62 67 65 64 61 66 67 71 66 68 74 77 78 82 68 70 72 70 68 67 60 64 62 60 58 56 54
62 74 71 83 59 67 73 71 70 74 94 88 81 67 55 56 66 67 69 69 68 66 64 68 69 74 72 76 77 82 80 75 77 78 74 69 62 62 67 64 64 71 66 62
67 79 80 74 69 71 70 74 72 81 80 91 77 76 62 65 76 72 68 70 70 66 67 72 70 72 77 82 82 85 79 81 84 88 73 72 67 68 70 83 90 78 69 67
80 87 88 87 80 81 86 78 80 79 82 82 79 73 57 77 77 78 76 73 76 76 75 73 65 70 82 82 84 80 82 87 92 90 87 82 88 91 92 91 89 87 84 66
81 93 98 86 93 96 82 80 83 76 64 66 81 68 79 82 80 85 78 78 80 74 77 70 71 79 85 85 83 86 89 91 90 89 88 90 93 94 92 87 85 69 61 59
94 96 97 96 94 94 60 60 57 65 62 64 66 78 78 81 76 80 76 84 80 82 66 65 76 89 80 82 85 90 91 91 87 70 64 63 64 62 63 61 58 60 61 59
84 96 98 98 97 81 64 58 72 72 65 66 76 82 73 67 89 90 77 84 74 67 66 81 80 79 84 88 90 68 58 58 58 58 59 62 65 65 60 59 63 63 63 63
93 93 92 97 98 97 70 53 58 72 93 77 83 81 70 82 97 80 87 77 80 74 73 75 76 79 88 86 53 58 57 50 56 56 56 59 59 59 62 64 63 61 64 69
98 98 98 99 98 89 67 59 63 90 79 71 74 69 78 86 88 90 79 75 69 75 75 76 83 90 87 69 52 51 52 57 58 60 61 63 64 64 65 63 64 70 78 86
79 88 96 98 99 95 63 66 78 72 76 75 74 79 88 91 90 87 74 79 71 80 82 82 90 91 82 50 50 49 58 61 64 66 68 72 75 66 60 68 75 76 84 93
88 77 85 79 83 68 61 66 66 70 78 82 89 91 92 88 88 74 72 72 75 81 88 87 92 89 68 50 48 56 67 61 68 72 75 80 78 74 70 78 82 77 85 95
83 74 91 81 67 62 65 60 56 66 80 89 82 83 88 96 77 67 68 74 74 81 89 90 93 94 94 65 56 57 65 68 71 74 78 82 88 82 81 77 77 82 95 96
83 90 91 83 74 75 68 66 74 79 86 83 83 87 88 78 66 58 76 74 76 84 88 93 95 92 89 74 66 64 67 72 71 77 80 84 89 90 84 76 84 90 93 96
89 82 94 93 68 72 64 86 90 88 86 84 84 78 70 64 64 71 80 80 81 82 88 92 85 87 67 69 72 70 75 77 79 79 85 94 97 97 90 83 82 76 80 75

GFSCGP_sfc_rhum_012.txt.gz
RH
34 32 34 35 35 33 34 38 46 42 36 41 50 47 37 28 31 30 34 34 38 41 45 48 48 50 52 53 44 40 47 51 54 58 57 59 56 57 62 63 63 72 77 80
34 34 31 30 31 32 34 42 40 38 39 47 46 41 30 30 33 38 40 43 40 42 44 41 44 46 45 45 44 41 39 40 45 51 52 55 55 55 57 59 61 64 70 78
38 33 30 30 35 38 42 40 42 42 43 48 46 39 35 28 32 32 34 40 42 40 37 43 41 42 42 41 42 41 42 42 46 48 51 52 56 57 55 52 56 52 61 65
35 27 31 37 36 41 48 36 42 46 56 54 48 49 43 38 34 36 35 36 39 41 43 40 41 44 44 43 47 48 48 48 49 56 57 60 59 59 55 57 54 50 59 66
35 32 37 40 40 41 43 48 55 55 61 64 50 49 39 39 34 39 42 35 41 39 38 38 39 42 59 58 65 66 60 58 58 61 64 69 65 65 70 70 72 69 68 70
49 34 36 40 38 45 42 55 51 60 61 69 60 55 47 45 41 40 41 41 40 41 42 41 50 57 63 64 64 64 62 60 61 63 63 68 74 73 75 74 78 78 82 81
53 49 47 41 46 45 50 61 70 68 78 76 58 56 47 40 39 40 42 36 40 44 48 51 64 65 64 65 66 63 66 64 64 64 62 64 68 70 73 70 74 82 86 81
75 56 53 44 50 54 58 64 82 66 90 85 64 60 53 40 44 40 38 44 56 63 68 70 68 68 67 66 66 69 68 67 69 72 61 63 62 67 65 68 73 85 83 87
85 64 53 53 55 51 59 73 63 82 97 92 79 64 49 51 55 51 52 57 61 62 64 67 65 67 69 68 69 73 76 74 76 73 65 67 68 68 65 66 77 83 84 87
70 78 59 52 52 49 52 53 72 88 93 91 80 77 65 60 60 55 61 60 59 61 64 65 65 66 66 68 72 77 78 77 79 66 66 65 69 67 68 72 77 79 85 91
64 69 55 55 58 67 66 76 74 74 88 96 98 82 64 62 60 60 64 66 66 61 61 65 68 70 72 74 74 78 77 79 83 66 74 77 70 71 71 69 75 80 84 84
70 76 83 59 55 63 66 70 69 87 80 93 96 81 54 57 62 62 71 67 68 66 62 66 72 74 75 73 76 80 82 85 80 74 78 78 81 78 69 68 68 70 62 61
66 78 80 50 51 55 69 72 74 82 88 85 94 75 52 50 53 68 74 71 70 70 69 67 68 74 75 76 78 82 82 89 74 79 85 88 74 68 68 69 70 71 71 65
66 76 68 78 59 63 78 76 75 79 93 83 83 68 57 55 63 69 75 76 76 74 69 66 74 76 78 76 81 84 86 80 83 89 93 77 75 69 76 84 92 85 78 74
69 80 81 75 70 73 74 79 78 88 83 90 71 80 68 65 69 78 76 76 70 69 73 76 82 74 68 70 80 84 83 85 90 94 91 89 89 91 94 94 94 88 87 88
82 86 91 90 88 90 95 85 84 86 87 88 84 88 65 66 84 83 76 76 79 80 82 82 78 75 78 83 89 86 82 85 91 92 92 85 88 88 92 87 89 89 88 92
82 94 97 89 93 91 77 66 82 79 75 75 78 61 72 84 79 73 72 85 84 90 78 69 60 61 75 81 82 80 86 92 93 78 67 76 75 68 70 75 77 71 65 64
98 96 97 97 89 93 58 62 57 69 65 63 68 70 80 80 74 77 80 87 90 84 75 69 62 78 77 82 84 90 74 72 68 68 68 68 68 70 72 63 62 64 61 60
86 97 98 98 89 82 61 56 71 76 69 67 77 81 74 69 80 80 87 86 83 83 80 74 83 77 78 88 74 58 59 62 66 74 77 71 65 63 64 66 66 64 64 66
93 93 94 98 97 98 70 58 61 78 89 77 76 64 69 82 95 86 86 85 80 65 69 79 79 78 86 89 60 61 71 70 66 66 66 65 69 72 73 70 68 65 70 71
98 98 99 99 98 90 68 62 65 87 77 73 69 73 83 91 96 88 78 68 54 66 76 75 84 89 92 84 64 63 60 63 64 65 68 72 76 76 70 71 72 77 80 85
75 84 95 98 99 95 65 70 75 66 77 73 82 87 95 93 90 82 75 64 59 79 74 77 88 92 88 77 55 56 60 59 62 67 72 77 82 75 67 77 80 78 84 93
88 78 83 79 85 69 58 65 64 71 79 85 93 92 93 91 86 76 76 65 65 78 78 86 91 93 90 81 53 77 86 70 68 71 74 80 82 76 72 80 83 83 88 96
84 79 90 81 73 75 71 64 69 82 89 88 91 93 86 85 79 82 77 66 76 78 82 87 92 94 93 90 78 68 69 70 74 73 77 81 86 85 82 77 75 85 96 98
90 88 92 91 76 78 74 82 93 95 90 90 90 83 78 78 82 82 76 80 84 85 82 87 94 93 91 88 87 70 70 75 74 77 80 82 86 89 88 82 81 92 95 96
87 88 96 86 68 79 85 93 92 88 89 87 84 77 78 83 84 82 86 88 88 88 86 90 93 92 90 78 74 76 77 80 82 80 87 97 97 98 93 88 84 75 81 75

GFSCGP_sfc_rhum_015.txt.gz
RH
30 26 27 26 26 24 24 26 30 28 28 31 34 32 23 23 25 25 25 26 27 26 31 32 36 37 38 47 46 47 44 47 46 42 40 39 40 38 38 37 43 48 47 54
27 30 24 26 27 25 26 29 27 29 30 34 33 28 25 25 30 32 31 30 30 29 30 34 36 38 40 40 41 38 35 36 35 35 38 41 42 38 39 42 47 47 50 50
33 24 28 28 32 35 35 30 32 33 34 34 33 27 28 23 25 27 28 29 28 28 28 30 31 36 38 39 41 35 37 38 41 45 39 41 43 44 39 36 36 39 48 50
26 25 32 35 34 34 38 31 39 40 41 36 37 30 30 30 25 28 26 27 28 28 28 30 32 37 45 47 52 47 46 43 44 49 47 51 44 42 41 46 43 46 51 52
28 32 35 38 34 34 39 42 44 43 45 42 39 31 31 31 29 28 30 30 30 32 33 36 44 47 48 53 54 52 47 48 50 53 50 47 49 47 47 47 51 51 50 53
39 32 32 33 34 38 40 43 41 46 47 51 47 40 41 36 34 32 29 30 35 36 37 38 48 46 47 54 55 54 50 47 50 52 49 53 56 55 52 51 49 46 47 52
44 40 39 37 38 38 42 44 50 62 64 57 47 42 44 40 38 36 36 36 46 50 50 50 48 46 47 49 52 50 50 49 52 58 52 55 58 59 57 54 50 52 50 52
58 44 43 43 40 42 48 50 65 58 66 61 53 48 46 40 39 39 43 47 49 53 54 52 50 49 49 52 52 54 52 53 53 59 58 54 57 55 54 53 58 57 55 60
66 50 45 47 46 40 46 60 52 71 90 80 54 48 42 43 41 44 44 44 49 51 52 49 48 50 52 53 56 61 58 53 56 61 60 56 60 60 58 61 62 58 63 66
58 61 46 44 41 44 44 46 57 70 79 70 52 58 43 48 47 47 47 52 52 48 47 45 45 50 52 53 55 65 58 55 56 60 57 55 60 58 62 60 60 60 64 68
51 57 47 46 51 54 53 56 62 60 74 83 92 56 49 48 48 46 46 54 54 52 48 45 46 48 53 57 55 56 59 59 58 60 60 64 63 63 56 55 57 60 67 64
57 66 61 45 47 50 51 54 54 64 64 76 84 59 42 47 48 48 49 56 54 53 51 50 50 52 56 56 53 55 63 62 65 61 62 67 63 54 53 54 56 57 53 53
56 68 61 38 43 44 56 57 63 69 77 75 87 56 44 46 42 47 51 55 54 56 52 52 53 56 56 53 56 58 65 67 63 60 67 64 56 53 56 66 69 64 63 64
65 66 60 55 42 50 63 63 64 66 89 68 69 54 44 44 48 51 56 58 54 57 57 56 58 57 59 60 66 68 66 64 62 68 70 67 65 61 73 75 74 74 71 70
64 77 70 65 60 66 66 66 67 72 68 81 61 57 50 49 56 55 55 57 58 55 61 65 61 57 57 63 64 61 60 64 69 72 73 74 78 79 82 73 64 64 59 61
72 80 85 86 76 73 83 68 71 72 70 70 69 70 50 54 61 60 57 58 61 69 71 60 52 50 56 66 62 62 64 70 77 72 70 62 64 60 57 61 62 67 64 50
80 88 94 79 80 79 79 57 67 60 60 61 68 48 59 59 62 57 56 62 78 75 67 60 52 57 67 61 60 66 66 66 61 61 56 59 60 60 57 51 47 49 51 49
98 95 96 96 88 78 49 50 50 57 54 56 56 56 57 56 54 58 72 79 82 75 69 56 54 67 62 57 65 62 53 56 57 57 60 61 54 49 50 50 50 50 48 49
77 97 99 97 84 73 56 48 54 64 55 50 58 59 56 54 61 64 80 78 77 78 64 51 62 64 58 65 66 45 45 48 54 56 50 48 53 51 52 53 52 51 51 52
85 88 96 96 98 95 67 47 51 60 70 58 62 66 68 67 97 76 84 83 67 57 48 58 62 61 62 65 68 60 51 56 52 50 50 50 53 55 54 54 53 52 53 52
98 98 97 92 94 83 62 56 55 87 80 71 69 65 71 81 95 91 84 71 56 52 50 58 59 62 62 67 66 60 50 47 48 52 52 51 54 56 55 53 53 52 52 67
73 87 93 97 98 94 54 57 77 70 70 64 68 73 87 93 91 84 75 67 55 56 55 60 61 62 63 67 60 46 48 47 54 55 52 51 55 56 51 54 53 53 59 74
83 75 81 77 80 64 55 60 58 66 79 81 86 91 92 93 83 67 69 62 62 59 60 61 62 67 70 68 64 56 59 66 69 56 53 54 56 56 54 56 61 57 59 72
74 69 88 83 68 60 64 59 79 81 93 90 86 87 82 84 73 67 65 64 63 61 65 63 65 66 73 65 64 64 62 55 54 55 55 56 60 62 60 61 62 59 71 75
76 84 88 88 71 68 67 78 90 94 91 88 79 79 77 72 68 69 69 67 66 70 68 68 71 73 75 70 71 62 57 59 59 60 61 64 68 68 65 64 63 68 75 78
84 85 94 88 66 78 90 95 93 89 80 73 79 68 59 66 72 71 66 68 72 75 72 73 70 69 59 60 59 60 62 63 66 66 65 73 73 74 66 60 62 68 78 78

GFSCGP_sfc_rhum_018.txt.gz
RH
17 14 18 16 18 17 16 17 17 15 19 22 21 19 15 16 16 17 16 16 18 23 22 20 25 27 28 39 38 37 37 40 32 30 29 27 28 26 26 26 33 38 36 39
15 21 19 18 19 18 19 19 20 20 21 26 22 18 16 17 20 20 18 19 20 19 19 24 27 31 34 35 34 31 28 29 27 24 27 31 34 30 32 32 34 33 39 38
18 19 20 21 23 24 24 24 28 27 23 24 23 20 18 18 18 18 18 19 19 21 22 23 25 31 33 35 34 29 30 32 37 36 29 30 30 31 28 33 31 30 34 35
20 21 24 24 27 27 24 26 30 29 28 20 25 21 22 19 19 20 20 21 22 22 21 24 28 33 38 41 38 35 34 33 35 39 34 40 34 35 36 34 31 33 36 36
24 25 26 27 28 28 31 33 33 34 30 27 26 21 25 20 22 22 24 24 25 25 27 30 32 34 37 42 42 40 35 36 37 39 40 36 39 36 35 38 44 40 34 33
25 24 25 28 27 28 30 32 33 33 33 40 34 30 28 24 28 26 26 28 33 32 30 31 33 32 34 41 42 40 35 34 38 40 42 45 48 50 45 41 38 32 32 31
27 28 27 30 26 29 26 31 39 52 50 43 34 32 37 32 30 29 32 34 37 36 36 34 33 32 34 37 40 37 36 35 36 41 42 45 44 44 43 41 37 41 36 36
32 37 32 32 34 36 35 36 52 50 49 39 36 31 34 30 28 28 31 32 34 36 36 34 33 34 35 40 40 41 38 37 34 37 40 39 42 42 41 40 43 44 44 44
38 35 31 34 32 33 36 44 39 56 80 65 32 33 34 32 32 31 31 31 34 36 37 34 33 34 36 39 41 46 42 38 37 38 43 45 46 49 46 48 48 44 48 43
42 42 33 32 33 34 34 36 47 46 77 45 23 31 25 38 34 33 31 33 36 36 35 33 32 35 36 37 40 45 41 40 42 44 46 46 49 45 49 47 47 49 49 54
35 41 36 35 38 39 39 42 41 38 52 57 53 27 33 31 33 35 32 37 37 37 36 36 36 36 37 41 40 40 42 44 44 44 48 49 48 47 45 44 46 49 53 50
44 47 41 31 37 38 36 39 37 49 44 54 63 41 28 30 35 35 36 41 38 37 33 33 36 38 41 39 37 37 44 42 43 44 44 48 48 46 46 47 47 49 48 47
42 49 38 34 38 39 42 39 43 47 58 61 83 44 26 30 31 29 37 38 38 36 33 35 38 40 42 39 41 40 41 44 42 39 44 48 50 49 48 51 53 52 53 56
57 46 41 33 28 32 39 34 35 43 71 52 49 38 29 26 30 33 38 40 37 38 36 40 43 42 39 38 38 43 43 40 41 46 46 51 57 61 79 78 62 61 57 58
48 51 44 39 35 35 42 41 37 42 48 60 47 35 31 31 34 37 42 40 39 39 44 46 46 45 34 38 46 42 39 41 48 48 47 61 64 62 62 55 49 46 46 44
52 59 66 60 45 42 51 40 40 44 43 40 42 43 32 33 39 44 42 41 43 51 52 50 45 37 36 44 44 39 40 44 46 45 48 48 48 44 46 46 44 41 39 37
62 70 73 84 56 62 85 51 42 42 37 42 50 36 37 41 44 45 45 46 57 61 55 48 42 37 43 47 39 40 40 40 44 46 44 45 48 45 42 38 35 37 40 40
90 85 91 98 92 92 46 34 34 40 38 33 35 36 44 43 44 40 49 60 73 72 44 37 35 38 44 39 36 40 34 37 43 44 44 42 43 42 37 35 36 40 41 42
60 83 100 100 75 53 40 39 44 46 48 36 40 44 45 47 44 42 66 77 82 57 38 35 33 39 44 37 35 40 41 38 41 46 43 46 43 39 34 36 40 41 42 43
66 76 93 94 99 92 47 39 40 46 55 48 52 60 71 72 91 64 81 72 51 40 35 34 34 41 43 36 38 42 39 36 40 41 45 43 40 37 37 41 43 43 42 43
98 98 99 91 97 70 42 43 45 78 73 58 62 75 84 90 96 90 76 57 39 37 36 33 35 41 39 39 43 45 34 32 33 37 43 42 37 36 39 43 43 43 45 55
66 98 99 95 99 97 40 43 77 64 57 59 67 83 94 89 83 70 53 43 40 38 37 33 36 36 38 39 44 40 33 27 32 39 46 43 38 37 38 44 45 46 49 61
68 57 60 61 64 42 42 47 47 51 62 77 90 85 66 61 52 47 42 38 35 36 36 36 38 40 39 38 41 44 39 38 44 52 61 46 41 42 43 47 50 51 49 66
48 47 69 71 48 43 48 47 55 66 87 88 73 56 53 50 46 42 33 31 35 38 41 40 42 41 44 41 48 51 53 56 56 52 64 46 46 49 46 47 48 46 62 76
53 54 60 64 55 53 49 72 76 85 84 64 51 46 43 36 35 32 35 35 36 40 40 41 40 41 40 42 45 46 49 48 47 50 53 52 55 55 54 51 48 56 63 74
52 57 75 84 62 78 91 82 90 80 53 47 42 34 30 30 31 34 34 33 36 41 43 41 39 40 39 44 51 47 47 52 56 57 54 57 63 62 60 52 53 70 73 74

GFSCGP_sfc_rhum_021.txt.gz
RH
12 13 14 12 12 12 11 12 12 11 13 15 13 13 12 13 13 14 13 13 13 14 21 21 24 24 26 33 33 34 36 39 31 28 28 25 27 25 26 24 31 35 34 37
11 17 15 13 14 14 14 15 15 15 15 17 15 14 14 14 16 15 16 17 19 20 20 23 27 31 32 32 30 29 28 29 26 23 27 31 33 29 29 31 33 32 34 35
16 16 15 17 17 18 17 19 22 20 16 16 17 16 16 15 15 15 16 17 17 18 20 22 26 31 34 34 31 28 29 30 34 34 26 28 28 29 27 28 29 29 35 36
16 17 18 18 20 20 20 21 23 22 20 18 17 19 18 16 18 18 19 20 20 19 20 23 26 31 37 38 35 32 31 30 32 37 32 38 33 34 33 35 33 36 41 37
20 19 21 22 23 21 23 25 25 24 24 19 18 16 21 16 19 20 22 23 24 24 25 26 28 31 34 38 39 36 31 32 34 37 38 38 40 37 36 38 42 39 33 31
19 18 20 23 22 22 23 25 24 25 24 33 23 22 21 20 22 23 24 27 28 28 27 27 28 27 31 37 38 36 32 29 31 36 40 43 46 44 38 37 37 33 34 32
21 22 22 23 23 23 22 25 39 46 42 40 24 22 32 26 24 25 28 29 30 29 29 28 28 28 30 34 35 35 32 33 32 35 37 39 39 41 41 40 38 42 38 36
24 36 24 24 27 29 27 29 50 46 43 32 25 22 27 24 23 25 25 26 27 28 30 29 29 31 31 33 35 38 37 36 32 36 38 40 42 39 40 41 44 43 41 41
30 30 24 27 25 26 29 36 29 46 58 54 22 24 27 25 27 26 26 27 29 29 30 28 28 29 31 33 34 38 38 35 35 38 42 44 42 44 44 47 44 42 44 39
30 36 24 24 25 28 28 27 43 41 66 41 19 20 22 33 29 27 25 26 28 28 29 28 28 31 31 32 34 37 35 34 38 41 42 40 44 43 44 43 45 45 46 45
24 30 29 23 28 26 29 32 32 27 40 48 42 25 23 24 25 27 25 28 30 30 31 28 29 32 32 34 36 33 33 36 38 37 39 41 40 42 42 41 42 44 46 44
32 34 40 22 25 28 27 30 30 47 37 43 55 40 22 22 25 27 27 28 30 31 29 30 32 37 39 37 34 33 36 35 35 35 35 37 39 40 41 42 50 56 51 53
34 41 39 27 31 31 32 28 30 34 49 48 74 44 21 22 24 23 26 31 31 32 30 32 35 34 35 35 34 32 35 36 34 32 33 36 38 49 54 54 64 57 52 50
52 34 35 40 29 23 29 25 23 30 55 52 45 32 23 22 25 25 26 30 30 32 34 36 35 35 35 33 30 34 35 35 31 33 35 38 48 53 50 55 51 47 43 41
39 47 35 32 25 23 25 28 27 29 31 50 42 32 26 26 29 31 31 31 32 33 35 37 40 38 33 28 32 34 33 32 31 35 35 39 43 44 45 46 44 40 37 33
38 54 58 51 30 26 34 27 27 27 31 30 31 33 25 27 26 32 33 38 43 39 41 48 42 32 28 29 33 33 33 32 32 35 37 36 40 45 48 44 42 36 32 32
50 61 58 69 47 58 84 43 30 28 29 34 46 34 26 31 36 46 48 46 44 49 58 56 35 30 29 31 32 31 30 30 30 34 34 37 44 44 44 37 31 32 35 36
72 64 84 95 89 91 39 26 26 31 29 27 27 28 30 38 43 39 48 56 56 63 56 40 30 28 28 28 30 30 27 29 31 30 34 41 42 45 39 32 31 34 36 38
45 70 92 99 65 46 37 35 36 42 43 29 34 36 37 42 47 41 58 58 50 51 40 32 28 26 25 27 29 28 29 29 28 28 30 34 43 41 35 32 36 37 38 40
54 68 82 90 98 90 45 31 33 35 56 41 44 47 51 52 84 64 73 57 48 36 30 27 25 24 25 25 28 29 28 30 30 26 29 32 37 38 35 34 38 38 38 38
94 95 98 90 96 63 34 35 37 66 69 52 52 68 76 89 80 71 63 43 34 30 28 25 26 26 26 26 27 29 28 31 28 27 30 33 43 46 35 37 38 37 39 49
74 93 98 90 97 92 34 37 75 60 59 62 66 77 85 69 60 48 40 35 29 26 23 23 27 28 27 26 28 26 26 27 34 39 43 60 80 55 36 41 40 40 43 52
53 51 59 57 59 36 36 42 47 52 59 64 71 70 62 51 41 38 34 28 24 23 22 24 26 29 28 26 26 29 31 36 44 50 61 69 55 49 41 46 45 42 42 58
41 32 62 65 41 38 45 49 62 57 63 67 69 50 42 42 36 32 26 22 20 19 21 23 26 27 30 27 25 28 35 48 48 53 53 59 60 54 45 42 38 40 55 69
48 47 57 63 45 49 59 71 76 68 69 59 42 39 37 31 30 25 21 21 22 24 24 27 29 30 29 28 31 33 45 48 50 52 49 50 52 52 59 52 44 52 57 69
45 50 70 82 59 81 83 81 79 68 49 42 37 32 30 27 24 24 26 26 26 28 28 28 27 28 30 32 40 47 49 54 61 62 54 56 59 59 64 54 54 70 72 71

GFSCGP_sfc_rhum_024.txt.gz
RH
12 15 16 13 12 10 10 10 10 10 12 13 12 12 12 12 13 16 17 17 17 27 26 29 32 36 39 46 45 46 52 51 48 47 48 50 53 51 49 46 50 52 51 50
11 16 14 11 11 12 12 14 14 13 13 15 13 14 13 14 16 16 17 18 25 26 28 32 36 41 43 42 41 39 38 44 42 41 45 51 54 51 50 50 48 48 50 52
20 16 13 13 14 16 14 17 23 20 16 14 16 17 17 16 16 18 19 20 21 24 27 31 36 44 48 48 47 38 40 42 48 53 43 47 49 52 49 51 50 48 58 57
17 14 15 16 17 19 19 21 22 20 20 21 16 23 19 18 19 20 21 24 23 23 25 28 35 43 50 52 50 43 41 40 42 50 52 58 55 52 54 55 51 48 55 55
19 17 19 19 23 20 22 22 22 22 24 22 17 22 21 18 22 23 25 26 28 28 30 31 35 40 43 53 54 49 42 39 44 48 54 60 61 59 55 58 59 57 57 55
18 15 19 22 20 19 19 24 22 23 26 48 22 21 31 20 22 25 27 29 30 30 31 30 31 35 42 54 51 51 44 39 44 46 52 56 60 61 61 61 62 60 55 52
20 21 21 19 23 21 21 26 53 68 59 59 25 24 33 24 23 25 31 32 33 33 34 33 32 33 36 43 46 46 46 44 45 51 51 55 60 62 61 62 61 60 55 55
25 38 23 20 25 27 26 26 67 60 66 49 23 23 33 25 25 26 26 27 29 32 34 35 34 36 37 42 45 46 45 45 44 52 60 60 60 59 59 59 57 60 60 61
28 31 22 22 22 22 28 38 25 44 71 68 24 33 26 25 27 26 27 26 30 32 34 32 33 38 40 41 46 50 47 42 45 52 58 60 61 63 63 60 62 65 63 50
26 36 21 20 21 26 23 22 44 58 73 52 24 24 39 33 31 29 26 27 30 30 32 32 31 37 39 42 45 53 47 42 45 48 55 48 52 54 59 60 62 62 64 62
24 28 29 21 27 23 27 30 31 26 47 62 58 33 24 26 26 29 26 27 32 33 33 32 33 38 40 46 47 48 44 41 44 44 50 54 52 52 55 59 63 68 66 63
28 32 60 22 20 21 23 28 29 71 52 65 68 45 23 24 26 27 29 30 31 31 33 34 37 38 40 43 44 41 45 44 45 44 44 47 50 59 61 61 60 66 70 63
35 45 58 34 32 29 25 24 26 36 64 63 78 49 22 22 34 28 30 28 30 34 33 34 37 40 39 40 39 38 42 43 40 36 40 45 50 60 61 61 64 64 63 59
54 33 37 52 30 24 27 22 22 27 70 62 56 38 27 25 31 30 31 32 32 34 33 35 40 41 42 38 35 35 40 43 38 36 40 48 53 58 58 62 63 61 57 54
39 49 36 33 24 23 24 26 25 28 31 49 41 30 26 30 30 32 40 40 40 39 40 44 48 47 40 34 34 35 40 38 41 38 41 48 52 52 57 61 62 57 53 46
37 66 68 59 26 26 34 29 30 27 26 26 32 33 24 26 37 41 40 38 41 51 50 48 47 41 34 32 33 36 38 38 40 40 41 40 50 51 57 59 61 56 49 49
50 76 75 79 57 63 89 56 29 28 27 31 52 35 26 41 44 46 47 49 55 54 54 50 45 38 33 34 30 31 35 36 37 38 36 40 53 50 55 50 49 48 53 53
74 74 93 94 92 86 36 24 25 32 28 28 28 28 38 44 42 37 52 59 60 53 47 44 38 33 32 28 27 32 32 36 39 41 45 36 53 52 51 54 49 51 54 57
43 79 97 100 71 51 36 34 39 44 45 34 40 44 45 45 46 42 54 56 57 50 42 35 30 31 31 29 29 29 29 28 29 34 47 61 47 46 54 52 51 53 56 59
49 74 90 92 95 81 53 32 32 35 63 48 52 59 61 57 87 75 55 54 40 34 30 28 27 26 30 30 31 31 29 28 31 44 49 47 42 44 52 61 59 55 55 53
93 94 99 85 86 70 36 34 36 65 77 64 62 66 68 76 74 60 48 40 31 27 24 22 23 26 27 29 30 31 28 28 30 38 45 53 64 80 82 80 59 53 60 70
83 93 97 84 96 88 34 37 81 68 62 64 64 67 70 61 56 43 35 31 27 23 20 19 22 24 26 25 28 27 28 28 36 47 53 56 68 74 70 69 61 61 63 74
62 68 74 68 72 53 49 56 63 65 66 72 71 61 56 51 41 35 32 28 22 22 21 22 24 27 27 27 27 30 33 38 48 50 56 61 72 77 69 81 66 63 64 85
36 31 76 69 44 37 54 63 62 62 67 63 62 49 41 42 35 34 26 23 24 24 25 24 26 28 31 28 28 34 44 49 49 58 60 58 62 66 64 61 61 64 85 90
54 44 54 61 45 51 69 69 71 62 62 58 41 38 36 34 32 27 26 25 27 28 27 28 31 32 33 32 38 42 47 54 62 65 64 68 74 74 74 70 71 79 86 85
49 54 75 80 65 62 74 72 66 62 54 43 35 34 32 28 27 28 30 28 28 30 29 31 32 34 38 41 48 50 51 59 70 78 74 80 82 84 82 73 70 72 79 71

GFSCGP_sfc_rhum_027.txt.gz
RH
22 27 30 22 19 16 17 19 21 21 18 20 21 19 21 23 22 23 38 39 42 46 43 44 47 50 49 48 44 49 54 58 50 54 55 57 59 57 57 57 50 48 56 58
24 31 20 16 18 19 18 22 30 22 18 20 23 24 24 23 30 32 35 39 42 45 46 50 58 63 67 54 50 50 49 51 53 56 59 59 61 58 58 62 61 62 61 59
28 23 18 17 26 24 27 31 31 28 23 24 26 28 26 26 26 25 30 34 37 44 50 49 52 60 61 59 52 49 51 52 55 55 58 59 61 62 63 60 58 60 61 62
25 19 20 23 27 26 34 30 29 27 31 38 25 40 33 29 30 30 33 40 41 42 45 49 56 61 62 63 59 51 48 49 52 54 61 64 70 68 70 68 65 61 62 58
30 26 30 30 28 25 34 33 32 34 38 42 34 38 34 29 36 37 40 39 44 44 48 51 56 56 59 59 57 52 50 51 52 59 62 69 64 65 64 67 70 68 65 61
25 23 27 30 25 26 24 34 36 37 42 67 43 41 41 33 36 41 41 42 41 42 44 48 54 55 60 62 59 57 54 51 56 56 57 61 64 68 71 72 74 71 68 67
28 30 29 27 33 32 33 44 78 77 86 74 50 49 58 42 34 40 44 47 46 45 47 46 46 52 57 56 58 53 55 53 54 64 65 67 68 66 65 65 65 66 72 71
45 50 32 27 32 38 38 41 82 74 88 73 36 51 49 39 38 40 40 42 43 44 42 44 44 47 50 52 56 55 52 51 60 65 67 70 66 75 71 64 68 72 68 71
52 42 30 27 28 32 35 50 35 59 80 84 51 46 40 37 36 34 35 41 44 44 41 41 44 50 53 54 60 59 50 50 57 64 63 64 64 68 66 64 69 78 77 60
36 48 28 28 28 35 33 32 58 73 73 70 48 58 70 45 40 36 34 39 44 45 43 46 51 52 53 54 57 56 52 53 54 55 57 55 57 61 69 74 78 81 79 73
41 49 41 29 34 37 41 45 44 44 69 80 85 57 45 50 44 46 43 42 46 43 48 49 50 51 51 54 56 56 52 52 52 50 52 56 68 71 73 72 73 78 78 78
42 52 67 39 31 29 34 42 44 80 64 84 87 64 33 46 42 41 40 38 43 44 46 46 49 52 53 52 52 52 53 52 49 48 51 52 68 68 67 68 66 69 70 77
52 54 80 54 46 40 37 32 40 63 77 67 78 63 32 38 42 38 39 46 46 44 45 53 55 56 55 52 48 48 50 50 46 44 48 49 56 66 62 66 68 71 70 67
62 46 57 72 48 37 43 33 32 56 89 80 75 55 38 52 49 53 54 53 53 52 56 56 59 59 56 48 45 44 51 48 46 43 46 51 57 67 65 66 69 68 65 61
56 64 58 52 38 34 36 36 36 40 45 63 54 47 41 51 56 55 51 52 59 59 58 59 60 58 54 48 45 44 50 47 48 48 47 54 57 67 63 67 68 68 62 54
58 82 74 69 50 47 50 46 49 42 40 42 45 48 47 50 52 57 61 62 64 62 61 59 57 54 50 41 41 40 43 52 48 45 52 54 63 58 67 70 67 66 56 52
74 82 87 87 74 82 81 62 44 40 41 46 64 53 57 58 58 72 75 71 71 68 63 57 54 51 44 43 37 41 46 45 45 48 56 65 69 79 76 76 71 54 55 56
78 85 97 93 86 65 57 37 40 45 44 44 50 60 59 62 69 73 71 74 71 69 62 55 50 46 41 41 41 42 39 42 42 57 55 62 72 81 83 75 68 61 56 57
68 90 97 95 96 66 49 47 53 57 66 64 68 69 67 63 58 72 64 70 71 66 56 53 44 42 43 42 40 40 39 38 41 53 61 68 70 68 76 82 83 81 62 65
74 85 89 94 94 88 66 46 41 47 85 73 76 81 81 73 92 87 71 61 61 50 37 34 31 34 37 39 40 40 38 40 45 60 61 64 79 88 88 89 84 80 70 73
97 94 97 96 92 83 60 48 48 74 78 81 78 82 87 90 89 79 71 52 39 35 29 30 31 34 36 36 38 40 39 41 52 58 60 64 78 89 88 93 85 73 69 87
86 95 97 90 87 93 52 57 65 77 86 81 79 85 84 78 71 66 45 40 35 31 30 31 35 37 35 32 40 39 46 53 58 61 66 70 77 86 86 98 94 84 82 88
80 83 92 80 82 64 64 67 79 78 83 84 82 74 72 74 58 46 43 37 33 34 34 33 37 38 39 41 39 53 59 58 64 70 73 73 71 72 82 90 95 78 85 95
58 57 84 78 62 66 81 78 75 74 73 72 76 70 54 55 49 48 36 35 36 37 38 37 38 42 46 46 50 59 62 66 71 77 79 77 83 84 83 71 75 86 96 97
69 65 65 76 66 82 76 77 78 80 74 70 65 48 45 46 42 40 40 39 41 41 38 41 46 48 50 59 65 62 63 70 77 82 81 89 92 92 88 80 78 94 89 90
70 68 84 87 71 73 91 88 76 75 71 56 45 46 41 39 41 41 41 42 45 48 48 47 50 53 63 70 72 72 73 77 85 87 88 94 94 97 92 92 89 78 82 77

GFSCGP_sfc_rhum_030.txt.gz
RH
26 27 28 23 22 19 20 26 24 26 21 20 24 27 29 34 48 53 55 56 57 58 57 55 60 66 50 53 58 70 77 70 69 72 74 68 63 64 68 64 66 66 64 62
28 31 22 19 24 28 25 29 31 24 21 20 29 30 36 40 48 50 53 56 59 59 55 55 67 74 76 78 66 64 59 57 55 62 65 65 66 69 67 66 67 65 62 61
32 23 20 26 30 29 38 36 38 32 30 27 28 32 39 37 40 42 48 53 55 58 63 59 61 76 75 68 65 57 56 56 59 61 62 66 68 70 67 69 69 66 64 63
26 21 24 32 30 32 45 36 33 32 35 33 30 45 40 42 43 43 47 57 60 58 58 59 62 64 62 63 58 56 55 57 57 61 65 65 69 66 73 75 72 69 65 64
32 35 33 33 34 30 35 34 38 39 42 47 41 42 42 42 48 49 53 54 59 62 61 63 63 61 62 58 58 60 56 56 61 65 68 72 67 74 76 78 71 67 67 64
28 29 30 34 30 31 30 38 46 46 50 66 48 47 47 49 46 49 47 51 54 59 62 62 63 61 64 67 66 64 60 61 66 69 72 76 76 76 75 70 70 72 72 70
33 36 31 31 37 33 34 55 76 77 81 74 52 60 61 44 43 44 53 54 53 54 59 64 64 65 70 72 66 62 59 65 64 67 70 71 72 71 66 64 69 70 72 75
49 53 36 30 37 41 42 51 78 67 81 70 45 64 60 50 43 45 43 48 48 50 51 59 61 61 62 61 62 62 59 63 68 72 69 71 72 72 70 66 73 79 81 80
53 46 36 33 33 35 42 51 42 70 81 80 61 56 46 47 44 42 45 47 48 48 52 56 56 58 60 62 62 57 59 65 64 66 64 64 70 69 70 74 81 85 80 68
44 49 35 33 30 33 33 36 59 74 69 71 56 63 63 58 53 48 46 47 49 52 55 57 57 58 60 63 64 62 60 58 57 57 57 57 64 72 76 81 82 78 78 78
48 49 44 39 38 42 41 48 50 52 74 78 84 61 46 52 53 48 46 49 50 52 54 59 60 58 57 57 57 60 59 54 52 52 57 69 75 75 76 73 75 77 78 75
49 56 67 44 35 34 37 46 52 78 60 86 86 65 47 49 48 48 47 48 52 55 60 62 60 60 59 56 54 58 58 53 50 50 52 55 73 74 72 71 71 74 70 71
51 57 76 57 49 44 40 40 56 65 77 65 77 61 42 47 53 51 55 55 59 62 62 62 61 60 59 56 53 50 56 51 49 49 52 54 57 75 73 71 74 74 76 73
62 56 57 67 55 45 43 39 53 60 84 76 75 53 48 61 62 62 64 67 68 67 64 61 61 62 61 58 50 48 53 56 55 54 51 55 58 65 74 75 79 79 78 82
58 67 64 58 47 44 42 43 44 46 54 68 57 59 61 65 65 65 68 67 66 66 64 61 64 65 61 55 48 46 50 56 57 53 55 66 68 68 70 74 80 86 85 78
66 79 72 57 63 62 52 48 56 54 46 46 58 75 65 62 68 72 73 72 72 70 65 64 60 56 54 48 47 46 49 50 52 57 66 68 69 70 80 84 84 88 91 90
76 82 79 64 80 71 72 60 52 45 50 48 62 70 65 72 75 82 84 76 75 74 70 64 57 55 53 50 44 46 46 45 50 62 65 72 75 80 82 84 88 88 90 72
79 92 94 80 76 51 46 48 42 64 70 66 67 69 67 71 80 81 74 72 73 70 63 60 54 48 48 46 45 45 41 43 52 62 69 73 78 81 82 86 90 85 79 89
70 89 98 77 91 55 48 51 52 54 79 72 74 74 71 70 80 83 68 71 76 73 61 45 40 42 42 40 41 42 42 44 54 66 68 70 78 87 88 88 84 86 92 94
80 83 81 98 70 65 56 53 46 49 79 77 80 82 81 76 91 81 77 75 66 40 35 33 34 36 39 39 42 45 46 50 63 66 67 70 84 89 95 94 92 98 97 79
98 96 97 99 95 82 58 54 49 75 70 84 82 86 84 82 80 72 81 60 41 33 35 36 38 40 40 41 45 49 55 63 64 65 68 70 76 89 94 96 97 94 81 87
83 94 98 94 94 86 56 58 67 70 90 84 86 85 85 83 82 74 50 44 36 36 36 39 42 42 43 44 49 60 66 62 65 69 73 76 78 78 90 89 96 85 85 86
68 72 83 77 79 62 65 63 76 83 88 85 84 83 75 76 60 49 45 41 41 42 40 40 44 47 49 51 59 64 66 65 71 76 81 84 83 86 84 82 80 80 84 95
61 68 88 79 62 67 77 83 81 79 81 76 75 74 70 55 51 46 42 42 43 42 43 44 50 54 58 63 66 70 70 73 78 82 82 88 85 88 87 77 78 85 97 97
64 70 72 81 85 88 85 86 83 81 77 74 70 54 51 50 45 44 42 44 48 51 52 54 59 64 65 72 76 76 76 78 83 84 81 87 88 92 93 87 84 94 89 92
77 70 86 88 69 76 85 88 81 80 75 69 51 49 44 45 45 44 48 53 57 61 60 64 68 70 75 76 78 78 84 79 88 87 89 95 95 98 94 94 88 78 84 82

GFSCGP_sfc_rhum_033.txt.gz
RH
28 28 28 28 26 23 26 28 31 28 23 22 29 39 46 59 64 72 72 67 64 64 68 64 67 62 66 81 84 84 81 75 70 78 86 81 77 71 74 64 66 64 63 57
28 33 28 24 32 27 29 30 32 31 28 28 44 45 55 56 66 68 68 69 66 65 63 63 74 79 82 81 72 64 57 59 60 62 68 69 73 74 73 71 68 64 63 62
31 28 26 27 33 36 41 38 40 33 30 30 37 43 53 49 56 58 64 66 63 61 65 71 74 85 80 70 66 59 58 57 61 65 68 70 72 77 74 72 72 70 67 66
27 32 31 33 31 38 45 38 34 34 33 38 34 59 51 53 56 61 66 72 70 68 74 77 75 76 71 70 67 62 61 61 62 65 64 64 66 66 78 80 76 70 68 66
35 38 36 34 37 33 38 37 39 40 45 49 45 56 53 53 62 63 67 69 66 62 65 62 59 60 61 64 68 67 64 65 69 70 72 74 72 79 80 74 68 67 66 68
34 34 33 36 35 35 34 42 50 57 54 66 52 50 56 58 57 59 59 62 61 61 63 66 64 64 67 72 72 70 66 71 70 72 72 73 77 78 74 70 64 69 72 74
39 39 35 36 41 38 40 55 75 79 80 74 53 62 61 48 48 53 59 61 59 61 69 72 67 64 65 66 70 70 70 69 69 71 73 74 74 71 66 65 69 72 77 79
53 52 40 32 40 42 48 53 76 64 78 69 53 73 64 60 53 52 53 56 57 60 59 59 58 62 60 64 68 67 70 71 72 70 72 74 68 71 70 69 78 81 82 81
53 48 38 34 36 37 47 52 47 76 84 80 70 66 53 54 56 54 54 52 53 57 60 63 63 66 67 67 64 63 68 68 72 68 69 72 75 73 75 75 81 84 83 76
47 51 39 34 34 36 35 38 63 75 69 70 64 74 73 60 61 56 52 63 58 62 64 66 66 65 66 66 63 65 68 62 58 56 59 58 64 72 76 83 84 86 83 80
49 47 44 43 40 45 43 50 56 59 77 79 84 66 49 56 56 60 59 60 62 66 68 63 61 58 58 59 60 66 61 56 57 56 58 62 70 77 80 83 83 83 81 81
54 57 68 47 40 42 42 51 52 70 57 88 85 65 47 59 57 53 58 59 65 64 62 62 59 59 59 59 57 61 61 60 56 55 58 62 72 78 82 82 78 76 79 75
51 58 71 55 49 44 45 48 63 66 76 68 78 62 45 59 64 62 65 67 69 69 68 64 60 62 61 57 53 51 54 62 58 58 62 60 61 64 74 77 78 78 82 84
59 63 56 62 53 52 44 43 59 59 83 75 71 55 71 70 70 71 72 73 73 71 66 65 63 63 61 58 52 53 55 61 61 58 59 66 71 71 73 77 81 83 86 90
56 64 68 58 54 48 44 41 53 56 58 64 57 60 57 70 73 76 76 75 72 70 70 66 63 62 60 61 54 51 53 53 55 60 66 72 75 74 75 77 84 87 92 91
70 78 71 61 70 66 54 43 48 51 52 60 72 83 71 69 74 78 77 76 74 71 65 62 60 57 55 48 48 47 48 48 54 66 67 73 77 80 84 87 88 91 93 94
75 79 69 54 80 61 58 48 53 51 51 54 83 68 71 79 77 84 85 76 70 68 71 70 59 51 48 48 45 44 46 48 52 64 68 75 80 83 84 85 89 93 96 91
81 91 87 72 74 52 41 50 51 52 72 70 74 72 68 76 81 83 81 72 72 72 71 51 48 45 47 47 42 46 45 48 58 66 72 75 76 86 88 91 92 89 94 95
74 89 97 78 79 50 40 58 67 57 59 73 74 75 73 83 85 86 75 75 70 72 56 41 41 43 42 40 41 46 49 49 61 69 71 73 81 90 91 96 93 92 99 98
78 77 76 98 66 57 46 58 51 52 76 76 76 81 81 91 98 85 82 73 64 42 36 36 38 39 42 43 49 50 50 60 67 69 70 74 78 87 93 97 94 95 88 88
99 97 91 100 86 74 53 54 53 70 60 86 80 83 86 88 83 72 76 64 38 36 39 41 43 45 47 48 51 52 62 67 67 70 73 75 77 83 88 92 83 99 97 87
91 97 99 95 95 78 56 59 65 66 86 85 87 86 86 75 79 79 56 43 41 42 43 44 47 50 52 54 57 65 71 68 69 74 78 80 84 87 87 92 93 87 89 86
76 69 83 78 79 61 61 68 69 80 85 87 87 83 76 80 77 53 47 47 46 43 44 46 52 56 60 61 66 71 73 74 77 82 81 85 82 86 89 78 77 82 85 95
70 68 85 75 59 64 64 82 86 84 85 82 79 76 75 72 57 49 45 46 46 48 52 54 60 66 69 68 73 79 80 80 82 81 82 79 81 83 91 72 74 86 97 98
71 76 75 84 73 89 84 84 84 81 81 78 76 69 62 55 49 46 46 49 54 58 59 63 70 74 76 80 82 82 83 86 86 86 81 86 88 89 94 86 83 90 90 93
76 74 85 83 68 75 72 85 84 84 82 76 54 49 46 46 46 46 52 57 61 63 66 72 75 79 88 86 88 89 88 84 87 96 93 92 95 96 93 93 85 76 85 83

GFSCGP_sfc_rhum_036.txt.gz
RH
30 26 28 25 26 24 26 26 30 31 26 37 61 67 69 72 76 83 82 80 78 76 74 75 78 81 84 89 87 93 97 95 89 91 86 82 86 75 72 68 65 66 65 65
31 33 28 33 31 32 30 31 35 35 31 41 61 62 68 70 80 83 80 79 77 75 74 76 83 89 87 87 87 80 68 65 63 67 71 71 75 77 74 74 72 70 69 66
32 32 30 34 39 37 43 37 42 36 37 38 45 53 64 62 69 70 73 73 70 72 78 84 82 85 80 67 63 59 60 60 64 69 74 78 79 79 76 76 74 72 68 68
34 36 33 34 33 40 44 41 36 36 34 42 39 50 62 66 73 75 74 77 75 72 78 78 74 72 69 70 68 64 62 63 65 69 67 67 71 74 85 81 77 71 67 70
40 40 36 35 39 35 42 39 41 42 48 47 48 56 63 67 75 73 77 77 76 79 79 72 68 63 72 73 75 73 68 68 72 72 72 78 82 87 84 78 71 70 68 72
40 37 36 39 38 36 37 47 53 60 58 68 59 52 60 71 67 70 68 72 72 73 76 70 66 67 75 76 76 74 70 74 72 74 74 76 80 81 76 73 71 72 74 74
42 42 37 38 41 41 46 56 76 79 80 75 58 61 58 52 58 61 66 70 70 70 71 72 69 72 72 65 66 70 72 71 72 74 76 78 78 72 67 67 70 70 75 79
54 53 43 34 42 44 54 51 77 65 84 73 58 73 62 61 51 57 60 65 67 70 70 74 67 67 72 71 72 72 71 73 72 71 74 74 70 71 69 68 75 78 81 81
54 50 41 38 42 40 52 55 50 79 85 81 72 67 62 63 65 62 62 62 65 61 62 70 73 72 72 69 65 72 72 75 74 69 73 76 73 72 75 76 80 85 84 78
49 54 42 37 38 39 40 45 63 75 66 66 69 75 76 70 68 64 62 64 66 69 72 72 70 70 70 66 65 69 75 68 70 65 66 62 67 72 79 81 80 85 88 86
50 48 46 46 43 48 47 54 61 64 78 77 84 70 60 63 61 62 64 67 69 73 71 68 65 63 62 60 59 68 65 60 59 61 63 67 69 77 82 85 87 87 86 85
57 57 66 48 43 48 46 52 50 63 51 88 85 67 56 64 62 64 65 66 74 72 70 67 65 63 62 60 57 64 64 61 65 62 65 66 67 72 79 82 83 85 85 83
49 59 70 52 44 46 49 59 62 65 76 72 80 59 60 66 67 65 72 74 74 74 72 68 64 63 62 57 52 50 60 66 62 62 62 63 70 72 73 76 80 82 85 88
59 63 56 60 47 54 46 53 62 58 82 72 72 54 64 72 73 76 77 77 77 74 68 68 67 68 61 59 52 55 55 57 55 56 64 72 74 77 79 80 81 84 86 92
54 63 69 65 64 54 47 45 61 57 57 56 54 61 50 68 74 78 78 79 76 73 71 69 66 62 55 54 53 50 50 51 55 60 67 73 78 81 83 86 87 88 90 92
69 78 69 66 74 68 61 48 49 58 56 62 66 61 65 75 80 83 82 80 77 72 68 66 58 52 48 46 47 47 46 49 54 65 69 75 81 82 83 87 88 92 92 95
73 78 71 69 77 60 57 52 52 55 60 56 71 54 80 85 82 86 87 82 76 72 69 65 51 48 48 47 44 44 47 52 54 67 72 77 80 79 85 89 93 94 93 93
79 81 80 69 71 47 36 51 52 54 55 59 68 72 73 77 84 82 85 84 74 73 70 58 51 48 49 47 45 49 49 53 59 67 71 73 77 84 91 92 95 94 91 98
72 84 94 72 74 45 33 58 65 60 54 70 68 78 78 88 82 85 83 73 70 72 67 45 44 45 44 43 46 50 51 51 61 71 73 74 81 86 90 92 96 86 96 97
74 75 76 95 65 54 44 56 56 54 75 67 72 80 87 85 94 79 82 78 74 59 39 38 42 42 45 47 51 53 52 62 70 72 74 78 80 82 86 92 94 83 92 98
98 99 87 100 82 68 51 55 56 69 60 82 77 81 91 88 82 75 84 77 47 37 38 41 45 46 49 52 55 58 67 70 71 73 78 81 81 88 91 90 83 91 98 95
93 98 99 96 93 75 54 60 64 64 78 81 83 82 80 83 79 82 63 43 42 43 42 44 48 52 57 59 64 69 76 74 76 80 84 82 79 81 87 93 96 82 92 86
76 72 83 77 78 61 58 67 71 72 73 86 85 87 83 81 80 60 52 50 46 41 45 50 55 58 64 68 73 79 80 82 84 86 86 80 78 74 83 88 78 80 84 95
76 68 82 74 55 67 65 64 81 82 80 84 85 82 80 77 66 53 45 46 44 48 52 56 61 68 72 78 82 86 86 89 91 90 82 80 81 76 89 90 75 78 95 98
74 75 75 81 71 78 74 84 76 84 85 82 82 82 79 66 50 44 47 47 51 57 58 63 71 75 79 87 87 88 91 93 92 86 85 87 94 86 92 91 87 90 89 93
78 73 84 80 60 65 63 73 86 85 86 84 69 60 51 50 54 51 51 55 59 61 64 71 74 81 88 91 92 90 90 91 94 91 88 92 98 94 92 93 88 79 84 83

GFSCGP_sfc_rhum_039.txt.gz
RH
26 23 23 18 19 17 19 19 20 21 24 41 53 56 57 60 59 62 62 62 64 66 69 73 77 79 81 84 83 96 90 94 84 78 79 68 69 56 52 47 53 51 49 50
25 27 22 29 25 25 23 25 28 28 30 39 47 55 59 60 65 62 62 64 66 70 70 73 73 75 78 84 82 82 72 69 61 50 49 50 50 51 50 50 54 51 51 50
31 23 27 31 32 31 33 32 30 27 32 36 37 41 55 60 62 63 62 61 63 62 64 66 65 68 71 69 68 69 65 59 56 54 53 55 55 54 50 50 47 48 50 50
31 30 28 29 32 31 36 30 29 27 26 29 32 25 45 60 67 65 64 62 60 60 61 55 52 52 54 54 52 49 51 50 53 56 52 54 46 46 55 54 48 45 51 51
32 32 32 32 32 30 36 35 34 34 36 33 34 29 41 62 71 67 63 59 57 59 57 52 48 48 50 56 56 56 53 54 58 57 56 54 59 59 55 52 54 54 52 52
34 28 29 29 35 32 40 39 43 46 44 47 42 36 34 57 56 63 59 57 57 58 56 51 50 51 51 60 59 58 56 57 57 57 60 62 64 60 54 53 51 50 51 51
36 35 31 33 33 33 37 42 52 56 61 54 47 50 42 40 46 54 57 55 56 55 54 53 52 50 52 56 61 57 52 54 57 60 60 62 61 58 55 51 49 50 46 47
42 38 31 31 32 36 42 40 63 56 64 55 47 52 40 46 42 46 48 48 54 56 55 53 54 53 54 57 57 55 54 56 55 56 57 56 55 49 49 51 52 53 53 54
48 40 31 33 34 32 43 43 41 63 72 63 45 46 42 53 51 52 50 53 54 53 55 54 55 58 56 55 56 60 56 56 54 57 56 56 56 58 57 59 60 59 62 58
44 47 34 30 31 35 35 40 50 55 61 49 41 50 43 56 54 54 52 53 53 53 55 56 56 59 55 51 52 57 56 60 59 50 52 48 51 53 58 61 62 63 60 59
40 46 42 36 33 39 41 46 53 49 57 49 56 35 47 48 50 53 49 51 53 55 57 56 51 50 47 46 50 54 56 50 49 48 50 52 50 52 55 54 54 55 57 54
43 53 56 38 34 36 35 41 44 50 44 66 62 42 41 49 50 52 51 54 56 57 54 49 48 47 45 44 49 55 56 56 50 47 49 47 49 51 49 49 51 57 57 58
48 54 56 42 35 37 38 45 48 52 60 59 80 38 44 54 55 52 52 59 61 57 53 50 48 47 48 45 45 46 50 45 40 38 39 48 51 50 50 53 57 56 55 56
57 53 51 52 40 43 41 52 47 47 63 53 53 36 35 50 56 59 60 60 58 57 53 48 50 48 49 45 42 42 44 39 36 36 42 51 53 55 56 60 59 59 60 63
51 53 50 51 52 44 36 40 52 47 46 51 40 43 34 36 50 57 59 61 62 57 54 51 51 48 46 44 46 38 37 36 37 38 46 52 59 60 58 57 63 62 69 66
58 64 55 58 59 57 51 42 43 52 48 43 48 45 37 49 57 63 63 62 62 59 54 52 48 45 40 39 35 36 35 37 41 41 51 57 61 58 57 62 66 69 70 64
61 71 65 64 59 48 61 46 43 43 45 43 49 37 59 63 62 61 63 63 62 58 56 54 45 41 39 36 35 32 35 41 42 44 52 57 58 56 60 62 64 70 74 71
68 65 67 68 67 55 35 43 39 44 43 43 47 52 55 56 64 62 58 61 63 58 57 53 41 39 37 35 32 38 36 40 42 50 54 53 56 60 61 62 62 74 73 88
59 70 80 76 54 40 27 40 50 55 41 45 44 53 64 71 64 64 63 61 59 57 56 45 36 36 35 33 36 37 38 39 46 52 53 54 61 62 61 63 71 73 73 84
63 67 75 78 62 59 39 37 48 44 60 45 55 66 76 66 77 54 65 63 55 55 39 35 35 33 35 38 40 41 40 46 51 55 57 58 62 63 63 67 70 74 81 81
98 95 90 83 78 60 42 40 47 54 52 55 62 67 76 67 66 62 69 65 55 37 31 33 34 35 39 44 46 45 47 52 54 58 60 61 63 63 63 66 66 75 83 84
77 92 95 90 83 72 45 50 63 58 56 59 69 68 75 73 71 75 67 48 36 35 38 36 39 40 45 48 52 49 52 54 61 62 64 63 63 60 64 67 68 75 74 77
69 68 73 66 67 55 49 58 56 58 59 62 68 65 65 72 71 58 47 40 44 41 37 40 40 47 51 53 58 60 62 64 67 70 69 66 64 70 65 67 66 66 72 80
67 61 71 68 48 56 58 54 59 62 69 61 68 69 70 68 65 48 46 42 43 42 41 44 46 51 54 59 68 65 67 70 71 74 71 64 66 72 72 62 63 62 69 76
63 65 66 68 61 61 57 67 67 65 72 70 73 73 72 63 50 45 47 47 52 54 49 49 54 57 57 67 69 66 65 70 71 73 71 72 76 82 82 66 61 65 71 79
69 67 78 78 57 57 57 63 73 74 73 75 69 57 50 46 54 62 65 55 55 52 50 56 58 60 64 70 67 65 66 68 71 74 71 74 78 80 80 70 64 79 84 82

GFSCGP_sfc_rhum_042.txt.gz
RH
18 17 14 11 11 11 12 13 11 12 17 16 16 21 24 37 34 35 35 37 38 40 46 50 56 57 59 74 72 72 78 91 92 67 63 51 53 45 42 38 42 42 41 43
17 17 19 17 15 14 13 15 17 20 18 20 24 27 29 34 36 36 36 38 40 46 50 58 59 60 62 68 69 68 61 64 57 47 40 38 38 36 35 38 44 42 44 42
17 20 21 18 18 17 20 19 21 18 23 23 22 27 33 39 42 43 42 38 41 45 53 60 61 62 65 65 62 53 50 49 43 40 39 40 42 42 39 40 38 40 40 36
21 21 20 20 22 20 21 21 20 21 20 18 22 17 28 35 37 42 45 45 45 47 46 46 44 49 50 51 45 37 39 39 42 44 38 40 33 33 39 40 38 36 38 35
24 21 21 20 22 22 25 22 21 20 20 21 21 19 23 35 38 38 44 45 47 45 40 35 32 34 33 41 41 40 38 37 41 42 41 40 42 42 41 41 45 41 38 37
23 21 21 22 25 22 26 26 26 25 25 30 21 24 12 20 26 37 42 47 47 44 36 30 31 32 35 45 46 43 39 40 43 44 46 47 48 43 39 38 36 33 32 32
24 24 22 23 25 27 25 24 29 37 38 33 33 31 18 25 31 33 43 46 44 39 36 34 35 35 36 43 46 46 40 42 44 46 45 45 44 40 36 34 31 35 31 33
23 32 22 24 24 22 25 23 32 30 36 31 34 30 26 31 31 30 36 39 40 37 35 34 34 35 39 43 42 41 40 42 42 42 44 42 35 32 32 35 39 39 39 41
28 28 24 26 25 24 31 29 30 42 58 48 23 26 26 33 34 32 37 38 37 36 36 35 37 39 40 42 47 46 42 40 42 44 46 47 41 40 39 42 45 43 47 38
29 34 26 26 24 28 27 27 36 37 47 31 18 24 17 33 36 36 38 38 36 35 36 37 38 44 43 41 43 47 41 42 45 44 44 39 39 38 42 45 45 40 34 32
25 27 33 27 26 24 33 32 31 27 39 31 29 16 27 30 31 34 35 36 34 35 38 40 41 44 41 38 39 41 42 40 40 41 43 42 36 37 37 33 32 32 35 34
32 32 43 29 26 26 25 27 26 32 32 47 46 21 23 31 34 32 32 33 32 35 38 40 41 41 37 36 36 38 40 40 40 42 38 33 31 31 30 30 32 37 38 39
31 36 43 36 29 30 29 28 27 32 38 38 62 21 24 29 34 33 34 33 37 41 40 39 38 37 35 35 36 36 40 37 36 29 26 28 30 30 31 34 38 39 41 41
44 35 34 37 27 27 33 31 28 26 40 26 30 15 20 24 29 31 34 34 40 43 39 38 37 35 34 33 35 36 38 34 27 23 23 27 31 35 36 40 41 44 44 46
36 38 34 33 32 30 27 27 31 29 26 37 19 16 12 15 19 23 31 37 40 42 39 37 36 36 34 34 36 36 30 27 24 23 24 28 38 42 42 42 45 46 49 49
41 46 44 44 42 38 36 28 26 29 26 26 23 22 16 19 25 29 38 40 42 42 39 37 36 35 34 35 32 29 26 26 28 26 28 32 42 42 42 46 49 49 50 50
45 53 49 42 41 39 73 38 27 24 26 29 32 23 22 27 31 32 37 40 42 41 40 40 37 35 34 32 26 24 25 28 29 29 30 39 43 41 43 43 45 48 52 55
52 50 60 64 65 80 20 24 24 26 23 22 25 24 25 26 31 33 32 38 42 41 41 39 36 36 32 26 25 28 25 28 30 30 34 38 41 42 42 46 48 51 54 65
37 48 75 91 41 28 16 22 25 30 22 24 24 22 31 41 43 40 39 38 41 41 39 36 32 30 26 27 26 27 27 28 29 33 36 37 42 44 45 48 51 54 64 65
43 48 58 72 89 89 29 32 36 34 36 30 31 34 39 45 53 22 44 43 42 39 36 32 29 30 28 32 29 29 27 28 32 37 39 39 42 46 48 50 51 56 60 61
83 88 92 77 91 48 26 26 37 43 35 34 35 34 45 44 38 48 42 46 40 38 32 26 26 29 29 32 33 31 26 33 35 42 44 42 42 46 48 49 49 54 61 63
59 80 93 82 99 80 29 40 48 41 38 36 40 41 49 46 54 52 50 47 38 29 27 30 33 31 31 32 33 25 29 30 42 44 44 44 46 46 45 52 52 54 58 61
54 48 52 46 44 38 34 37 40 42 44 41 44 41 48 52 52 51 48 40 32 30 36 34 33 35 35 33 35 36 35 41 43 46 48 50 49 46 46 54 58 56 56 66
43 44 54 51 30 33 36 35 36 37 42 41 43 46 46 48 51 48 39 36 40 38 46 54 39 34 34 39 42 40 43 46 44 50 52 51 51 49 47 51 56 55 61 65
42 48 46 48 36 32 36 43 51 52 52 52 53 55 56 52 47 39 38 40 52 70 52 42 37 36 35 37 43 42 43 49 51 54 53 54 54 56 54 54 55 56 56 61
43 48 59 58 50 52 47 54 62 60 59 59 56 52 48 44 41 45 65 79 74 58 41 43 46 45 42 42 41 42 45 48 55 57 55 58 59 60 59 60 56 72 75 79

GFSCGP_sfc_rhum_045.txt.gz
RH
18 20 18 16 13 11 11 9 10 8 8 9 10 12 17 20 20 22 24 25 25 28 29 36 36 36 32 44 54 67 77 76 65 61 60 60 54 44 41 38 41 41 40 42
17 22 15 10 9 10 10 13 11 11 9 14 11 13 15 20 21 20 22 26 29 30 36 39 43 45 48 60 64 67 62 62 57 48 44 41 38 35 34 37 42 41 43 39
30 19 16 12 11 12 12 14 23 14 14 12 14 16 21 20 20 22 22 23 25 31 38 45 48 52 58 64 68 59 52 47 41 36 33 34 35 38 37 39 38 40 39 35
25 23 15 13 13 13 17 16 14 15 17 18 15 17 18 22 26 30 30 29 30 32 38 43 46 60 63 60 52 43 38 34 33 34 34 38 33 37 42 35 34 37 37 35
18 16 14 14 17 15 23 17 16 15 14 17 17 14 23 21 24 28 30 33 33 37 40 41 42 42 40 43 39 34 32 32 36 37 35 38 37 37 35 36 42 41 38 34
41 16 15 18 17 16 19 19 18 17 17 28 16 18 13 19 18 22 28 32 36 36 36 31 31 32 34 40 39 37 34 33 37 39 40 40 43 38 36 39 38 33 29 28
18 17 18 17 19 19 18 21 36 35 30 32 20 21 14 14 20 18 29 34 37 36 33 29 28 27 33 38 40 38 35 36 39 42 43 43 42 39 36 34 32 31 30 30
21 28 18 16 19 20 19 18 29 31 30 24 21 17 21 20 23 22 27 31 37 37 32 28 28 28 32 39 41 39 36 39 41 42 40 40 36 31 31 31 34 36 35 36
26 22 18 19 18 17 22 22 21 28 50 41 16 15 25 23 25 25 29 33 38 35 32 28 29 31 33 37 40 41 38 39 39 40 40 38 37 34 35 36 38 38 40 33
18 25 19 20 20 21 21 20 28 27 39 30 13 14 17 23 24 25 29 34 36 32 30 28 28 33 34 36 39 43 39 38 37 38 37 34 35 36 36 39 40 37 33 31
16 20 27 22 21 17 25 25 22 21 28 35 26 17 15 18 20 25 26 31 33 32 30 29 30 33 36 38 40 43 38 37 35 34 39 44 39 34 36 34 30 29 32 32
20 22 30 24 19 18 19 20 21 36 28 32 42 22 15 18 19 21 23 28 28 28 28 29 31 35 38 39 38 39 38 34 34 37 48 39 35 32 30 28 27 32 34 36
25 24 32 29 25 24 24 20 19 21 30 32 54 26 16 18 20 20 21 23 26 28 27 30 34 37 37 36 36 36 35 34 38 45 36 30 29 29 28 27 32 33 35 37
42 22 26 34 23 21 30 23 20 24 40 31 23 16 13 16 17 16 19 20 23 27 29 32 34 35 34 34 35 34 35 40 41 30 24 25 28 28 29 32 35 37 38 40
31 34 25 22 23 23 21 20 20 24 24 33 22 13 8 9 11 14 15 18 21 29 33 33 34 34 33 33 34 33 37 33 32 24 23 25 26 32 34 37 38 40 42 41
30 37 35 39 26 28 28 22 21 18 19 15 15 15 12 14 12 15 16 20 23 29 32 32 32 32 33 32 33 35 32 29 24 25 25 24 28 32 36 38 41 41 41 42
39 42 46 44 32 30 63 34 22 18 17 19 27 19 17 18 18 18 19 23 25 27 31 33 32 33 33 33 32 29 28 25 27 27 24 25 32 34 35 34 36 41 45 45
44 46 53 57 67 80 18 16 16 21 18 15 15 15 14 16 20 21 21 23 27 29 32 34 33 33 31 29 26 26 25 29 29 26 24 26 32 34 34 36 39 43 44 49
30 44 60 86 40 26 19 15 20 22 20 14 19 15 15 24 29 26 25 25 27 31 32 33 32 31 29 25 25 31 28 26 24 25 26 27 30 34 36 38 42 44 47 57
32 38 51 58 85 89 32 24 25 24 31 18 19 22 23 28 40 27 30 30 32 32 32 32 30 28 26 27 27 31 30 25 26 25 29 30 32 35 37 41 44 45 46 53
77 80 82 69 84 50 23 22 28 40 41 26 26 24 27 27 39 38 32 36 34 33 32 29 27 26 26 32 42 38 26 22 24 30 32 34 33 35 38 43 43 44 49 60
59 77 91 75 98 81 22 28 38 41 27 31 29 30 40 37 43 43 38 39 37 34 29 26 27 29 40 38 31 22 20 24 28 34 36 35 36 36 38 46 46 47 54 68
47 40 50 42 44 33 24 26 29 30 33 34 35 34 34 40 40 42 41 40 34 28 27 30 38 53 43 34 33 34 30 31 35 38 39 39 41 42 41 44 44 54 58 64
32 34 45 39 24 24 27 29 32 35 41 38 39 40 40 42 40 44 38 32 30 34 46 55 58 50 36 29 33 35 39 41 39 43 44 45 46 46 46 42 43 56 65 69
34 36 34 38 26 28 36 43 49 48 44 44 44 46 49 46 45 38 34 36 51 67 60 46 38 42 42 33 36 37 36 41 44 46 47 48 51 52 51 46 50 61 62 66
31 35 54 55 48 52 46 54 52 51 51 49 46 44 40 39 38 45 67 74 70 55 57 63 49 41 36 34 35 35 34 38 44 50 50 56 58 56 51 51 58 66 74 76

GFSCGP_sfc_rhum_048.txt.gz
RH
20 23 23 19 16 13 15 15 17 12 11 11 11 15 13 16 19 25 24 23 23 23 27 34 38 38 43 61 66 78 85 82 83 80 75 72 72 64 63 58 58 61 57 56
21 31 21 15 15 14 12 17 16 10 8 10 11 11 14 15 18 22 25 26 27 30 33 40 42 46 49 62 73 75 73 75 71 70 62 64 60 57 54 57 60 57 58 52
26 42 34 21 18 14 13 24 29 22 16 10 13 12 17 16 16 17 21 24 26 30 37 41 45 52 63 70 77 75 66 68 67 58 54 55 57 59 57 60 61 58 54 50
40 29 31 24 14 12 29 26 19 24 35 18 22 32 28 19 20 20 20 24 28 30 34 40 47 65 68 73 69 67 64 62 53 52 50 56 50 51 54 56 53 55 52 48
41 32 29 21 16 17 31 29 26 15 17 22 30 34 33 27 24 22 27 26 27 30 34 42 61 62 64 68 72 67 57 47 48 50 52 58 57 59 57 58 63 60 62 55
30 32 28 23 16 14 22 25 18 18 25 38 40 36 33 31 32 26 25 29 30 33 40 42 52 58 62 67 63 55 44 41 48 50 53 58 58 56 58 58 63 60 60 51
24 17 15 16 16 16 16 21 43 81 75 48 14 21 20 34 22 28 27 32 35 40 42 42 43 44 46 49 53 50 43 44 49 55 56 57 58 54 52 51 54 52 51 53
33 34 19 15 16 46 36 24 70 63 67 42 28 21 25 22 19 20 26 30 37 40 41 37 39 39 43 48 50 48 42 45 49 56 58 58 55 55 50 48 51 54 56 59
26 32 31 18 13 25 32 25 21 27 61 67 22 12 24 21 23 23 27 31 40 40 38 33 34 38 42 47 53 56 46 46 53 56 58 56 51 50 51 49 51 58 57 42
35 62 46 24 17 17 18 16 32 31 51 46 19 17 34 25 23 24 28 35 41 40 38 33 32 38 39 44 47 57 51 48 49 50 55 49 50 47 52 50 53 51 48 46
31 48 32 20 21 15 24 26 19 17 32 57 56 27 18 18 20 24 24 33 38 40 37 34 32 35 38 44 48 53 51 48 48 50 53 57 49 52 47 50 45 42 44 46
19 24 37 24 16 15 18 21 21 60 39 46 63 39 17 20 21 22 23 28 33 36 34 32 32 37 40 46 50 53 54 47 47 49 54 54 57 52 46 45 39 43 47 50
23 31 45 29 21 21 24 17 17 22 38 44 77 38 16 17 18 18 22 24 30 34 32 32 33 40 44 45 48 48 50 47 45 44 50 54 52 43 41 40 41 44 48 50
43 27 28 41 24 21 27 24 18 23 67 49 42 22 14 17 19 17 22 23 25 30 29 30 33 39 43 45 44 45 47 48 46 46 46 43 41 40 40 42 45 50 52 54
30 32 22 18 17 18 23 22 19 21 24 41 33 21 14 12 16 17 18 19 20 20 25 28 35 41 41 42 45 43 44 47 46 43 39 41 39 40 44 47 51 52 56 53
31 41 38 39 28 23 29 22 20 20 20 17 20 20 14 15 17 18 18 16 18 21 24 31 33 36 38 40 42 41 43 43 42 39 40 39 36 38 47 52 53 56 55 56
37 52 58 66 35 37 60 36 25 21 18 20 28 23 17 16 16 19 22 19 24 23 25 32 34 37 40 42 38 41 40 39 36 41 40 34 36 42 49 45 47 52 57 60
42 53 73 80 72 77 27 15 14 19 16 14 14 16 14 23 22 20 21 24 27 28 28 34 37 39 40 38 37 41 33 37 43 44 33 32 38 43 45 48 49 55 58 62
32 57 80 97 60 34 24 17 20 22 23 20 20 19 17 23 26 31 24 26 28 31 33 36 38 40 37 36 33 33 36 37 36 32 31 33 40 41 43 47 54 57 62 64
28 46 77 76 89 89 36 23 20 20 44 21 20 24 24 23 57 46 32 29 28 31 34 36 36 34 35 32 35 35 38 37 35 31 34 38 41 43 44 50 56 60 60 58
83 93 93 80 95 64 24 23 24 49 58 32 29 29 35 36 51 44 37 35 33 34 35 33 33 33 36 46 44 43 42 35 32 36 42 43 42 42 46 53 56 58 64 70
77 88 97 88 100 92 22 25 44 48 38 34 34 37 46 45 44 45 40 39 38 34 31 30 33 42 42 37 39 35 41 40 42 42 45 44 44 43 42 59 60 60 65 76
57 49 67 61 66 40 26 33 34 34 39 41 43 37 39 44 39 39 43 41 34 30 36 44 49 53 53 47 42 36 39 36 45 50 48 46 46 47 48 57 61 68 67 86
32 33 56 49 26 26 30 37 43 41 46 41 42 47 47 49 46 46 40 32 37 50 58 57 55 52 46 38 46 51 46 48 42 48 50 51 54 57 58 53 55 65 87 91
39 37 36 39 28 36 44 54 53 49 49 48 45 44 46 46 44 37 49 62 64 61 53 48 53 60 58 54 45 37 37 44 46 51 52 56 61 68 69 62 64 78 79 86
34 39 68 71 54 54 61 50 48 50 50 46 46 55 54 55 64 67 71 65 55 63 66 75 65 53 40 35 36 36 38 38 49 54 59 80 87 84 74 66 71 71 76 78

GFSCGP_sfc_rhum_051.txt.gz
RH
29 38 38 29 24 21 21 23 25 19 17 20 29 28 29 30 31 34 34 30 30 31 32 33 42 53 61 79 84 88 91 95 95 99 99 98 95 84 77 71 67 67 66 62
34 49 35 31 29 25 21 22 27 23 16 18 18 21 24 25 31 31 29 32 29 38 43 44 48 61 69 75 91 92 86 91 90 94 92 83 78 74 70 70 72 68 64 63
41 39 28 30 35 36 33 32 32 31 29 23 22 25 26 22 23 32 30 28 30 42 50 52 55 71 80 94 94 86 86 87 84 85 78 79 75 76 75 72 74 68 59 55
42 32 29 34 35 32 38 26 31 28 30 36 29 43 37 30 23 24 33 39 45 42 49 51 61 89 92 96 87 84 81 83 79 78 73 73 69 64 71 74 73 66 60 55
33 33 36 37 32 26 34 32 28 32 39 35 38 42 41 27 30 29 28 37 40 42 48 52 69 82 86 87 85 90 81 78 78 58 64 65 69 70 73 73 64 67 60 56
31 30 34 34 28 25 26 32 36 49 48 54 35 42 50 36 26 31 32 38 40 47 47 59 70 70 76 85 90 91 85 78 59 61 64 64 66 68 63 68 68 72 70 69
35 26 27 34 35 32 33 41 66 74 78 69 31 45 48 34 28 26 26 34 46 59 68 74 72 77 77 92 91 87 67 59 59 62 67 69 64 63 62 67 66 58 58 63
42 43 38 32 30 36 40 46 67 68 83 68 38 47 44 31 30 32 34 43 54 62 63 71 74 75 76 72 67 52 59 61 62 65 69 66 59 62 60 57 58 60 64 64
43 54 40 29 28 28 48 57 42 54 76 80 45 32 36 32 33 42 45 50 59 59 56 58 58 59 63 64 63 61 60 61 66 69 68 62 57 56 55 56 62 66 55 45
49 61 51 42 34 31 35 30 52 54 50 54 40 39 51 39 36 38 46 57 58 56 51 52 52 56 57 60 62 64 62 63 64 57 52 53 56 53 56 58 56 51 51 48
43 48 55 42 48 38 34 37 35 35 59 66 77 47 32 33 34 34 44 51 56 57 52 50 49 49 55 58 64 61 66 58 55 53 60 56 53 55 54 50 51 47 47 49
35 57 77 50 37 30 24 34 39 70 45 61 78 54 27 29 32 32 30 45 52 51 51 48 48 51 53 52 51 56 61 55 54 55 59 66 60 54 54 55 44 49 50 54
42 45 58 49 38 34 34 28 26 35 62 55 74 55 25 23 24 25 30 42 50 52 51 48 49 45 49 51 56 59 53 52 55 56 61 62 55 56 50 41 49 51 55 55
47 43 49 58 38 34 38 32 30 37 77 59 58 44 30 27 26 25 26 29 47 49 44 45 45 46 51 58 62 62 56 55 52 53 60 58 59 50 48 51 53 58 56 56
43 46 41 33 30 33 31 36 33 32 39 55 45 38 30 27 26 28 32 32 27 33 43 44 54 68 70 70 66 54 54 53 50 51 46 47 48 48 49 54 57 56 54 54
44 56 50 57 42 38 43 35 34 32 30 29 34 34 27 26 25 25 23 22 28 30 36 50 59 58 60 61 53 50 53 50 51 45 48 45 47 50 55 54 53 54 60 56
56 60 75 76 48 47 61 43 35 34 33 34 42 35 33 34 32 33 33 34 31 34 38 42 50 51 53 49 46 50 48 46 48 48 46 44 50 50 50 48 49 54 58 58
64 65 83 84 72 65 44 27 21 26 28 29 29 35 36 36 40 37 40 39 40 41 42 48 54 51 48 46 46 41 41 47 49 48 40 43 51 50 50 52 56 56 60 64
61 82 88 77 82 57 37 29 33 35 38 32 33 32 35 34 48 54 41 39 42 49 55 54 49 46 44 41 42 42 42 39 36 40 42 46 50 52 56 58 57 58 65 69
51 71 77 90 84 74 56 31 29 30 60 42 40 47 52 43 82 74 53 48 50 49 44 42 40 46 50 47 44 47 50 48 47 45 52 56 58 60 59 58 61 64 64 62
89 94 86 97 94 81 47 32 38 49 61 49 45 51 57 69 73 59 53 43 39 40 44 50 50 50 50 48 46 47 48 52 52 54 58 58 59 57 56 56 60 62 68 76
79 95 98 97 98 86 36 36 50 65 55 55 54 59 61 59 61 58 47 45 52 53 52 54 58 55 47 45 47 50 53 49 52 52 53 53 54 51 50 64 68 70 75 82
81 81 88 79 86 64 53 60 63 62 63 62 65 65 64 64 59 52 48 60 62 64 65 63 64 56 49 45 48 53 51 46 52 55 58 58 57 57 57 67 70 77 78 90
56 47 70 58 52 60 68 65 62 62 67 62 60 60 62 65 56 50 64 69 67 63 59 54 52 54 58 57 54 59 60 55 55 58 60 63 67 69 71 69 72 81 92 92
62 51 54 57 71 70 69 68 69 64 62 61 65 65 65 67 71 70 71 66 59 58 59 66 72 71 68 65 66 58 47 52 54 60 65 69 73 78 83 81 83 85 86 90
56 60 73 86 78 74 73 69 65 67 67 68 72 75 72 72 75 66 63 62 69 77 78 84 79 77 60 46 45 46 48 51 60 65 70 84 88 90 89 88 80 80 82 81

GFSCGP_sfc_rhum_054.txt.gz
RH
39 42 44 35 36 33 26 28 29 24 26 42 38 34 33 42 46 43 40 53 49 52 44 43 50 53 60 82 82 82 90 95 90 95 98 99 96 89 82 78 72 74 74 76
35 44 35 28 33 38 36 35 31 28 23 34 37 35 38 38 38 34 31 36 36 39 45 49 53 57 63 88 83 86 86 91 85 92 98 94 91 85 79 78 77 74 71 67
39 35 33 33 36 38 39 44 37 33 30 25 27 34 27 29 38 38 35 28 29 35 43 57 63 67 80 92 93 84 86 88 86 92 91 85 80 82 81 82 83 73 66 63
41 39 33 39 37 35 41 35 34 35 32 30 33 45 46 27 33 39 35 39 37 39 42 60 65 85 88 96 94 88 89 88 89 94 89 79 76 72 79 80 80 71 64 64
34 41 38 37 32 30 40 40 40 35 41 41 38 38 36 35 32 35 39 40 37 46 42 62 73 79 89 96 95 93 88 86 88 89 84 76 79 76 80 82 77 74 68 64
34 35 32 32 34 34 31 36 46 51 52 56 39 40 40 37 29 24 33 36 40 54 50 61 81 85 94 92 92 93 90 89 90 85 80 73 72 75 81 83 79 77 76 74
38 33 33 34 33 33 36 46 62 67 76 65 40 48 36 37 31 29 31 47 51 60 68 83 92 93 94 93 91 91 91 90 79 76 73 74 73 75 76 79 82 77 70 68
46 45 36 35 36 43 46 44 65 56 81 65 41 51 43 35 32 31 30 42 61 66 68 80 84 87 92 92 94 87 88 78 69 74 74 73 71 73 72 63 64 68 70 66
48 50 49 41 36 33 46 53 43 58 80 86 51 35 37 36 40 45 50 53 71 80 85 86 86 90 89 93 91 86 74 68 72 76 73 69 60 60 63 68 62 61 64 53
42 53 48 47 39 38 32 35 55 64 50 55 44 44 54 46 45 53 57 57 71 69 75 80 81 84 79 76 72 72 68 61 71 67 59 53 57 61 64 68 72 66 67 58
45 47 47 50 47 38 38 39 41 44 60 62 74 48 34 42 40 50 54 61 66 63 63 68 71 71 67 63 65 68 66 70 71 60 60 60 62 61 63 68 65 57 59 55
42 60 68 42 38 41 47 43 44 67 44 66 79 50 33 36 40 40 43 57 60 56 54 58 61 63 64 62 61 65 62 63 61 58 62 65 63 68 69 66 63 64 58 59
40 52 71 55 44 41 49 35 35 54 64 57 74 56 30 31 36 35 35 47 60 60 56 52 55 58 61 59 60 68 64 60 56 61 68 66 62 70 70 67 66 67 60 59
48 50 51 62 44 38 44 36 34 42 75 59 61 42 34 30 30 29 29 38 62 58 54 52 51 54 56 64 65 61 65 65 68 64 63 65 68 70 63 59 60 61 58 60
44 46 44 40 37 38 41 39 39 40 46 54 44 45 34 32 31 32 31 33 49 59 58 58 66 74 73 71 71 69 70 64 66 60 56 68 56 60 59 62 63 59 60 56
48 48 50 51 49 43 46 39 39 38 35 37 40 40 34 32 31 34 30 33 37 45 53 56 76 73 74 73 72 71 72 64 63 49 46 50 57 56 63 63 59 59 58 60
56 64 73 68 54 54 67 46 39 36 38 36 42 41 43 42 40 43 47 43 44 50 62 71 71 72 73 71 72 70 64 54 51 52 53 57 60 58 59 52 53 55 60 62
68 72 82 84 73 74 50 37 36 40 39 40 39 45 47 47 53 51 47 53 53 55 62 62 61 59 59 58 54 53 52 56 53 51 51 52 57 60 62 66 59 64 62 65
64 81 87 77 82 60 44 31 29 38 48 44 41 45 52 54 55 60 58 60 65 60 53 52 51 50 50 51 50 46 45 48 50 55 56 57 65 74 71 65 64 64 70 73
63 77 81 93 78 73 55 38 31 36 62 48 55 56 49 53 77 78 60 51 54 52 52 52 49 49 50 50 48 51 54 53 58 54 56 73 74 63 63 65 69 70 72 71
88 97 86 97 85 70 50 39 38 43 50 54 57 62 64 71 75 62 54 57 54 52 51 48 48 50 51 50 48 50 51 53 56 69 75 64 61 62 63 64 65 70 75 80
68 88 95 96 93 71 52 45 46 56 65 64 66 67 70 76 62 61 59 59 59 59 54 49 50 48 47 46 45 49 56 54 58 58 58 58 60 58 58 68 72 75 83 86
75 66 80 77 80 65 68 63 67 65 67 72 74 72 72 62 60 65 68 67 64 64 63 52 48 50 55 58 58 59 62 56 58 59 60 62 62 64 65 74 78 84 83 91
64 68 78 69 74 81 76 74 73 71 70 69 69 68 66 60 69 72 70 68 65 57 56 55 58 63 68 64 64 66 66 65 60 64 63 67 70 72 75 76 80 87 92 92
66 58 70 94 83 74 75 78 70 72 73 74 74 70 66 71 73 68 65 59 63 71 70 68 72 75 73 69 63 54 51 56 59 65 68 71 76 80 81 82 84 88 88 86
59 60 77 90 75 77 82 78 73 76 78 75 76 79 73 70 70 66 71 73 76 78 73 74 72 60 57 58 63 66 68 70 74 75 78 85 86 86 85 83 78 82 82 82

GFSCGP_sfc_rhum_057.txt.gz
RH
42 43 46 38 33 38 40 37 36 30 24 36 40 45 37 46 57 72 89 80 88 88 76 72 76 66 73 90 92 92 95 97 94 96 97 98 97 93 86 81 76 78 79 74
39 44 36 34 40 37 43 48 42 32 29 40 46 43 38 49 55 58 71 78 68 73 71 67 64 67 76 88 89 93 90 95 88 88 98 96 93 89 83 81 80 79 80 74
41 36 38 37 42 38 41 45 46 41 34 40 35 38 35 40 49 47 52 61 52 57 59 57 57 67 76 92 92 88 88 89 84 92 93 92 84 84 83 85 86 81 73 70
42 39 35 43 37 36 43 38 42 44 35 34 33 41 43 39 46 42 41 51 48 48 47 50 57 67 74 83 84 84 87 89 88 94 92 89 84 82 84 84 86 79 73 70
37 42 41 38 33 34 38 43 42 45 44 46 43 39 34 35 43 45 41 39 38 39 43 52 57 63 73 85 92 92 94 92 91 94 93 90 84 81 84 86 83 80 75 72
33 37 36 33 34 37 38 43 46 54 53 57 46 43 42 40 31 34 37 38 35 38 44 54 58 66 79 94 96 96 94 91 91 95 95 89 85 80 84 88 87 85 82 77
43 35 36 40 39 37 39 46 59 63 72 62 44 49 42 34 32 30 35 40 43 49 56 74 83 82 94 97 96 96 93 91 95 94 95 88 82 77 78 83 82 84 80 75
45 44 35 36 37 41 52 43 63 52 74 65 47 56 41 37 40 38 36 43 50 56 65 89 87 91 94 92 93 96 94 92 96 94 91 87 81 81 87 86 81 73 69 65
52 45 47 47 40 36 49 55 45 65 80 87 58 40 37 38 44 50 47 58 65 65 71 87 90 93 95 92 95 96 96 95 89 86 85 83 84 77 74 68 67 68 76 85
38 44 48 46 44 42 39 41 55 67 56 59 46 50 48 43 38 49 63 60 77 84 87 91 92 94 95 94 94 96 93 85 80 80 76 70 68 64 64 69 78 79 81 84
45 41 47 48 46 40 45 46 46 51 60 63 72 54 35 42 40 43 48 58 76 88 92 92 90 90 91 93 93 92 85 81 80 71 68 68 70 70 72 70 76 88 83 76
43 51 56 39 43 44 40 41 46 68 50 70 80 52 32 37 42 47 48 54 73 76 81 83 84 87 88 85 80 81 78 79 77 68 67 69 68 75 83 86 79 79 84 83
47 57 64 46 44 51 51 46 48 57 66 66 76 57 32 34 38 40 45 49 68 71 71 78 84 83 80 76 76 78 77 71 67 64 67 78 83 84 79 73 79 76 76 75
48 55 50 55 43 41 47 43 41 49 76 59 64 46 34 32 34 33 40 40 54 69 65 66 73 79 78 80 84 78 70 64 65 69 74 80 81 83 78 79 78 77 69 65
46 51 47 46 41 38 38 37 43 46 49 54 46 49 39 37 31 34 34 36 54 67 69 64 68 80 83 83 81 77 74 73 74 76 80 86 82 81 72 67 66 64 66 60
50 52 49 65 55 47 48 40 41 43 41 47 45 44 41 39 45 44 41 40 50 56 61 68 76 81 85 82 81 83 83 81 78 80 72 65 64 64 68 70 66 64 58 60
54 66 69 58 59 58 66 52 42 40 39 39 46 39 46 49 50 54 56 54 58 67 78 84 87 89 85 82 81 84 79 62 61 63 61 63 67 64 62 58 62 69 72 68
64 69 77 78 74 72 45 46 40 43 46 44 46 48 51 56 66 69 67 66 71 71 70 71 74 76 73 66 60 58 56 58 57 58 57 55 62 65 74 84 87 76 66 68
65 80 86 77 80 60 50 39 40 39 44 49 56 57 61 63 64 67 65 61 63 63 61 60 60 60 59 57 55 53 57 53 50 55 63 73 80 83 87 80 69 70 74 76
68 80 80 89 79 80 61 46 33 39 59 46 51 61 63 62 65 78 63 63 61 57 56 57 55 53 54 52 49 51 51 49 56 60 74 82 80 75 67 69 73 74 74 75
92 96 87 97 87 75 52 41 36 46 51 54 57 59 60 59 67 71 65 61 56 54 53 53 53 55 54 51 48 52 56 57 65 75 73 66 64 64 67 68 69 73 80 84
76 92 93 94 84 73 49 49 42 50 72 65 67 72 80 73 71 70 64 62 57 54 52 50 54 58 59 57 53 57 58 58 58 59 60 60 62 61 61 72 75 77 85 88
65 69 80 73 75 63 69 50 67 67 68 74 72 76 68 71 72 71 71 66 61 61 60 56 60 63 64 58 58 67 67 58 60 62 62 64 64 67 69 76 79 85 86 92
68 70 80 73 75 85 84 83 78 74 77 74 77 73 63 72 73 74 70 70 70 65 60 60 61 64 70 67 67 66 65 68 67 69 70 72 76 78 79 81 83 88 92 90
69 66 85 93 89 80 81 81 80 80 79 76 73 67 71 73 73 69 68 70 76 71 67 65 67 65 61 64 72 78 80 79 82 82 84 86 88 88 86 86 88 87 85 89
65 74 84 87 78 77 83 82 79 79 82 78 76 78 72 68 69 70 79 76 70 74 65 62 64 67 73 82 89 88 87 88 90 83 86 93 94 93 92 93 86 80 84 81

GFSCGP_sfc_rhum_060.txt.gz
RH
44 44 49 43 37 33 40 38 41 36 30 38 36 48 45 59 84 97 97 97 95 88 72 82 88 85 82 89 95 96 96 98 98 99 99 99 98 96 92 89 82 81 72 72
42 49 41 37 44 40 44 44 43 38 35 35 44 43 43 52 63 78 90 94 93 92 91 82 88 84 83 87 92 95 94 97 95 93 97 94 95 91 87 84 83 82 78 72
44 37 39 38 44 42 43 43 48 43 42 43 44 36 41 40 54 58 71 78 78 84 90 84 82 80 78 87 93 91 93 95 92 89 95 93 88 89 86 87 87 85 82 74
42 39 38 44 41 40 45 38 41 45 44 42 37 38 41 41 50 52 57 74 78 71 74 75 75 77 78 84 91 91 93 94 92 93 92 85 88 90 86 87 87 85 79 75
35 44 45 45 40 37 41 43 44 46 50 49 49 44 34 44 51 50 50 56 68 62 62 66 67 66 75 88 94 95 95 94 92 91 88 91 93 93 85 86 84 84 81 77
35 42 39 36 37 36 41 48 47 54 54 59 49 46 45 44 42 44 52 47 51 57 54 54 59 67 85 95 97 96 95 94 92 93 94 93 94 92 84 89 85 88 85 81
45 41 39 39 43 42 44 47 60 61 71 60 48 53 46 41 34 35 43 45 43 46 50 53 68 73 92 96 96 96 96 96 95 95 96 95 91 89 85 82 86 88 85 85
48 44 37 37 38 42 54 43 63 50 69 61 50 53 38 38 40 46 39 40 46 45 47 51 59 74 88 92 94 93 95 92 95 96 96 95 92 84 85 84 82 85 79 75
51 41 49 50 43 38 54 52 46 66 82 86 58 43 29 42 44 49 49 58 56 52 52 56 67 81 90 94 93 92 92 92 95 95 96 96 95 92 88 89 79 75 75 82
38 42 49 50 47 47 44 43 54 65 60 61 50 48 44 34 39 47 52 52 71 74 75 81 88 92 93 92 91 92 93 94 94 96 96 95 93 86 82 79 80 78 84 86
44 38 46 53 48 45 50 53 52 53 62 61 72 53 40 33 40 45 48 56 60 84 87 90 93 94 95 95 96 97 97 96 96 93 94 90 82 78 80 77 79 85 88 83
44 48 52 43 48 40 43 48 49 69 54 72 80 58 32 32 37 47 44 51 64 80 89 92 94 96 98 97 98 98 97 96 92 82 80 81 79 78 82 86 89 92 86 93
46 52 54 43 44 55 57 51 52 60 69 67 77 58 33 37 36 40 45 46 61 77 85 91 94 95 94 94 96 96 96 94 85 80 81 83 83 81 86 89 84 86 90 84
49 58 47 46 40 46 61 50 52 53 77 62 65 47 36 34 36 36 36 45 46 69 77 82 90 93 92 91 93 92 90 90 85 83 84 88 91 88 89 82 86 82 79 80
46 49 52 46 43 39 40 40 49 48 50 54 48 52 40 39 40 36 36 38 42 50 75 75 80 89 90 95 92 87 86 84 84 85 88 90 90 90 90 78 81 85 85 75
53 52 52 64 57 52 58 43 48 47 48 49 49 48 41 46 51 49 47 48 63 72 71 80 76 84 93 94 95 90 90 88 84 85 89 89 88 78 79 82 83 76 66 66
55 65 66 60 61 58 66 55 46 44 45 44 54 44 45 56 55 63 65 68 80 88 92 95 95 95 94 93 92 94 91 83 80 74 71 72 72 71 71 66 73 83 89 85
66 65 75 78 75 71 48 51 45 48 45 44 46 51 53 59 79 79 76 81 76 76 78 84 86 81 78 73 69 67 68 70 67 63 61 60 65 77 84 86 88 92 87 77
65 77 81 76 78 57 48 45 46 46 41 47 51 61 67 70 71 76 65 67 71 70 69 70 68 68 66 63 61 59 59 53 57 71 77 80 82 82 84 89 88 77 76 78
68 74 75 87 77 73 56 49 37 36 52 48 58 67 69 66 61 71 71 66 67 64 63 63 60 57 58 61 54 49 52 60 72 79 81 81 84 89 79 74 73 77 78 78
91 93 80 96 86 77 58 44 38 49 54 55 57 60 70 58 66 76 66 63 61 61 61 58 58 60 61 56 52 57 59 70 76 78 80 71 66 66 68 71 73 75 81 84
79 88 92 91 86 74 49 48 45 50 72 65 64 67 74 82 77 72 65 62 60 60 61 60 63 67 66 64 62 67 62 59 61 62 62 63 66 65 67 76 77 79 85 88
78 71 79 71 74 63 60 52 58 61 65 69 69 79 74 77 76 72 67 63 64 63 71 67 67 69 71 68 68 68 73 65 68 70 72 76 76 78 81 82 85 90 91 93
68 65 73 69 68 74 80 84 79 80 78 78 81 69 68 76 74 71 69 68 66 70 71 69 73 71 70 72 75 79 79 76 79 87 88 88 88 89 90 90 89 94 96 95
75 71 80 80 85 82 80 84 80 83 80 79 74 73 74 74 74 71 74 75 76 76 74 66 65 73 81 82 87 88 85 82 84 82 84 87 90 93 89 88 92 91 91 95
74 73 78 71 62 64 73 84 83 81 81 79 77 80 75 71 72 72 83 80 78 68 62 65 70 82 83 77 79 83 84 79 78 77 84 93 92 91 84 83 80 72 76 77

GFSCGP_sfc_rhum_063.txt.gz
RH
34 32 37 30 31 29 29 30 31 26 29 31 36 35 38 75 72 76 79 80 77 72 61 63 62 64 61 70 72 76 81 83 79 84 91 90 93 86 85 82 74 69 60 61
34 40 33 30 32 33 34 34 32 29 28 30 31 30 34 65 66 65 68 73 70 68 66 66 68 69 68 68 72 75 75 79 75 70 74 75 76 74 75 74 76 68 64 62
39 30 34 34 37 36 34 36 36 32 35 34 32 26 35 37 53 60 66 63 64 68 67 69 71 72 71 70 75 73 73 75 72 72 72 72 70 71 78 80 69 65 63 61
34 30 34 39 37 35 40 32 32 35 37 33 28 29 28 31 40 51 54 64 64 66 68 64 67 70 72 72 71 72 74 75 76 77 74 75 72 72 74 73 67 69 68 59
30 37 38 39 36 34 34 36 37 37 38 36 36 31 27 34 32 34 42 50 60 61 60 62 64 63 66 71 78 76 74 75 77 78 78 78 78 79 81 71 74 71 72 59
28 32 33 32 32 33 36 39 38 42 42 45 38 34 28 26 31 32 31 39 47 55 58 54 54 58 60 75 77 80 77 76 78 80 80 79 80 81 85 77 71 66 62 60
34 33 31 32 32 33 33 38 44 52 52 47 40 41 33 28 27 28 31 37 44 47 54 53 53 56 60 71 76 78 76 76 80 86 84 81 80 83 81 74 73 69 64 62
37 36 32 33 30 34 37 37 55 42 47 40 41 42 26 28 27 33 39 35 37 43 49 49 47 51 62 70 72 79 77 75 80 90 90 89 83 84 79 77 71 68 65 65
46 36 34 39 34 30 42 42 37 57 66 65 41 33 22 28 28 34 38 39 40 44 42 42 44 52 58 65 72 82 75 73 79 86 91 91 88 86 86 80 71 65 66 65
40 39 40 41 37 39 35 37 48 52 54 51 38 38 27 27 26 34 32 40 43 50 47 43 42 54 59 62 62 77 73 70 76 79 85 87 86 85 87 84 73 71 69 66
37 36 38 42 42 39 43 46 46 40 47 48 51 36 35 28 25 34 32 39 43 47 53 52 52 58 62 66 69 74 73 72 76 79 86 91 86 88 86 85 78 72 72 77
39 47 51 37 36 34 37 42 43 58 49 57 58 44 27 30 30 32 35 36 41 45 49 56 62 70 74 74 73 74 77 80 80 82 88 90 87 85 87 85 79 83 81 89
44 47 45 36 37 43 42 40 43 50 57 55 68 44 28 28 28 30 31 32 36 50 54 62 68 71 74 76 79 84 86 87 84 81 85 86 85 83 85 86 87 82 89 91
44 49 44 39 33 40 53 47 44 45 61 53 50 37 30 27 28 27 30 31 32 37 50 56 68 73 77 80 82 83 86 81 77 78 79 82 82 83 88 91 94 95 85 82
46 46 46 38 32 39 40 40 47 44 42 50 40 40 31 30 28 29 31 32 33 35 38 58 64 73 75 78 80 79 80 78 77 79 81 84 85 84 90 91 89 80 89 92
49 50 52 48 47 39 39 36 42 44 40 38 39 40 33 31 34 36 43 43 58 67 68 63 61 73 80 79 75 77 76 76 73 76 84 86 86 84 90 88 91 88 71 72
55 63 61 53 49 48 66 52 42 40 39 40 47 39 37 38 39 47 57 64 68 73 77 78 78 79 79 79 77 80 77 74 74 74 75 76 79 82 83 75 72 79 84 92
63 62 66 72 69 77 43 41 37 40 39 36 37 36 35 38 58 59 61 63 68 70 75 75 73 73 72 69 70 69 62 65 66 68 69 70 73 78 83 87 86 92 93 80
56 68 74 81 64 51 40 41 42 43 32 36 36 36 46 59 55 57 58 59 62 65 65 64 62 62 60 62 60 56 54 58 64 71 75 76 81 78 79 87 88 72 62 60
63 67 74 75 72 70 51 36 38 32 44 34 39 50 60 58 59 48 57 58 59 57 55 56 56 55 54 53 51 56 61 67 72 77 76 76 88 86 73 60 58 58 55 55
84 86 78 81 82 63 48 40 38 49 43 42 43 49 58 48 51 59 57 58 54 53 53 51 50 50 48 48 54 63 65 70 67 66 59 57 49 50 53 55 55 55 57 62
73 79 87 82 90 68 46 36 47 48 48 46 52 58 64 70 67 61 58 57 54 52 50 48 50 51 51 50 51 50 51 48 53 51 52 54 58 56 58 62 62 61 62 67
81 67 74 65 64 57 47 45 44 46 48 57 54 58 64 68 63 59 58 56 54 52 50 51 54 58 56 52 50 56 58 51 57 61 64 61 58 55 52 51 50 48 48 57
68 70 70 66 56 57 62 63 65 57 56 57 60 59 60 63 61 58 55 55 55 54 58 52 54 60 67 64 64 64 66 61 56 56 55 53 50 49 47 43 45 48 60 66
68 69 72 70 63 72 69 74 66 66 73 68 62 60 62 62 59 56 56 58 59 62 54 55 63 68 69 65 62 56 53 51 51 53 52 52 53 53 49 49 54 59 62 71
69 68 74 72 58 53 48 61 73 75 74 66 66 67 61 57 60 57 62 63 59 57 58 67 67 65 63 62 60 56 55 50 48 49 50 62 59 60 55 56 57 65 68 68

GFSCGP_sfc_rhum_066.txt.gz
RH
23 23 24 16 18 18 17 19 20 18 18 22 20 21 18 34 43 43 46 48 52 54 39 46 50 47 42 47 48 52 56 59 65 61 55 50 54 54 61 74 69 69 64 64
26 27 20 20 20 22 21 22 22 19 19 22 20 19 21 33 43 34 38 44 48 45 46 44 44 47 51 52 54 52 51 56 58 50 49 47 49 48 54 71 68 68 65 59
23 22 22 23 24 25 23 24 24 22 20 21 24 20 20 22 34 35 34 34 37 39 43 45 44 47 48 48 52 50 51 51 57 52 47 48 50 54 59 75 76 68 65 54
21 18 23 25 23 22 25 21 22 23 26 23 23 18 16 19 24 32 35 38 36 39 38 38 44 46 49 49 46 49 51 51 56 56 50 54 50 51 54 68 63 65 60 58
23 23 25 25 23 22 23 26 26 26 28 26 24 20 16 19 18 18 25 31 35 35 38 36 38 42 43 47 50 50 48 52 55 59 56 55 55 50 54 63 63 63 62 57
17 22 22 21 24 23 26 29 29 29 28 32 25 24 15 14 16 17 17 19 28 34 34 34 34 35 38 49 54 54 50 50 55 62 64 63 62 63 72 69 70 79 70 57
21 20 21 23 24 26 26 30 35 44 38 34 27 25 19 15 17 18 20 23 22 23 34 34 33 36 36 43 53 54 53 50 56 62 65 67 66 67 71 68 67 69 71 63
25 29 21 21 22 23 26 26 35 36 36 28 28 24 16 16 16 18 23 24 24 25 26 31 34 34 38 41 50 55 54 54 57 67 67 68 75 74 77 69 69 76 76 65
26 21 19 23 22 20 32 32 25 37 49 44 22 19 15 14 17 21 16 22 25 25 27 28 30 35 38 42 48 54 51 50 53 66 68 77 77 82 77 74 73 81 78 61
23 27 21 28 26 28 27 23 35 34 43 38 23 24 17 16 16 17 16 17 24 31 29 26 27 32 35 39 42 51 49 46 46 55 69 69 75 72 77 79 76 84 80 60
18 22 34 32 31 25 32 31 29 27 32 38 36 24 17 15 15 18 16 20 20 25 30 30 29 29 32 37 42 46 50 44 46 50 62 73 74 77 82 84 83 85 79 62
21 24 30 25 24 25 23 25 27 36 35 38 43 30 15 16 19 18 19 22 21 26 29 33 34 35 37 40 41 44 48 47 47 52 60 81 83 87 92 91 87 82 81 80
24 28 34 29 28 31 28 25 24 28 36 34 56 32 19 18 20 19 20 18 22 26 26 33 39 42 44 45 47 47 52 55 58 71 82 89 90 90 89 86 87 87 90 96
34 24 28 33 22 18 26 25 25 26 39 31 28 23 17 18 17 16 18 19 20 23 24 29 36 41 47 52 58 67 79 81 79 81 84 89 89 89 90 91 92 97 93 92
28 28 25 20 16 15 18 17 19 25 24 28 26 20 17 17 17 17 19 22 21 21 21 28 37 46 50 58 62 64 73 76 77 79 83 85 84 86 90 92 90 87 88 86
28 30 28 31 22 22 23 20 19 23 21 22 25 22 16 16 20 22 23 24 31 40 40 37 42 52 59 62 62 67 70 76 77 80 84 84 84 81 83 85 88 82 77 76
38 33 39 36 32 33 56 36 23 24 26 26 27 20 17 21 21 23 30 36 42 50 53 52 53 57 60 61 61 64 68 69 72 73 73 74 74 78 77 71 72 73 80 78
46 40 42 48 69 81 26 27 22 24 22 20 22 20 20 20 24 33 39 40 47 51 54 56 57 59 58 57 57 59 55 59 62 63 64 65 66 66 70 81 86 84 73 74
41 45 58 78 48 30 28 31 30 31 26 20 23 19 16 26 35 40 42 43 47 52 51 52 51 54 54 53 51 51 52 55 60 64 65 66 72 79 80 77 77 74 57 49
47 50 55 61 57 82 37 23 23 24 34 18 19 21 22 36 42 23 43 47 49 47 47 49 50 50 52 50 49 52 54 55 58 58 60 63 61 69 71 53 47 46 42 39
70 69 77 62 74 43 29 29 25 40 38 20 20 23 32 36 31 41 44 46 44 45 47 46 46 48 49 49 48 50 50 52 52 54 53 48 44 42 42 42 41 41 44 50
62 70 84 68 91 78 35 31 34 28 33 26 30 29 39 43 49 47 46 46 46 45 45 42 45 46 47 46 46 46 48 43 44 45 45 44 43 40 42 46 46 43 42 45
64 52 51 49 43 48 34 27 27 30 26 33 30 31 38 50 47 46 46 46 44 42 40 41 44 46 43 39 39 43 44 41 43 44 44 44 42 38 33 34 33 31 33 42
46 52 58 56 30 37 40 31 41 31 32 31 35 36 46 45 46 46 42 42 41 40 41 41 43 45 49 46 44 43 44 40 38 42 42 38 36 33 31 25 28 32 46 52
41 52 45 47 36 47 45 43 37 40 42 45 41 40 43 43 44 42 41 41 41 42 40 40 45 50 49 45 43 40 40 39 40 38 35 36 38 36 34 35 41 47 52 63
45 47 66 62 44 46 30 42 40 46 47 47 46 46 42 42 43 41 42 42 44 43 43 48 49 48 45 43 43 39 35 33 33 33 35 48 45 44 36 34 41 68 64 65

GFSCGP_sfc_rhum_069.txt.gz
RH
18 20 22 16 16 14 14 15 16 15 14 17 20 19 16 22 28 35 38 36 39 39 39 42 41 40 39 46 43 46 53 58 61 54 49 42 41 38 40 50 61 68 64 66
19 24 17 15 13 14 16 17 18 16 14 17 17 15 13 21 28 27 31 40 39 39 41 44 44 44 43 45 43 41 40 46 49 43 40 36 37 36 38 58 71 70 64 62
21 18 15 18 18 20 19 21 21 19 16 15 15 16 15 17 24 23 24 28 32 42 32 37 42 44 41 41 45 41 40 39 43 41 38 38 39 39 42 56 71 68 64 59
17 14 18 19 20 18 22 16 18 19 20 39 18 25 18 14 18 24 23 26 29 34 31 33 34 38 43 42 42 42 41 38 40 48 42 46 40 41 41 51 61 63 62 62
18 16 20 21 19 16 20 19 19 20 22 21 17 15 18 11 13 16 22 24 24 27 28 29 33 32 34 39 42 44 41 40 40 52 46 45 47 42 42 51 66 71 65 62
15 13 15 16 16 18 17 20 22 22 24 31 21 19 20 16 12 12 13 18 22 22 25 24 25 29 32 44 47 44 43 41 42 47 53 51 53 49 42 61 66 67 64 65
18 17 15 17 20 19 21 26 35 40 37 35 19 20 16 13 13 13 14 16 17 20 24 26 23 24 28 36 43 45 43 41 43 48 52 56 55 54 57 62 63 73 71 73
23 25 16 17 19 22 22 23 37 45 42 31 18 18 14 11 10 11 13 15 18 19 19 24 25 25 26 30 38 45 43 44 41 49 55 56 57 53 64 65 66 71 71 71
21 19 13 14 16 16 22 26 19 30 29 39 21 15 13 10 11 13 11 13 16 20 20 19 23 26 28 30 35 47 45 41 41 47 56 58 60 60 65 72 70 70 74 71
17 24 14 15 16 17 21 19 30 28 40 45 21 19 16 14 14 13 12 13 16 22 21 20 20 24 26 28 32 42 43 38 39 45 56 56 59 66 70 79 76 74 73 76
15 21 21 20 23 20 22 27 24 21 28 40 36 21 15 14 12 13 13 13 13 16 22 21 21 22 25 28 32 38 42 40 38 40 51 60 60 67 71 82 80 80 83 92
18 22 26 24 16 14 17 22 23 36 31 30 35 28 13 14 13 14 13 14 13 15 17 22 24 24 25 29 31 36 42 43 39 40 47 64 70 79 86 91 89 90 90 87
20 24 34 25 21 21 23 20 20 23 25 31 60 32 13 13 15 14 14 13 14 16 15 20 25 29 30 32 34 36 40 41 38 41 59 84 92 92 92 91 89 88 89 91
32 22 27 33 24 20 26 19 18 23 43 34 28 21 14 13 14 13 14 14 13 15 16 17 23 27 33 36 38 39 54 60 66 72 78 92 92 91 92 92 91 92 90 92
25 28 22 18 16 14 15 18 17 20 22 30 23 18 13 13 13 13 15 15 16 14 15 17 21 29 35 44 52 72 75 78 80 84 87 92 92 91 92 94 93 91 89 86
24 32 26 24 18 16 17 14 15 14 14 14 15 16 12 12 12 13 15 16 17 22 24 20 23 33 42 52 58 72 76 79 79 85 89 88 89 88 89 88 88 84 83 83
30 36 32 39 21 22 38 22 17 16 15 17 23 18 14 13 13 14 14 18 23 32 36 33 36 46 50 54 64 74 77 78 82 84 81 81 80 82 82 76 76 77 83 83
34 35 37 54 66 66 26 18 16 18 16 15 16 15 13 13 13 18 21 21 31 37 42 45 47 50 51 53 58 67 66 69 70 70 71 72 72 70 67 68 75 82 73 69
33 40 54 64 53 31 20 23 24 22 20 15 15 14 13 13 20 24 25 26 33 39 42 44 46 48 49 50 49 51 54 55 58 62 62 61 62 68 72 80 78 69 69 62
33 43 57 56 57 66 30 19 21 17 33 17 15 16 17 19 34 17 31 36 41 39 40 43 44 44 46 46 46 49 50 52 58 60 59 58 63 61 62 66 57 48 43 39
66 70 78 62 62 37 18 18 23 41 40 17 16 16 18 21 22 31 37 40 37 37 39 40 42 44 44 46 47 50 51 53 51 51 54 55 53 45 42 43 40 38 38 42
63 66 86 65 78 72 25 29 34 32 24 21 20 19 23 30 40 39 39 39 38 39 40 38 42 44 44 43 45 44 46 46 46 43 44 41 39 35 35 40 41 39 38 43
76 49 59 45 47 34 29 25 26 24 30 24 25 20 23 41 38 39 40 39 38 38 36 37 41 46 44 42 40 43 42 40 43 44 42 40 36 33 32 33 32 28 30 40
29 26 47 44 32 29 30 28 26 27 29 23 27 24 27 39 37 38 36 36 37 36 37 38 41 42 43 38 37 38 41 41 38 40 39 36 33 31 26 21 24 28 42 48
27 25 33 36 29 25 31 38 33 29 30 29 27 27 29 36 37 35 35 36 35 38 37 38 40 43 43 41 42 38 37 36 37 36 32 33 32 30 32 31 36 45 60 64
24 34 51 51 31 39 32 41 45 35 33 34 35 32 32 33 35 34 35 35 35 38 38 41 44 44 42 39 38 36 33 32 32 32 33 45 44 41 29 29 46 65 67 65

GFSCGP_sfc_rhum_072.txt.gz
RH
21 24 25 20 19 17 16 16 16 22 17 17 16 20 23 20 22 30 32 32 35 38 44 46 49 63 65 75 73 71 68 73 79 81 78 64 67 61 65 64 68 78 79 78
23 27 18 16 15 14 14 17 17 16 15 16 16 21 16 18 26 28 33 33 38 38 41 45 46 52 60 62 63 64 64 69 73 71 62 56 55 54 52 58 74 80 81 78
26 20 17 17 18 18 17 20 20 21 16 17 20 21 16 17 21 23 29 35 41 39 45 48 48 50 56 58 56 52 57 64 66 62 52 53 53 59 54 75 80 81 79 75
20 16 17 18 20 17 23 16 17 17 20 28 26 34 20 16 19 24 27 39 36 36 43 46 48 51 52 52 52 50 47 52 56 56 50 55 51 52 55 74 73 78 79 74
21 18 18 21 19 16 20 16 20 20 23 23 30 34 19 16 19 22 23 31 36 39 41 44 43 48 48 50 55 54 49 47 48 52 60 58 60 56 56 59 76 80 80 78
16 12 13 15 16 16 15 19 21 22 26 37 23 23 24 25 16 15 19 23 29 40 40 34 37 41 44 52 53 55 52 48 53 57 60 68 65 64 63 80 82 79 81 85
17 16 12 14 18 16 19 26 40 50 47 45 30 25 20 26 17 13 15 21 25 28 34 36 36 37 38 46 52 55 54 51 50 62 64 66 69 64 68 76 78 83 87 86
24 26 15 15 18 21 22 25 46 79 61 41 31 24 12 12 11 12 12 15 20 23 29 29 28 36 37 42 49 53 51 52 50 56 63 65 65 65 68 71 74 77 83 84
25 22 13 15 16 17 24 28 21 37 41 55 30 20 13 12 12 11 12 15 20 23 24 25 28 32 35 39 49 56 52 48 49 55 62 66 68 68 72 80 87 89 82 79
21 28 15 14 15 16 19 18 32 31 53 50 24 23 34 19 14 14 13 17 21 25 26 24 24 32 30 34 40 53 52 48 48 49 59 61 67 71 75 86 92 90 87 84
19 24 22 14 18 20 21 24 29 24 30 48 54 32 23 20 14 16 15 16 19 23 25 26 26 27 31 33 44 48 50 48 48 49 58 68 72 86 90 92 90 92 93 94
19 25 31 20 15 15 18 23 26 41 35 37 58 39 18 19 19 17 17 15 18 18 20 25 27 28 29 36 39 46 50 50 49 50 60 69 81 88 94 97 98 96 98 94
22 27 36 29 20 20 23 19 21 25 29 38 61 39 17 14 15 16 20 17 16 20 18 23 28 30 30 33 42 41 50 52 51 62 83 91 96 96 97 96 94 94 95 93
46 27 29 38 30 25 26 19 19 26 48 40 36 26 20 16 17 16 19 23 19 20 16 19 26 31 34 38 40 44 66 71 78 86 90 95 95 96 96 96 96 95 94 95
43 38 27 22 18 18 20 22 21 22 23 34 33 24 18 15 16 18 17 19 23 23 15 17 21 33 37 47 74 74 78 80 81 87 93 97 96 95 96 96 97 94 95 92
34 45 31 33 20 20 21 19 19 18 18 17 19 20 14 12 12 15 14 14 17 19 24 21 22 36 47 74 77 80 83 85 86 91 96 95 96 96 96 96 94 92 90 89
42 43 40 47 27 23 38 25 18 16 16 17 23 19 15 16 14 16 19 16 18 23 31 32 31 50 63 75 75 81 86 87 89 90 89 90 90 92 92 88 87 89 91 90
50 47 44 60 66 58 28 18 17 20 17 16 15 16 15 14 14 17 19 24 25 31 36 38 49 57 67 72 74 79 78 84 85 85 84 85 85 84 81 80 83 86 82 80
41 55 82 67 58 36 25 22 23 26 26 19 17 16 14 13 21 25 22 26 30 38 42 48 50 54 65 71 71 71 74 75 75 78 78 74 74 74 75 80 80 79 80 78
38 46 74 76 63 67 39 22 24 24 39 20 18 22 20 20 43 31 29 30 38 39 42 48 51 54 58 61 62 63 65 67 71 68 67 66 69 73 75 76 75 76 76 64
70 74 73 77 78 53 26 23 28 46 47 29 22 21 25 24 33 35 35 40 40 40 42 45 48 52 53 53 54 57 59 63 61 62 63 65 63 64 66 68 61 55 57 68
71 72 86 73 80 71 27 31 34 37 43 31 28 29 37 48 44 41 41 42 40 40 42 44 48 48 50 50 53 56 58 55 56 58 59 60 54 44 46 56 55 51 63 69
87 82 68 54 61 48 42 39 42 40 39 40 37 32 34 47 42 42 42 42 40 40 43 42 46 53 53 50 48 51 54 53 53 53 50 47 43 44 45 53 50 48 51 64
40 44 58 49 44 47 42 42 40 33 40 33 34 35 34 44 41 42 40 39 40 40 41 42 48 51 52 47 45 46 48 48 48 50 49 46 44 40 35 31 36 53 71 86
36 39 44 44 34 37 35 33 42 40 38 36 34 36 35 42 41 40 39 39 39 41 40 44 50 52 48 45 46 45 46 46 47 47 42 42 44 46 46 52 57 81 79 80
26 33 51 67 41 46 42 47 48 47 45 41 42 39 36 35 39 38 38 38 39 42 42 46 46 47 47 46 45 43 41 40 42 40 48 70 69 63 44 51 62 73 73 67

GFSCGP_sfc_rhum_075.txt.gz
RH
31 39 40 35 29 25 26 25 23 22 23 26 28 27 39 60 69 79 76 68 80 82 81 84 84 89 94 92 89 84 79 84 88 91 86 82 88 75 68 70 72 83 86 88
35 37 30 25 23 22 23 22 25 20 23 26 23 25 28 36 62 56 66 59 67 73 82 81 85 88 91 90 86 84 77 78 80 75 74 78 75 68 65 79 84 82 88 91
36 32 24 24 24 24 22 25 26 27 21 26 32 34 28 29 36 38 42 44 54 63 73 77 82 86 86 88 82 74 70 71 71 71 73 72 75 74 73 81 92 88 88 91
28 24 25 25 25 23 27 22 22 26 30 39 32 51 34 25 34 34 41 48 48 56 56 66 74 78 80 79 74 68 66 64 66 75 76 73 64 64 60 78 72 90 88 88
26 28 27 27 24 22 26 25 30 32 35 38 43 48 42 25 31 35 47 51 49 50 54 54 62 64 58 60 63 64 64 65 72 76 72 70 64 60 70 87 83 84 89 86
23 18 21 22 19 21 21 26 28 34 38 56 36 44 40 29 23 27 40 44 49 46 53 52 50 55 54 57 58 57 56 59 68 70 69 67 74 61 65 88 91 88 89 87
26 23 18 17 22 23 24 34 60 74 69 68 36 42 38 31 28 25 29 45 42 42 48 52 53 53 54 56 55 54 55 58 62 62 64 68 73 72 59 79 87 90 95 96
36 37 22 18 20 27 29 34 70 75 82 64 44 44 28 26 26 18 18 33 40 43 42 49 50 54 52 52 54 56 56 57 55 65 62 79 62 62 73 82 82 87 90 90
33 30 18 16 19 22 35 39 32 60 62 73 56 35 24 19 17 17 19 21 37 45 46 41 46 48 50 53 54 54 58 55 55 74 67 74 81 70 68 80 87 91 95 93
33 40 20 18 21 22 24 27 44 46 74 77 47 45 45 27 26 20 18 27 27 27 34 41 39 43 43 45 50 56 54 57 55 55 73 68 68 78 84 82 93 95 94 90
23 32 32 22 25 26 31 30 34 40 54 64 66 54 34 30 25 18 22 24 27 30 30 31 39 36 41 40 46 53 59 54 55 53 64 73 79 80 86 94 97 96 95 95
27 40 45 33 22 18 21 31 35 67 53 57 68 56 23 21 22 21 20 20 25 33 32 30 31 42 47 55 51 52 60 64 72 66 75 70 85 96 97 97 97 98 98 97
36 47 60 42 29 22 25 27 28 37 48 54 78 63 24 25 24 21 22 20 23 25 33 35 34 35 46 53 58 58 61 74 74 71 77 95 99 99 99 98 99 98 98 98
44 51 52 54 39 32 34 27 26 34 60 53 54 44 33 29 26 21 22 26 28 28 21 37 40 39 42 68 83 86 94 94 97 96 98 98 98 98 99 98 98 98 96 96
44 52 43 36 26 25 30 31 29 29 32 50 42 38 34 26 23 22 23 26 25 24 23 26 40 50 83 89 92 93 96 97 96 96 97 98 98 98 98 98 98 96 95 95
43 53 47 46 36 26 28 28 27 26 27 26 29 36 28 23 19 20 19 28 28 26 32 39 43 69 77 86 93 94 97 95 94 97 98 98 97 97 98 98 97 96 95 93
45 55 56 56 41 38 52 36 27 27 25 27 32 28 23 22 20 22 22 20 26 37 38 44 67 82 85 91 92 96 94 93 94 96 96 96 95 97 97 94 94 94 94 93
62 63 69 79 68 63 40 26 25 28 24 22 25 26 23 21 22 27 28 32 41 43 44 69 83 88 89 92 94 94 92 90 91 92 93 93 93 93 91 91 93 94 90 86
55 67 84 73 66 52 38 30 33 32 33 24 26 26 22 20 29 36 30 33 45 53 61 77 86 86 90 90 88 88 90 85 86 89 89 87 86 86 86 90 89 89 88 89
51 66 82 90 82 75 52 35 27 31 49 29 29 30 30 31 47 41 39 51 57 61 66 72 85 86 88 85 84 86 82 81 84 81 80 78 78 80 83 81 84 86 85 79
85 90 88 95 99 80 41 29 35 50 56 29 34 34 33 37 45 41 52 56 56 61 67 70 74 82 84 78 77 80 78 79 74 70 73 76 76 78 78 82 87 84 77 78
77 82 87 89 92 95 40 37 42 47 45 35 42 42 54 52 55 59 58 58 56 60 65 67 72 74 74 72 72 77 78 64 66 71 77 76 74 67 74 74 69 71 80 83
76 81 82 75 77 59 54 41 47 44 44 44 47 44 52 59 56 59 60 58 57 59 64 63 66 70 71 68 66 73 73 68 66 69 72 61 55 56 58 63 63 64 69 83
66 74 89 80 65 58 68 52 52 44 43 40 41 42 54 56 58 58 56 56 57 60 63 64 67 72 73 67 62 66 66 64 58 56 58 52 50 51 50 53 65 75 84 87
60 65 71 69 51 45 50 46 48 49 52 44 44 42 43 57 58 56 55 56 58 60 63 64 70 65 60 55 56 55 59 56 55 51 47 54 55 59 61 73 74 78 79 83
46 54 68 71 47 51 53 54 54 51 59 56 52 49 44 48 55 53 56 57 56 62 63 61 57 56 50 47 50 51 48 48 54 57 60 72 68 72 58 66 82 84 78 66

GFSCGP_sfc_rhum_078.txt.gz
RH
36 41 41 40 37 32 34 34 35 29 22 38 41 43 37 68 73 77 90 95 95 86 93 92 86 82 86 86 84 84 82 82 85 86 75 62 57 84 82 76 79 85 86 89
39 43 33 31 32 32 32 35 33 25 21 30 30 28 32 68 69 71 79 88 90 93 91 89 96 82 85 86 91 87 81 86 80 75 66 63 77 92 82 78 80 86 90 92
38 37 29 31 33 34 33 34 32 26 26 29 35 34 32 47 58 64 68 70 75 85 92 87 90 92 87 84 92 87 80 78 78 75 72 90 90 88 86 84 80 87 88 89
30 26 31 34 33 31 37 26 27 29 37 44 36 49 41 36 48 60 61 64 74 77 83 87 91 97 96 94 94 85 78 73 73 75 72 75 73 68 68 67 70 86 87 88
32 33 33 33 32 29 34 27 28 31 37 44 44 50 40 37 47 56 64 62 68 73 80 84 86 85 86 87 91 83 76 72 68 73 67 74 79 75 75 79 82 92 93 90
24 21 28 27 26 26 24 28 35 40 43 55 42 47 46 43 32 44 51 55 62 68 74 76 76 75 78 77 80 77 74 69 67 68 73 82 83 76 75 79 85 86 90 91
24 22 23 24 28 26 27 38 59 63 70 64 44 50 39 34 29 33 48 52 60 61 64 75 77 76 70 72 72 71 70 69 67 70 76 82 84 80 69 75 75 78 89 91
39 48 27 22 26 28 33 36 65 63 76 70 50 52 37 27 27 26 33 45 50 57 58 62 69 70 59 61 63 65 65 66 64 68 79 84 77 76 71 65 77 81 84 87
46 39 24 20 20 21 32 45 37 59 70 76 62 47 29 24 24 25 33 48 53 51 56 57 57 62 66 53 57 62 62 62 62 63 72 78 80 72 70 71 77 86 88 89
39 45 24 23 20 25 28 30 52 63 77 76 60 56 44 33 25 24 32 49 52 46 51 53 54 57 60 61 60 66 61 57 57 58 64 67 76 76 71 84 88 89 92 93
31 44 40 26 26 28 35 38 43 43 64 74 68 54 42 34 30 24 25 33 43 48 49 48 48 51 54 55 62 66 67 63 65 65 74 70 70 80 84 91 95 97 97 98
31 41 46 36 27 27 23 28 34 65 57 63 69 46 31 33 28 25 24 26 30 35 42 47 46 47 51 57 58 59 65 69 62 65 66 79 81 84 89 98 98 97 99 99
37 42 60 38 31 32 34 30 29 42 58 58 81 62 34 31 30 23 24 25 28 35 36 38 47 50 46 49 54 56 64 69 67 73 81 88 94 95 91 93 98 97 97 97
58 54 37 44 42 40 45 30 26 32 56 49 61 45 36 28 33 28 26 27 27 28 35 38 43 51 59 57 54 62 69 71 80 88 94 99 99 99 99 99 99 98 98 98
53 63 56 37 42 39 40 37 29 32 40 43 38 42 36 35 33 28 24 29 28 27 28 34 45 68 90 96 95 97 98 99 98 98 99 99 99 99 98 98 99 98 98 97
63 62 64 69 51 44 47 36 32 31 33 35 39 42 29 28 33 25 25 27 28 27 36 34 42 80 90 95 98 97 96 98 97 98 98 98 98 98 98 98 98 98 98 96
89 66 71 76 51 48 73 52 36 36 32 34 42 34 27 27 26 24 23 30 30 30 38 52 61 75 90 96 95 97 97 96 97 97 98 98 98 97 98 98 97 98 98 95
96 95 76 85 67 91 60 38 28 33 29 29 28 26 27 23 23 23 24 30 33 41 55 81 94 97 98 96 92 94 92 94 96 97 97 96 97 97 96 95 96 96 94 92
88 88 89 81 75 68 52 38 34 34 33 29 24 24 23 24 35 40 36 41 41 50 79 93 95 97 98 98 95 93 92 91 93 96 95 93 93 95 95 97 96 92 88 87
74 80 88 93 76 84 56 39 32 35 52 31 27 29 28 33 50 42 37 47 58 78 88 95 95 96 96 96 94 96 92 90 92 91 89 88 89 91 92 90 88 83 80 82
99 95 93 98 98 87 58 44 34 53 54 36 32 31 32 35 42 35 49 60 66 78 91 93 93 95 95 92 91 94 87 87 82 81 82 84 82 83 82 82 81 85 80 86
95 100 99 99 99 93 57 52 48 47 48 42 43 41 39 44 56 58 61 66 71 81 91 91 94 95 93 88 85 90 84 73 74 78 81 80 79 73 79 82 81 77 78 82
80 87 88 80 83 66 61 68 62 57 50 47 49 52 54 57 57 64 64 68 75 78 81 79 87 87 86 82 79 83 82 76 76 78 79 73 65 66 64 72 75 75 74 84
70 77 84 79 62 62 59 56 61 48 54 51 46 57 57 58 65 67 64 68 75 73 75 72 75 80 82 72 72 77 78 74 61 56 54 56 58 63 63 63 66 73 81 84
60 70 73 76 56 55 53 48 52 54 52 57 56 46 52 57 64 64 64 68 69 74 73 71 71 70 70 72 69 63 59 52 49 53 54 57 63 69 78 81 74 72 85 87
54 66 78 75 52 53 51 37 47 54 55 59 52 48 48 57 62 62 64 65 71 70 62 57 55 56 58 56 55 52 49 47 51 56 65 76 77 78 71 73 81 87 86 73

GFSCGP_sfc_rhum_081.txt.gz
RH
39 45 46 40 40 37 39 43 44 34 28 35 36 38 46 75 80 86 96 99 98 96 82 80 86 88 88 88 88 91 92 89 88 93 92 82 76 72 73 75 78 86 90 89
43 46 38 33 36 38 40 43 41 34 28 34 37 35 33 72 73 70 88 97 95 96 97 87 82 88 91 88 87 83 82 81 82 80 69 68 66 78 72 73 77 87 86 92
39 39 33 34 37 39 41 44 41 39 30 30 36 36 37 55 68 71 71 84 87 91 92 80 85 84 87 87 90 85 79 80 73 70 70 76 75 79 78 81 88 91 90 92
36 26 36 40 36 37 44 36 35 35 40 47 39 49 40 44 66 73 65 81 86 88 90 87 84 84 83 81 83 92 83 77 75 74 78 81 61 56 61 71 79 87 93 94
35 35 31 38 38 34 39 35 37 38 39 48 46 52 44 48 60 62 70 72 77 80 86 94 94 90 87 85 83 94 86 80 77 81 78 82 75 72 76 84 84 86 90 93
27 28 29 29 27 33 32 40 42 49 48 58 45 48 46 47 39 46 56 63 68 77 83 85 89 93 96 96 96 96 89 82 76 79 80 80 82 75 82 90 88 78 86 92
32 26 26 30 35 34 37 43 62 63 66 60 43 56 42 36 35 41 52 59 64 69 80 84 89 91 90 95 96 92 86 81 75 75 78 76 80 82 79 79 81 80 85 91
44 45 26 24 29 34 38 41 68 61 70 61 57 65 46 32 30 32 41 47 58 68 73 79 79 82 80 83 86 84 80 77 74 74 76 78 76 78 80 76 78 80 80 84
49 41 28 22 24 23 37 48 33 55 79 81 64 53 36 26 29 37 41 56 59 65 70 72 73 76 76 73 76 78 73 71 69 71 70 73 76 76 79 84 78 82 82 84
45 51 32 26 24 25 28 35 54 68 74 79 67 63 53 36 27 28 46 56 57 59 65 65 68 73 72 68 70 75 70 67 64 65 68 66 75 82 83 84 86 86 92 96
43 44 46 32 33 31 41 43 46 47 67 67 75 60 44 39 30 26 32 54 57 59 59 61 61 62 67 70 67 72 72 68 69 67 66 69 69 79 86 86 85 94 98 98
68 54 49 38 30 27 25 31 42 59 61 69 69 49 33 36 37 35 26 33 53 54 53 54 56 59 62 67 68 64 68 69 67 68 68 69 74 81 86 88 91 91 92 96
78 78 66 48 38 30 39 36 36 49 62 69 73 61 36 37 34 28 25 26 34 52 56 52 54 56 59 62 67 67 67 69 68 68 68 81 89 87 91 91 89 92 94 96
84 93 89 62 44 38 46 37 40 41 64 59 52 47 38 35 35 31 30 28 30 35 41 50 55 54 53 56 60 64 66 70 71 72 73 79 86 90 90 91 94 96 94 94
87 99 68 53 35 41 45 46 45 48 43 47 45 42 34 33 32 31 32 32 29 29 38 41 45 51 63 69 69 63 66 71 73 76 93 95 98 99 99 99 99 99 99 99
83 98 77 67 42 34 40 50 48 51 47 34 36 35 32 30 34 36 29 29 30 30 29 41 42 50 79 86 90 93 98 99 97 98 99 99 99 99 99 99 99 99 99 99
99 99 98 80 63 58 77 59 44 43 48 42 47 37 32 35 35 35 32 29 29 32 32 38 45 51 79 97 96 98 98 98 98 98 98 98 98 98 99 98 98 99 99 99
94 100 99 90 78 91 62 48 43 42 41 38 32 31 30 29 29 29 30 28 32 34 35 51 76 98 98 95 95 96 95 98 98 98 98 98 98 98 98 98 98 99 98 97
79 96 99 98 86 68 61 55 52 50 47 35 34 27 26 26 34 34 32 30 29 40 45 84 95 96 91 92 91 92 94 94 96 98 98 98 98 98 98 99 98 97 95 95
85 81 98 100 98 89 64 46 38 40 65 36 33 35 30 35 45 35 35 48 53 68 91 96 98 96 93 93 90 92 94 94 97 95 94 92 93 95 96 96 95 93 90 90
99 99 98 98 98 85 61 58 52 77 71 40 36 35 36 36 40 34 48 60 76 91 97 97 96 98 95 94 91 94 91 93 89 88 89 90 90 91 91 90 88 85 88 89
88 96 100 99 99 93 65 65 61 63 47 45 39 36 43 41 40 42 53 75 92 98 98 96 98 98 98 94 93 88 87 81 82 84 87 87 87 84 86 86 83 81 88 91
79 79 92 89 95 70 69 66 72 65 64 56 55 50 45 50 59 68 74 86 95 97 98 95 96 97 93 88 86 90 88 81 84 84 79 74 72 74 77 82 81 80 81 88
63 70 87 86 65 62 60 63 64 61 54 50 55 53 59 65 69 74 77 83 85 86 92 89 90 90 90 82 82 84 84 72 62 63 67 69 72 72 68 71 74 80 86 89
59 80 80 79 61 57 54 57 54 50 58 55 52 49 54 67 71 70 77 82 84 82 77 75 79 82 80 73 69 61 55 56 58 61 64 70 72 71 74 77 70 78 90 89
65 69 81 78 56 57 49 43 53 54 56 60 59 49 55 61 69 73 81 80 73 70 64 65 65 64 61 57 55 52 50 52 59 67 74 81 81 78 73 78 90 89 83 81

GFSCGP_sfc_rhum_084.txt.gz
RH
41 47 52 46 45 39 40 44 47 40 33 35 36 39 33 68 88 90 95 98 97 98 75 86 88 90 92 93 94 93 95 97 94 92 94 88 82 88 87 85 81 87 82 84
50 51 35 38 40 40 43 46 45 37 32 35 34 36 33 54 76 81 92 95 95 98 87 82 90 94 93 92 92 90 86 89 92 90 96 91 73 78 82 86 88 88 86 89
39 40 34 38 44 43 45 45 46 37 39 37 41 41 35 44 75 73 81 89 92 92 97 84 84 93 91 93 91 88 83 80 78 86 82 79 73 78 84 87 87 89 89 92
41 29 36 44 41 38 47 40 38 41 46 55 41 56 43 34 41 75 76 93 92 93 94 92 82 82 88 88 86 83 80 76 74 74 71 69 68 67 61 72 74 78 85 92
41 36 36 41 42 36 38 38 43 44 49 60 51 58 42 46 44 43 70 78 85 87 92 93 90 88 77 78 87 86 81 82 78 71 71 79 66 63 72 77 78 85 91 91
34 30 31 31 32 36 36 44 44 53 54 68 49 48 46 44 42 43 49 67 80 85 87 92 91 85 82 79 78 83 89 88 83 81 83 84 84 79 78 83 87 87 91 96
37 31 28 32 36 41 41 47 64 67 72 68 46 55 37 37 35 36 37 56 71 79 83 92 97 93 90 87 83 84 90 89 85 85 85 83 86 82 72 70 75 78 89 95
32 36 31 27 32 41 44 46 73 64 72 60 57 64 48 38 35 33 36 52 68 78 80 84 89 94 96 95 89 89 94 89 84 83 84 86 80 80 78 76 73 82 80 86
55 47 30 25 23 25 40 52 40 59 80 80 64 54 39 34 28 33 40 60 72 76 81 81 80 84 89 92 95 96 93 88 84 82 81 83 84 78 77 83 91 93 92 91
47 60 36 30 27 29 32 37 53 69 69 75 69 70 49 41 35 29 42 55 62 73 79 80 80 80 80 80 85 90 85 83 77 77 77 76 80 81 81 89 92 90 92 92
73 55 45 31 38 35 43 39 50 52 65 64 72 64 50 36 34 35 29 43 57 68 76 74 74 75 76 77 80 86 84 78 77 76 76 75 74 79 80 83 85 89 91 89
81 93 81 45 26 26 32 34 35 49 63 73 66 45 36 38 37 35 31 28 51 64 68 71 73 76 79 79 76 77 79 78 75 74 74 74 73 75 80 85 86 86 91 89
67 90 95 62 42 38 41 38 39 53 63 62 69 54 37 34 38 36 36 33 31 53 68 69 71 73 72 77 78 72 73 76 73 72 71 74 77 80 80 81 86 90 92 90
74 80 90 95 84 63 59 38 32 45 66 54 50 50 42 38 37 35 34 31 28 34 53 67 68 70 69 69 72 75 70 72 73 73 73 75 83 83 86 90 93 96 94 92
84 95 80 78 86 86 74 54 40 41 44 51 49 46 39 36 34 34 33 36 32 30 39 53 59 66 67 73 75 74 75 77 75 76 78 78 85 91 94 98 97 97 95 95
91 97 93 82 62 69 68 51 44 45 54 51 49 46 36 34 35 37 33 32 31 32 30 36 43 54 65 68 73 82 86 90 87 86 88 99 99 99 99 99 99 99 99 99
96 99 96 80 70 74 78 50 46 51 52 50 57 46 36 35 36 35 30 33 32 30 33 31 39 42 53 85 93 98 98 99 99 99 99 99 99 99 99 99 99 99 99 99
89 100 99 95 92 98 66 45 38 44 43 49 49 43 39 36 32 31 32 31 34 32 32 36 45 91 98 99 98 98 97 98 98 98 98 99 99 99 99 99 99 99 99 99
75 90 99 96 91 92 65 58 58 59 46 38 43 45 40 34 34 33 30 34 31 34 32 45 81 96 99 98 93 95 98 98 98 98 99 99 99 99 99 99 99 99 98 98
78 80 90 99 97 94 69 56 60 52 69 49 49 47 42 37 50 38 29 36 35 43 75 94 96 95 92 95 92 94 97 97 98 98 98 96 97 98 98 97 97 96 93 93
95 94 97 97 97 91 70 81 74 74 70 58 52 46 42 38 43 33 37 65 84 95 98 94 93 93 92 91 89 95 94 97 92 92 93 93 92 94 94 94 93 93 92 90
86 96 98 99 99 95 72 79 90 78 78 68 68 61 51 48 46 51 60 92 98 96 96 96 96 97 94 88 87 91 93 86 86 87 89 90 89 87 87 90 92 90 90 90
76 76 83 88 89 73 70 70 59 66 84 66 64 60 61 60 53 75 90 98 98 96 97 96 96 96 92 87 82 91 91 83 78 78 80 81 79 82 83 87 88 92 89 90
62 70 83 88 57 66 54 50 55 59 65 68 53 63 61 64 73 89 91 96 97 96 92 90 89 90 92 88 90 90 84 75 74 78 80 77 78 76 74 76 82 87 92 92
63 65 66 72 64 58 55 59 58 61 63 61 60 63 62 74 81 86 90 86 80 80 81 82 84 83 79 71 68 66 66 68 73 76 72 71 74 76 80 84 86 92 97 97
65 58 78 66 50 66 56 54 61 62 62 66 72 72 66 72 84 76 74 72 72 73 68 70 68 69 68 67 66 63 63 67 75 80 82 85 84 87 87 87 92 92 93 91

GFSCGP_sfc_rhum_087.txt.gz
RH
43 39 49 40 37 29 29 34 33 29 27 27 23 27 23 24 49 56 64 73 77 76 65 73 83 88 88 90 93 94 94 95 94 92 96 91 97 96 92 85 83 77 68 70
41 46 38 36 37 35 33 36 34 29 28 30 26 26 23 33 37 42 54 66 72 74 71 75 85 89 90 92 92 90 91 91 89 89 93 83 88 84 86 87 87 85 81 73
36 36 33 36 40 40 38 38 36 32 31 28 32 30 26 26 44 50 56 54 64 69 71 70 82 84 85 90 93 87 87 88 90 94 90 92 79 84 89 90 92 86 80 70
33 25 36 36 38 36 41 34 32 34 34 28 32 38 30 23 24 45 44 62 61 68 67 65 75 83 85 83 84 83 82 83 86 86 84 87 69 76 72 76 80 84 81 71
38 35 34 36 39 35 33 33 36 35 37 39 34 40 30 30 25 24 32 49 60 64 68 68 71 71 73 78 82 79 79 78 78 83 76 77 69 59 76 75 77 79 73 72
32 26 29 29 29 34 32 34 38 44 43 52 40 40 30 24 24 27 31 43 56 62 67 62 65 68 69 76 80 81 79 75 74 75 72 74 71 66 68 68 69 70 71 73
32 30 27 28 32 36 33 42 49 57 58 49 38 44 33 27 25 26 23 32 51 58 64 66 67 71 70 73 76 81 79 76 73 72 69 70 69 68 63 65 62 64 69 72
31 28 29 26 28 36 41 40 48 45 55 43 44 42 30 27 27 28 29 29 45 59 60 63 63 66 70 72 76 77 80 79 76 74 71 70 67 62 61 61 58 60 61 63
51 33 27 26 24 26 42 46 33 48 62 59 44 41 33 27 27 24 24 38 51 59 60 59 63 67 69 71 77 82 80 80 76 76 74 72 71 68 64 65 63 64 68 68
62 58 36 30 24 25 31 35 48 47 47 48 45 50 33 31 28 28 25 33 45 58 63 59 61 67 67 69 73 84 80 81 72 71 73 71 71 69 68 71 72 68 68 68
64 62 50 33 32 31 32 34 40 40 50 43 48 44 43 32 26 28 28 27 36 54 60 61 59 60 63 67 72 81 82 75 72 70 72 73 71 72 72 74 74 72 71 70
67 82 84 56 39 32 27 32 32 43 39 59 54 38 30 34 34 32 29 27 25 38 53 58 60 62 64 67 68 70 74 74 70 69 70 72 72 74 77 78 74 75 75 74
48 71 60 52 40 44 51 47 38 40 45 46 59 42 31 31 33 32 32 29 29 32 48 56 60 64 64 64 66 65 68 70 66 66 70 76 76 73 76 78 75 73 75 73
71 69 48 49 72 68 64 59 59 70 57 43 44 35 32 33 32 27 31 32 27 27 31 50 56 59 61 65 64 63 65 66 65 66 67 71 73 72 71 74 75 76 74 74
71 82 72 63 58 60 67 58 63 71 65 51 35 33 29 26 30 27 29 29 30 27 25 36 48 53 56 62 67 66 63 65 66 66 68 69 68 68 68 72 72 73 77 80
80 91 88 82 73 64 58 52 48 61 56 52 37 34 31 28 30 30 29 29 29 30 26 26 37 48 56 60 65 69 70 67 67 68 70 66 66 71 75 77 80 86 88 92
70 88 91 76 64 62 65 54 57 53 45 43 47 38 33 32 32 33 30 30 30 28 28 28 29 37 49 57 63 69 73 73 70 68 68 83 88 91 97 98 98 98 99 99
79 91 90 82 79 78 36 43 47 56 47 36 38 38 33 32 31 30 29 28 29 29 27 29 30 44 61 71 72 82 84 91 91 91 95 96 98 98 98 99 99 98 98 98
69 74 81 87 69 54 41 52 59 84 73 50 40 35 34 31 34 31 27 28 28 29 30 30 36 74 85 82 82 84 91 94 96 97 98 98 98 98 98 98 98 98 96 96
65 70 80 85 87 80 56 72 70 57 77 68 61 49 44 40 50 32 30 35 38 33 42 59 73 82 87 84 81 85 94 95 96 97 97 96 96 97 97 96 96 94 92 93
91 92 93 82 84 63 67 72 73 76 72 72 64 64 60 46 38 35 39 76 86 83 81 78 77 85 89 85 84 91 92 95 94 92 92 92 91 92 93 92 90 91 92 91
77 92 92 88 92 88 64 70 73 83 75 70 65 68 67 62 57 53 82 91 91 90 92 84 91 91 86 83 84 92 95 88 86 86 88 88 86 84 87 91 90 88 90 92
69 70 75 74 74 77 58 64 70 75 73 70 70 70 58 65 65 78 92 94 95 93 95 93 90 92 87 83 84 93 90 79 79 80 81 80 79 80 83 89 89 89 87 90
52 58 74 70 53 57 61 54 52 51 60 52 54 63 63 70 79 90 93 94 93 92 90 87 89 93 94 86 82 76 74 72 71 75 76 74 77 79 81 83 85 88 90 91
47 57 58 58 53 54 48 56 50 49 50 58 56 54 78 79 83 79 82 85 85 84 81 77 75 72 72 68 68 66 67 66 69 71 71 75 81 84 86 88 86 89 96 95
52 53 63 61 47 52 45 49 56 57 68 67 67 67 73 82 87 80 82 81 82 81 76 76 74 72 70 68 68 68 66 66 70 75 80 86 85 85 81 84 92 92 90 88

GFSCGP_sfc_rhum_090.txt.gz
RH
27 26 29 22 25 20 17 17 16 13 15 19 16 13 14 12 14 22 25 30 36 41 43 49 54 71 72 88 90 87 85 87 89 94 96 95 96 94 97 92 73 65 63 66
30 32 18 20 22 25 20 20 19 15 15 21 16 14 14 13 14 18 20 28 33 40 45 51 55 68 74 87 91 87 76 79 75 84 92 88 92 94 93 92 81 60 65 59
26 20 20 24 30 30 23 24 22 20 17 17 17 18 14 13 17 19 23 22 28 37 43 49 56 62 73 83 83 87 84 80 73 76 84 92 94 94 92 93 90 74 56 52
22 15 24 28 27 25 24 17 21 24 22 21 21 20 14 16 15 14 16 28 28 36 39 42 52 58 68 74 75 69 83 80 77 80 70 84 80 77 70 74 74 79 62 57
24 25 23 29 27 25 27 18 22 24 24 24 21 19 15 17 18 14 16 19 28 35 38 40 47 51 60 67 73 72 75 83 81 73 74 78 75 60 65 72 72 77 79 75
22 21 22 21 21 25 26 27 27 27 28 37 26 19 16 16 15 14 16 20 26 33 38 37 41 46 52 67 67 69 68 77 83 80 79 79 77 73 71 72 80 77 68 63
19 19 19 21 25 23 26 28 34 43 42 37 18 22 19 17 15 16 15 16 26 31 39 39 42 46 48 63 68 65 64 70 75 81 77 72 67 59 61 62 62 70 59 62
20 21 14 15 18 24 31 29 35 42 37 29 22 29 19 17 14 16 19 19 22 31 37 38 38 45 46 56 65 69 66 64 65 69 77 68 60 50 49 55 50 53 54 55
34 19 21 16 17 16 26 33 24 34 30 42 25 24 21 19 17 16 16 17 22 30 33 35 38 43 46 49 58 66 63 59 62 65 64 64 61 56 52 51 54 52 52 49
40 43 26 25 21 18 19 19 36 34 44 40 25 28 24 21 18 16 16 17 22 30 32 30 36 42 43 45 48 60 58 55 54 58 60 58 60 57 55 55 55 55 53 51
36 48 36 31 26 24 26 29 29 27 31 36 35 24 21 22 18 17 15 20 22 30 34 32 32 38 42 45 46 57 60 56 55 54 57 60 57 57 56 56 57 54 54 52
32 50 53 46 31 28 28 26 25 37 34 36 36 28 18 24 20 21 18 19 18 24 30 33 34 36 42 45 47 52 58 59 56 53 54 58 58 58 60 59 59 60 59 57
35 51 50 39 38 40 43 43 40 43 38 38 51 32 17 18 20 18 17 18 18 22 26 32 36 37 40 43 47 47 52 54 52 51 54 60 64 62 63 62 62 59 60 59
46 39 33 34 34 36 42 39 34 40 58 40 35 28 21 19 20 19 17 18 17 20 21 29 34 38 39 41 43 44 47 49 50 50 52 58 60 61 60 61 63 66 64 63
39 42 37 39 38 38 36 33 35 38 35 50 40 33 22 19 20 18 15 15 18 18 18 24 29 33 36 41 44 44 45 49 50 49 51 54 57 56 55 56 58 60 62 59
63 60 54 59 46 40 38 28 26 29 31 28 30 36 23 20 17 18 18 17 18 19 18 17 20 27 34 37 42 45 48 50 53 53 53 50 52 52 55 58 59 60 58 57
60 71 75 51 41 45 54 42 32 25 24 31 43 32 23 21 19 19 20 19 19 18 18 18 18 22 30 36 40 43 48 50 54 55 54 54 54 55 56 56 57 61 66 70
63 74 69 61 55 59 22 23 26 29 30 32 42 35 28 23 18 16 19 21 20 21 19 19 19 20 24 32 38 44 45 52 56 56 54 55 58 61 68 76 86 96 97 98
51 61 75 75 51 34 28 31 26 40 32 51 54 50 42 30 25 24 20 19 22 20 19 19 18 18 35 37 41 50 53 53 59 66 77 80 81 93 97 98 98 96 95 95
47 57 69 65 73 65 46 34 41 42 51 51 52 52 52 49 51 31 22 25 32 27 26 26 28 38 44 49 52 57 72 78 92 95 95 94 93 94 96 94 94 92 91 92
78 83 86 74 79 52 30 26 45 67 58 48 47 52 56 60 55 48 38 43 62 57 52 48 47 52 57 60 65 80 91 95 93 90 90 90 90 91 90 91 89 89 91 90
70 83 86 77 91 78 37 48 72 54 46 42 42 54 81 58 54 52 59 73 80 75 65 63 70 79 76 72 79 90 93 87 84 84 85 86 85 82 83 86 86 85 87 90
56 49 54 53 52 39 47 43 38 39 46 44 43 45 74 69 59 65 82 83 87 84 78 77 85 87 84 81 81 90 87 79 78 78 80 80 79 80 80 83 86 86 84 88
32 28 48 46 34 28 28 33 37 39 41 33 43 56 50 53 68 80 85 86 89 88 87 83 84 87 90 84 78 76 76 70 69 76 79 78 79 81 81 80 82 85 88 89
33 32 37 38 32 30 29 27 28 34 38 38 49 58 53 58 71 75 81 85 86 84 78 76 79 81 81 76 71 65 64 64 72 76 77 78 80 82 85 86 85 87 95 95
34 38 44 48 33 34 33 28 39 42 43 54 58 60 57 61 73 87 89 80 80 80 78 77 76 74 70 66 63 64 62 65 69 74 76 80 82 85 84 82 88 87 84 81

GFSCGP_sfc_rhum_093.txt.gz
RH
16 18 20 16 17 17 18 17 17 14 11 12 14 12 9 9 9 12 12 14 19 26 27 38 44 52 61 75 82 80 86 86 91 89 95 95 98 97 95 91 82 76 68 63
12 20 13 15 16 18 19 21 20 15 12 14 16 14 10 9 9 10 11 14 17 24 31 40 46 55 66 75 82 77 75 75 80 81 82 92 94 97 94 92 88 80 76 66
19 12 14 14 18 22 22 26 23 19 14 14 17 17 13 10 9 9 11 12 13 21 31 39 44 55 66 73 79 76 74 72 74 83 80 85 90 94 92 92 88 76 72 63
16 13 14 18 18 18 28 20 19 18 19 23 15 21 14 10 11 12 13 14 15 18 27 33 40 48 67 66 69 74 74 73 73 70 72 81 76 78 79 84 82 78 68 62
19 17 16 18 19 17 24 19 19 20 20 22 18 20 16 11 11 11 11 12 14 18 26 31 37 40 50 63 62 68 76 77 76 71 70 73 72 76 81 84 87 82 66 63
19 12 15 14 14 16 18 23 23 23 24 32 23 21 18 12 12 12 13 14 15 18 26 28 33 35 43 62 65 64 71 76 79 71 72 73 78 77 74 81 83 83 74 62
18 20 17 17 16 19 22 28 40 63 56 38 20 23 22 12 11 11 12 12 18 20 27 29 34 36 42 57 65 63 66 76 78 78 73 70 71 74 71 74 72 80 79 77
17 21 17 16 18 21 23 27 35 52 52 42 21 23 17 11 10 12 12 12 16 21 27 29 31 35 38 53 58 62 62 65 74 78 76 69 71 72 70 61 61 61 68 67
23 15 12 9 10 15 21 31 22 31 32 40 28 19 18 14 15 14 12 14 17 20 25 28 29 35 36 45 54 57 55 55 64 72 75 75 73 69 64 64 58 57 56 51
32 37 21 11 14 14 15 13 28 26 46 50 28 24 21 19 17 14 13 13 14 17 23 26 26 35 35 39 45 56 51 49 55 57 68 66 71 69 61 61 63 58 56 54
29 37 30 25 25 19 19 19 20 21 25 35 40 27 17 19 17 16 14 15 16 17 22 24 25 30 35 37 41 51 50 45 48 55 58 62 65 63 62 59 54 58 62 58
30 39 40 30 22 25 27 20 19 33 30 26 30 28 18 20 18 20 19 15 16 19 22 22 23 28 33 38 38 45 49 47 45 48 54 58 58 61 61 58 57 58 58 58
31 36 42 33 26 27 32 25 24 25 30 35 46 34 15 16 16 16 17 15 15 17 20 23 23 25 31 35 40 40 46 46 43 44 49 57 60 58 60 60 58 58 60 58
45 32 35 33 31 28 40 33 30 32 44 36 30 23 17 16 16 17 16 16 15 16 16 20 23 25 28 34 37 38 44 45 44 44 46 54 56 57 56 57 59 60 58 58
39 38 28 25 22 23 26 27 27 29 32 41 31 27 22 20 18 16 16 16 15 13 13 15 21 26 28 31 35 37 40 46 45 44 46 50 54 54 53 56 58 57 59 56
48 48 34 33 30 27 26 19 18 17 19 22 25 26 17 15 16 18 18 15 14 14 12 15 16 20 26 29 32 35 38 42 46 47 48 46 51 51 55 57 58 59 57 56
54 51 56 47 26 30 46 31 24 20 16 17 26 22 17 21 20 18 17 15 14 14 14 14 16 16 19 25 29 33 36 38 44 47 46 46 47 50 55 52 52 54 58 66
66 59 62 60 52 59 24 14 17 21 23 18 13 16 28 25 21 17 15 15 15 15 18 17 16 16 16 18 24 31 32 38 44 46 46 46 49 50 50 52 60 88 92 95
44 70 78 72 52 34 26 24 36 29 26 40 38 33 32 32 35 33 20 17 20 23 20 17 16 16 18 18 23 30 33 38 43 47 47 47 50 53 73 94 96 94 93 94
39 52 77 67 67 62 36 25 23 32 46 38 38 43 50 44 55 40 41 39 34 34 35 27 25 20 22 27 28 34 40 44 48 48 61 72 88 92 95 93 94 92 91 92
68 88 87 72 69 48 26 24 26 56 66 40 38 40 42 49 54 49 45 44 44 51 46 41 34 31 31 34 37 43 57 88 91 89 89 88 87 90 90 91 90 90 90 90
68 83 86 70 84 75 26 36 48 47 37 35 38 38 41 41 46 53 50 50 64 69 60 48 46 46 48 53 74 89 94 87 85 85 87 87 86 83 84 88 89 88 88 90
75 43 56 50 52 34 32 37 32 30 34 35 39 33 38 44 45 60 68 59 78 80 78 76 78 83 81 80 81 88 87 81 83 84 86 86 84 83 82 85 86 86 83 87
28 28 41 40 32 28 27 23 23 21 28 30 32 36 37 40 44 72 76 67 79 83 84 82 86 89 90 82 80 79 80 79 80 84 85 84 85 85 83 81 81 84 87 87
30 29 37 34 28 25 24 24 23 23 30 31 38 40 43 45 66 80 79 76 78 81 79 80 84 84 84 79 78 76 77 77 81 82 80 82 83 85 86 86 86 89 95 92
31 35 40 44 30 35 30 26 28 31 32 37 46 52 57 66 71 73 83 76 84 90 86 86 86 84 83 80 78 76 72 72 73 79 78 84 84 83 82 86 93 96 95 94

GFSCGP_sfc_rhum_096.txt.gz
RH
13 13 18 17 19 18 20 21 21 16 13 14 15 15 12 11 10 12 12 15 15 21 26 42 44 53 62 77 86 86 89 93 93 96 98 99 98 98 98 93 87 89 80 73
17 17 14 11 13 16 18 21 22 19 15 17 16 15 14 13 12 10 10 12 15 20 38 44 50 58 67 78 84 83 82 85 88 89 95 96 96 97 96 95 91 87 79 76
21 14 11 13 13 16 20 24 25 26 20 18 18 19 17 14 12 11 10 11 12 19 37 44 52 59 68 77 85 80 77 84 87 89 93 95 95 96 95 95 93 86 79 77
20 15 15 12 16 13 20 18 21 25 30 31 20 27 20 15 13 11 11 12 16 15 34 42 48 58 70 76 76 73 73 76 84 80 82 85 91 93 89 86 92 93 88 86
22 18 18 17 14 16 19 16 19 26 35 32 28 28 22 15 14 12 14 15 16 17 33 40 43 51 60 70 76 73 73 76 80 81 79 78 79 79 80 85 87 91 89 86
16 13 13 15 14 13 14 18 21 24 29 43 35 33 24 18 16 12 11 13 19 18 31 35 39 45 57 70 77 75 75 76 80 77 80 76 76 80 80 80 80 82 81 80
17 18 14 14 19 16 16 24 40 50 55 64 31 31 26 19 14 12 15 16 21 21 32 35 39 42 53 70 67 77 77 76 80 77 80 76 76 80 79 79 75 77 76 75
22 23 12 15 20 22 18 24 40 49 61 45 39 38 23 16 14 11 13 16 19 23 32 33 38 41 50 68 69 67 73 74 78 78 79 77 76 74 75 75 74 77 72 67
34 25 9 13 16 18 21 29 23 35 35 72 49 36 25 16 16 14 14 14 21 25 31 32 37 41 47 61 70 71 71 70 73 78 77 76 76 73 72 74 71 75 73 69
40 44 13 12 12 16 18 17 32 32 49 51 36 48 36 25 20 17 16 16 20 24 29 31 33 42 43 55 60 69 64 67 72 73 75 73 74 75 72 71 69 71 70 70
28 36 39 14 14 16 16 18 19 20 29 40 51 44 38 35 27 24 21 19 21 26 27 30 31 38 39 49 55 64 61 58 66 72 75 76 74 73 71 71 70 67 66 65
31 39 46 37 19 21 26 19 20 31 32 30 36 35 34 31 26 23 20 18 22 21 24 28 30 38 40 46 49 59 60 58 61 65 73 74 76 75 74 71 70 68 69 65
40 36 44 34 25 25 30 27 21 22 26 35 55 42 22 23 21 23 21 19 19 22 25 26 28 34 39 43 47 53 57 55 54 60 66 73 74 76 75 73 68 69 67 67
49 30 34 46 35 26 34 29 29 32 48 36 36 28 32 42 23 21 22 22 19 19 18 24 26 28 35 40 44 47 54 54 51 56 62 69 71 73 71 70 69 69 68 70
39 36 27 23 21 20 21 27 28 32 34 42 34 28 22 22 21 20 19 20 18 16 15 16 24 30 31 38 43 44 50 52 52 51 57 65 68 68 68 70 69 68 69 66
36 48 40 37 24 20 25 22 22 21 20 21 25 28 20 18 18 19 19 18 18 18 16 14 15 22 30 33 41 44 47 53 52 53 56 56 64 64 67 69 70 71 70 70
48 51 50 53 34 27 41 27 20 17 15 17 23 22 18 19 19 21 24 24 21 18 16 15 19 21 28 34 37 42 46 50 54 54 52 53 59 62 67 66 68 71 76 79
62 58 59 65 53 64 32 15 15 20 19 17 28 18 13 18 27 26 29 44 46 40 37 37 28 24 24 25 32 38 39 45 55 56 53 52 56 61 63 67 72 92 93 94
37 52 79 68 58 37 27 22 26 42 39 40 42 40 41 41 39 32 38 42 46 47 52 50 44 39 34 25 25 34 36 41 48 54 54 52 56 61 68 90 95 94 94 95
37 50 75 71 71 64 40 26 22 28 51 42 40 43 47 43 62 45 41 44 44 46 54 55 53 45 40 31 31 32 38 43 52 56 59 67 79 91 93 93 95 93 92 93
65 74 83 80 79 54 34 26 27 49 70 43 41 44 44 44 46 44 42 44 43 54 60 61 56 53 44 47 38 55 80 90 88 86 87 88 88 91 91 92 91 91 92 93
62 85 89 76 77 78 26 27 47 47 38 33 35 45 45 45 44 41 39 50 56 67 70 70 70 77 73 72 77 86 94 87 85 86 88 88 88 85 87 91 90 89 90 92
80 51 60 53 54 40 35 42 38 30 29 30 38 33 38 42 39 38 53 69 74 73 76 79 83 88 84 78 78 90 90 85 88 89 90 89 86 86 86 89 91 92 90 92
53 40 68 80 49 40 42 40 38 23 25 28 32 38 37 42 46 58 71 74 78 78 79 80 84 89 90 86 84 84 83 82 83 88 88 86 88 88 87 86 87 88 91 93
44 58 55 64 32 32 29 33 36 33 30 29 39 39 44 64 72 79 80 85 85 85 84 84 88 88 88 84 84 82 81 81 86 87 88 90 90 90 92 93 94 94 95 92
40 45 59 63 42 42 40 32 30 30 32 43 45 46 56 66 71 80 89 88 84 88 85 88 91 90 90 88 88 87 83 82 85 88 89 91 90 91 88 87 93 96 95 94

GFSCGP_sfc_rhum_099.txt.gz
RH
18 21 22 22 31 30 30 31 31 25 20 20 23 21 17 15 19 21 24 23 22 32 54 58 71 82 91 95 93 93 94 96 98 98 99 99 98 98 97 98 94 98 92 79
22 21 16 14 17 24 27 30 28 22 20 20 26 28 22 16 17 18 18 16 22 56 56 63 76 86 92 93 89 90 91 94 92 92 96 97 96 96 93 94 94 93 92 81
38 29 16 14 16 18 18 24 27 26 22 22 32 34 25 18 17 16 14 16 26 56 60 67 72 88 94 89 89 87 86 92 91 93 96 98 98 99 98 97 98 95 87 78
36 27 22 16 17 18 22 16 18 21 28 46 32 52 35 23 21 17 15 15 22 55 55 65 72 88 91 83 82 82 84 89 90 93 92 93 96 96 95 95 94 95 88 84
30 28 27 24 22 15 19 20 19 20 29 43 44 47 42 27 26 19 18 17 18 51 56 67 70 80 85 81 79 79 84 88 88 84 87 88 92 93 94 94 94 94 92 89
21 17 19 23 18 18 18 24 25 24 38 55 46 44 48 36 26 18 16 15 19 49 53 62 65 75 84 86 82 81 83 87 87 83 81 82 89 92 95 94 92 91 91 91
22 19 16 16 24 21 22 27 57 64 65 60 34 40 39 29 23 20 18 20 25 47 54 57 70 75 85 90 81 82 81 88 86 85 84 79 86 85 87 88 88 90 92 92
35 40 20 16 22 30 28 28 61 66 77 67 36 60 46 26 20 18 15 22 39 47 50 52 66 72 82 86 85 76 80 86 85 87 83 76 80 82 80 78 78 78 83 82
43 37 33 18 14 22 30 35 26 40 48 77 64 47 42 34 27 26 18 24 38 43 48 50 56 66 78 80 86 81 76 76 83 84 83 77 79 82 79 71 69 68 69 69
48 60 35 35 14 19 24 24 36 38 53 64 50 57 64 46 35 34 29 22 32 41 43 47 50 63 76 76 76 82 79 70 75 80 82 77 78 78 79 77 75 72 71 66
42 50 50 45 24 23 31 29 31 33 45 61 64 51 50 48 42 41 30 22 33 40 39 45 46 51 70 73 76 80 81 79 79 70 80 78 77 79 76 79 76 75 77 72
50 48 64 48 49 48 22 25 25 41 39 47 46 42 33 40 38 35 38 37 21 24 38 41 45 47 63 69 75 77 77 79 80 77 74 76 78 83 83 80 76 74 75 78
52 52 59 66 57 49 40 33 31 26 34 41 65 55 36 46 38 40 41 33 23 25 29 42 46 47 59 63 69 73 73 71 76 78 80 80 81 83 83 80 76 74 74 75
56 46 41 55 57 51 36 31 49 53 51 40 38 32 42 50 50 37 23 27 21 37 23 35 47 46 50 56 63 68 69 67 71 76 82 84 82 83 80 78 78 80 75 76
51 60 46 37 30 28 28 25 31 60 53 59 50 36 36 51 61 29 24 30 32 34 34 25 25 44 46 53 56 62 65 64 66 70 79 82 80 80 82 80 79 77 77 70
46 68 56 54 43 32 34 24 25 25 25 27 29 28 24 24 24 24 49 50 51 53 54 52 50 47 46 49 53 57 63 64 61 69 72 74 79 79 82 81 83 81 79 77
64 67 70 70 44 51 60 39 28 25 22 25 28 28 19 17 32 53 56 53 52 55 60 59 57 55 50 53 53 54 59 60 61 60 67 70 75 78 81 79 77 81 90 90
73 72 76 87 65 82 44 28 25 29 30 34 46 55 49 49 47 49 49 52 51 53 61 61 62 62 58 51 45 67 55 59 61 60 59 64 74 75 76 81 82 91 96 95
51 70 93 89 86 59 37 32 44 52 66 49 53 50 45 45 48 48 44 47 52 66 67 66 67 65 64 72 71 48 64 63 61 62 60 61 70 74 79 93 98 95 95 96
42 62 86 90 87 84 60 49 32 35 83 52 55 58 55 50 78 63 47 43 58 72 72 74 72 69 75 78 77 81 86 81 80 68 71 84 78 81 98 96 96 94 93 95
66 76 83 88 97 75 46 49 38 64 78 54 47 55 55 59 61 53 47 67 70 74 75 74 77 81 85 79 79 90 93 96 96 94 96 96 94 95 93 94 92 93 94 94
69 85 91 88 94 84 38 40 62 62 56 46 53 50 59 58 53 50 62 83 81 82 80 78 84 86 85 84 87 92 95 90 91 93 94 94 94 91 92 93 92 90 91 93
80 69 85 73 72 54 50 59 60 50 50 51 56 53 52 54 57 73 87 86 83 83 83 83 87 85 83 82 89 93 92 88 91 93 95 94 92 91 90 92 93 93 92 93
84 69 75 74 57 51 50 51 51 42 44 52 53 55 63 83 89 90 88 91 91 87 89 87 86 88 90 87 86 85 85 84 87 92 92 90 91 92 90 90 91 92 94 93
78 78 79 86 73 72 70 57 50 45 53 54 55 66 79 81 86 89 92 85 84 87 83 84 89 92 93 89 88 84 82 82 88 90 90 92 92 92 92 93 95 95 97 92
61 85 96 90 78 81 77 65 60 55 59 61 68 78 83 85 90 86 90 88 88 86 85 86 88 89 93 91 91 86 83 82 86 89 88 90 89 89 87 87 93 94 94 95

GFSCGP_sfc_rhum_102.txt.gz
RH
23 27 27 24 36 32 36 40 42 40 26 26 27 28 28 27 25 22 22 26 26 55 64 72 83 94 97 97 97 97 98 97 98 99 99 100 99 99 99 97 95 94 90 72
33 28 19 16 18 25 36 40 39 31 25 24 25 25 31 30 26 22 20 22 27 68 72 81 91 95 96 97 96 98 97 95 94 94 98 97 98 98 98 100 94 94 94 80
51 34 18 17 19 19 23 33 35 34 26 22 26 31 35 29 28 24 19 21 37 66 74 85 90 96 97 97 97 96 98 94 94 93 96 99 99 99 99 100 98 96 92 85
47 38 38 26 19 18 21 17 20 22 27 35 37 48 35 33 31 26 22 20 41 61 67 79 88 96 96 96 95 96 97 97 96 93 97 98 97 97 96 97 98 97 92 90
34 44 44 42 31 18 21 19 23 23 28 40 42 54 48 35 35 29 24 20 33 62 67 76 86 89 94 96 95 95 96 97 94 91 91 96 96 97 95 98 97 95 89 89
26 22 26 31 28 22 17 22 23 26 38 51 52 54 50 45 32 28 22 20 26 57 65 69 82 89 95 94 92 95 97 96 91 90 89 92 96 97 98 98 98 95 92 91
31 26 21 19 24 23 27 35 53 60 66 60 39 47 37 34 27 26 25 22 22 36 67 79 91 94 94 93 90 94 96 94 91 91 86 89 92 90 92 93 94 97 95 94
42 44 24 20 21 28 29 34 62 57 78 62 38 55 51 40 34 29 26 25 47 62 69 75 85 90 91 90 88 91 94 91 89 87 92 85 84 88 88 87 88 89 91 93
53 39 36 21 18 20 27 40 34 49 64 72 59 53 43 42 43 38 27 28 53 63 68 73 79 85 90 91 89 91 91 87 86 88 84 83 84 87 85 83 83 84 89 92
47 59 38 40 33 21 28 30 42 48 53 60 58 60 59 55 50 41 37 39 46 56 61 69 74 84 85 87 85 87 85 82 84 86 83 80 82 85 85 81 81 82 89 91
48 58 54 47 52 34 33 32 41 42 55 50 68 55 55 56 51 48 50 42 41 43 61 59 68 77 81 84 85 85 83 77 80 84 84 81 80 83 86 81 79 74 77 80
57 60 72 47 50 46 51 38 42 63 60 56 63 52 43 48 46 56 55 44 40 33 34 55 55 75 80 83 84 85 81 78 76 76 85 82 81 81 84 84 81 78 79 80
65 78 70 56 52 59 44 43 45 49 49 60 66 51 49 52 52 48 48 54 43 48 55 71 68 74 79 80 81 82 82 79 79 78 81 84 84 82 82 86 83 81 82 81
64 71 52 64 70 64 53 40 52 62 70 59 43 36 60 57 53 44 47 58 62 54 56 70 84 82 81 82 80 78 81 80 81 80 80 82 84 82 82 85 84 82 82 85
64 68 57 51 43 37 44 34 40 76 70 70 56 52 61 51 50 60 55 53 57 61 60 58 61 82 71 79 82 83 80 80 82 84 82 82 81 81 82 85 85 82 82 80
63 68 67 66 48 48 48 39 35 40 57 49 35 30 32 43 54 68 56 53 58 66 59 59 56 58 66 66 80 76 80 81 82 84 86 82 83 85 83 84 86 87 84 81
77 78 78 76 62 54 60 48 36 31 35 42 38 63 40 60 59 59 63 58 61 63 59 64 65 66 70 77 78 75 78 82 79 81 84 85 85 85 87 86 85 85 89 87
68 77 84 92 71 80 46 33 35 58 59 56 58 52 52 56 54 54 55 64 72 67 71 72 72 78 80 79 77 78 75 73 80 78 79 84 85 84 85 88 89 91 94 98
58 78 91 90 93 65 38 49 49 56 70 58 60 53 49 50 54 55 50 66 75 77 76 75 76 81 83 82 78 80 84 83 72 74 75 80 84 87 88 90 91 99 99 98
52 68 83 93 87 90 58 53 47 46 89 59 58 60 58 54 81 70 70 75 80 80 78 80 79 80 86 85 81 86 90 93 97 98 90 91 91 89 91 99 98 97 96 97
76 92 85 97 97 83 55 45 47 64 72 58 55 56 59 64 64 58 82 84 79 80 79 77 79 85 86 83 86 92 91 96 95 94 98 98 98 98 97 97 95 95 96 96
74 85 95 93 95 83 45 51 62 65 61 56 56 62 63 58 69 85 84 84 82 84 83 82 85 86 86 84 87 91 96 91 91 93 96 98 97 95 93 95 95 94 93 95
97 73 84 76 73 54 53 62 65 54 53 63 60 56 64 80 92 89 90 90 88 88 86 82 89 87 86 84 84 94 93 90 92 94 96 95 93 93 92 94 96 96 94 94
95 88 81 76 63 76 77 63 53 47 61 60 65 81 85 95 91 91 90 90 89 87 87 82 85 91 93 87 85 86 86 86 88 94 94 93 94 93 90 88 88 90 93 93
91 89 90 89 81 73 71 65 69 61 61 77 80 84 88 89 94 92 94 92 91 88 83 82 86 91 93 88 88 84 84 84 89 90 91 91 91 91 92 92 92 93 96 92
92 99 99 99 91 90 81 79 63 65 72 78 83 88 88 87 86 86 95 90 90 96 88 88 89 92 92 88 89 88 83 83 87 89 89 92 89 90 89 91 96 93 93 92

GFSCGP_sfc_rhum_105.txt.gz
RH
28 28 28 25 40 30 33 44 46 43 31 32 34 32 28 26 26 33 29 26 26 34 82 79 94 97 98 98 98 98 99 98 99 99 99 99 99 99 100 99 96 96 93 86
46 36 23 23 26 35 42 43 45 40 32 33 33 32 25 28 30 30 27 29 26 71 86 87 97 98 97 97 97 99 98 98 98 97 98 97 98 99 99 99 96 98 91 79
38 41 32 22 23 23 26 36 43 42 33 32 34 31 26 25 32 29 30 28 26 58 80 84 94 97 97 98 98 97 96 98 97 91 96 99 99 99 100 99 98 96 91 77
36 27 35 30 23 22 24 21 23 28 37 43 33 38 34 34 28 28 29 29 30 55 65 76 87 98 98 98 97 97 94 98 95 94 96 93 95 98 98 99 99 98 92 87
19 52 45 44 42 21 24 21 24 25 31 36 27 55 40 41 39 32 25 29 30 53 66 75 84 90 95 98 98 98 98 98 98 94 95 96 98 94 98 98 99 98 96 93
17 28 41 46 38 30 23 27 30 35 37 49 33 42 38 40 35 35 28 27 26 43 68 70 82 92 98 97 98 98 95 93 99 95 93 95 97 98 98 98 98 98 96 96
29 28 28 26 29 28 30 39 54 66 74 53 38 52 35 36 30 36 40 35 29 37 73 76 94 97 97 98 97 97 92 90 97 84 93 94 95 95 95 96 96 98 98 97
40 31 27 26 26 32 34 37 60 56 68 60 44 58 43 35 43 42 40 39 41 44 51 72 89 90 95 96 96 94 92 89 96 93 91 91 90 92 92 90 90 91 94 95
53 43 29 23 19 22 28 43 28 43 67 72 61 55 40 48 46 47 50 46 45 70 76 81 88 90 93 94 96 92 92 96 94 94 91 91 90 90 91 89 90 88 90 95
59 68 40 40 25 24 26 27 40 55 53 59 59 63 52 49 50 53 53 54 54 45 71 78 91 92 91 89 92 94 94 95 95 93 90 92 91 87 88 90 89 90 94 95
69 70 59 50 48 42 34 37 43 38 55 50 60 58 48 47 61 60 50 59 59 62 68 74 81 88 93 94 94 95 96 95 95 94 89 90 86 87 93 87 87 88 92 92
77 77 80 54 58 54 56 34 32 59 60 64 61 55 63 61 66 67 68 66 62 55 60 80 78 90 95 90 89 95 94 93 93 93 91 89 84 86 90 88 84 87 92 91
78 89 85 73 66 58 57 46 54 53 59 61 72 68 66 60 62 63 77 78 63 63 63 81 87 93 93 94 87 84 92 91 90 91 93 91 90 87 87 90 88 81 84 88
70 80 93 94 82 64 57 44 62 64 67 73 62 62 75 68 65 63 69 76 72 62 59 65 83 81 88 91 90 86 85 88 87 90 92 93 92 90 86 86 88 86 83 83
78 94 90 74 50 59 66 50 44 68 77 73 57 44 54 67 62 66 64 75 70 69 57 63 68 78 78 82 89 87 86 86 89 89 89 92 92 91 86 90 90 86 90 84
72 95 94 84 60 51 64 60 45 46 65 73 73 38 50 70 61 62 66 76 79 81 70 64 65 71 80 80 81 81 87 88 86 88 89 86 88 92 90 90 91 91 90 92
72 90 93 78 65 62 63 60 47 50 54 64 79 63 68 66 62 65 67 71 74 75 73 70 71 77 78 80 80 81 82 84 88 88 87 85 85 88 89 87 87 90 93 92
64 76 88 88 73 66 53 43 51 68 60 51 62 68 61 58 61 59 64 74 78 76 75 76 77 81 79 79 79 80 80 87 88 87 88 86 86 86 85 89 90 91 93 94
62 78 90 87 81 59 52 59 54 71 76 65 60 69 64 56 67 77 73 78 82 83 78 79 80 84 88 85 84 83 86 88 90 86 84 84 88 90 88 90 93 96 99 99
61 69 83 93 89 88 54 50 53 60 89 64 69 73 61 60 75 76 83 80 83 80 79 79 82 85 86 88 87 90 90 91 95 96 98 87 89 91 93 93 99 99 99 99
85 93 84 97 95 80 59 50 51 70 79 66 63 63 65 70 71 90 87 82 79 82 84 81 81 84 87 79 79 85 89 96 94 94 96 98 96 93 98 98 99 98 98 98
94 86 96 94 94 86 49 57 63 67 60 58 61 65 69 88 96 91 87 88 86 86 82 82 84 86 84 80 83 90 95 90 90 92 94 96 98 99 98 98 98 98 97 97
98 88 78 74 75 57 71 73 73 62 56 64 61 66 84 96 96 92 94 87 85 87 83 80 84 84 84 82 84 92 91 89 91 93 95 95 93 95 95 98 98 98 97 96
100 96 96 71 62 79 79 74 74 69 67 80 84 88 86 94 92 93 90 87 85 83 82 79 84 89 91 85 85 86 86 86 88 92 94 93 95 94 92 92 93 93 93 92
98 99 96 90 88 82 81 87 77 75 78 81 84 87 90 88 89 88 88 86 88 87 84 84 89 91 90 86 87 85 83 84 90 91 91 92 92 92 93 94 94 94 93 87
93 100 99 96 94 94 90 83 76 78 82 81 81 88 88 89 94 91 93 91 88 92 88 89 90 92 90 85 87 89 86 84 89 90 90 93 92 92 91 92 97 94 95 94

GFSCGP_sfc_rhum_108.txt.gz
RH
26 27 29 25 36 27 34 44 47 49 37 39 40 37 36 30 30 30 29 32 30 30 45 88 96 99 99 98 98 98 98 99 98 98 99 99 98 99 99 98 95 97 96 93
48 36 25 21 30 38 41 40 39 45 38 37 36 35 30 31 28 27 27 26 30 33 58 91 98 99 97 94 97 98 98 98 96 87 96 96 98 98 98 99 98 95 98 90
36 38 30 27 30 30 34 40 43 45 42 37 44 33 23 22 28 26 28 31 33 32 34 80 98 98 98 97 96 97 97 92 95 97 96 99 98 99 100 100 99 98 96 92
35 24 30 41 34 26 29 29 32 37 40 45 38 39 33 29 26 33 31 31 34 34 37 64 93 98 95 92 95 97 94 89 98 97 98 98 98 97 98 98 99 98 93 88
29 38 33 34 33 24 27 23 27 30 40 41 36 37 34 34 37 26 28 34 36 34 37 53 86 90 88 92 98 93 89 94 97 97 92 93 92 94 98 99 99 98 96 90
18 31 36 28 28 25 24 29 30 36 41 52 36 38 42 34 27 36 46 46 53 51 35 59 84 94 92 94 92 92 91 95 98 97 95 92 90 97 99 99 99 98 96 94
19 25 26 26 30 40 33 41 60 67 63 53 34 43 33 34 32 46 53 55 54 69 51 83 93 98 94 96 94 90 93 93 92 98 94 96 96 97 98 96 98 98 98 96
37 33 26 25 31 36 44 42 62 58 74 59 47 52 44 33 41 45 54 60 58 63 69 82 89 95 88 89 90 91 91 90 93 90 93 94 94 95 95 91 93 95 95 95
53 39 29 24 26 26 37 42 36 45 65 65 59 58 44 49 52 55 62 65 64 66 70 79 91 95 86 87 88 87 85 82 88 88 91 94 93 94 95 93 90 94 95 97
66 72 48 38 25 28 32 32 47 54 53 55 57 70 54 62 57 61 68 71 68 65 69 82 88 97 87 92 87 85 84 81 83 85 81 89 91 93 93 94 92 94 96 96
87 71 61 61 47 36 36 42 42 46 59 54 59 58 53 48 63 78 80 70 70 67 74 88 87 93 92 92 88 86 89 87 89 89 96 97 96 91 93 93 94 94 96 97
90 87 74 62 72 68 52 43 37 58 54 66 60 52 74 76 73 73 73 75 70 63 67 74 92 95 96 97 92 90 92 92 90 90 93 97 97 96 96 93 92 94 94 94
97 88 88 82 78 73 64 55 62 40 63 64 75 62 66 75 78 75 83 83 73 60 63 66 79 90 96 97 94 88 90 89 91 92 96 97 97 96 96 92 91 93 94 93
83 98 92 93 86 71 95 58 52 56 57 51 67 85 79 79 84 78 82 85 75 75 72 68 75 80 84 92 95 92 94 91 89 93 94 95 97 95 92 92 91 92 92 93
77 97 87 67 60 62 72 94 66 78 74 58 73 61 56 74 85 84 77 78 76 74 82 74 76 82 81 84 88 92 93 93 89 94 96 95 92 91 89 90 90 88 89 90
75 96 89 76 51 48 77 81 93 60 73 84 77 78 81 77 81 85 86 80 78 78 80 84 80 77 79 80 82 82 85 94 92 90 93 94 95 93 90 91 92 90 90 88
73 96 95 74 72 69 85 76 64 62 56 70 72 76 73 81 81 85 80 81 80 80 77 76 81 88 78 82 80 86 85 84 94 92 90 90 93 95 94 93 92 92 92 92
80 77 92 86 83 60 50 58 55 64 65 59 65 73 72 70 73 82 80 83 84 80 81 80 81 84 82 81 84 87 83 86 89 91 89 90 89 92 94 94 94 94 94 96
76 78 90 92 80 58 61 56 59 68 77 70 71 81 83 86 85 94 84 86 88 84 81 80 81 81 80 82 78 80 84 84 87 92 91 95 91 89 92 94 94 95 96 99
69 74 85 89 79 83 54 51 52 70 94 78 75 72 83 83 94 92 88 82 84 82 82 83 81 78 81 78 76 77 85 88 92 93 95 94 95 93 93 93 95 99 98 99
92 92 86 94 92 71 56 52 57 82 76 74 66 80 82 66 81 91 84 87 85 84 82 80 78 82 80 77 79 87 89 94 91 90 91 93 95 96 92 95 99 99 98 98
95 95 96 92 95 83 50 57 72 74 81 74 65 72 95 95 94 91 88 87 86 87 81 78 80 81 81 82 82 88 94 86 88 89 91 93 95 96 98 99 99 98 98 98
99 95 91 80 74 58 72 78 74 74 63 81 67 91 94 90 91 89 89 84 83 81 80 82 88 83 82 82 83 91 90 85 87 90 92 93 92 94 96 98 99 98 99 98
99 97 98 93 76 90 96 90 83 87 92 92 87 89 89 97 91 91 86 83 84 82 89 88 87 86 87 83 84 88 84 83 84 88 90 89 93 94 93 94 95 97 97 96
94 99 99 93 90 92 90 90 92 84 80 82 84 84 89 91 87 83 85 86 88 92 86 85 89 90 88 84 84 86 84 82 87 90 89 91 91 92 93 95 95 95 98 95
97 100 100 100 98 97 96 85 86 86 84 81 81 89 91 90 90 87 90 88 90 90 86 88 89 91 88 83 85 86 88 84 87 88 90 93 92 92 91 91 96 96 96 95

GFSCGP_sfc_rhum_111.txt.gz
RH
25 26 26 20 25 21 22 31 32 31 29 30 30 29 25 24 24 25 22 22 19 19 18 26 58 68 70 76 78 80 84 88 90 96 97 94 94 97 97 96 96 94 95 98
34 34 23 19 25 25 25 25 25 23 27 28 27 27 22 22 23 22 21 19 18 19 19 24 50 81 87 84 80 84 81 87 85 83 88 80 93 97 95 94 91 90 95 94
33 27 25 25 23 25 25 27 26 24 25 29 32 26 17 14 19 18 20 19 19 23 25 25 34 68 86 85 87 86 84 87 83 77 81 90 91 95 97 97 96 96 94 93
24 20 27 34 30 22 26 23 24 26 32 29 25 20 18 16 15 23 22 30 38 41 38 30 28 56 78 85 83 85 86 85 85 83 81 86 86 84 92 93 94 98 96 96
24 29 29 30 32 27 30 24 26 27 30 30 23 26 19 23 23 21 41 45 48 53 51 38 30 42 64 79 86 87 81 84 86 85 85 87 85 88 91 95 96 98 96 97
24 18 23 21 22 24 23 23 25 28 28 32 24 23 21 19 20 42 47 49 51 51 56 58 49 58 67 79 88 85 79 84 87 86 86 86 82 83 91 96 97 98 98 97
23 21 16 27 24 27 24 28 35 42 43 38 29 29 21 24 33 45 52 53 55 52 57 61 64 72 75 87 87 84 81 91 86 86 82 78 80 82 83 88 97 98 98 97
45 36 17 14 24 31 30 30 37 37 43 33 31 33 25 23 26 47 53 53 52 54 62 66 67 73 77 85 86 86 84 89 87 83 80 76 78 81 84 90 88 94 95 94
61 31 20 17 20 31 41 39 28 39 50 48 39 34 33 39 51 53 57 55 58 62 72 70 70 76 75 80 86 87 86 84 87 82 79 84 88 87 94 89 88 92 93 94
83 78 39 31 15 20 32 31 46 42 44 47 39 45 31 53 60 57 62 60 59 66 73 76 75 78 76 80 84 87 81 80 82 81 83 82 89 88 91 91 91 94 96 94
99 77 49 46 26 20 23 36 36 34 41 35 36 34 42 44 53 61 64 59 60 65 70 77 83 85 85 86 88 87 83 81 84 83 82 87 87 87 92 93 93 92 96 94
97 95 76 42 70 70 25 24 32 40 44 40 35 34 59 61 60 59 67 59 56 52 61 66 77 88 92 90 88 90 89 89 83 85 80 83 85 87 88 94 93 94 96 96
99 93 86 58 60 59 78 51 42 31 47 38 48 36 62 61 60 67 70 63 61 54 53 57 68 80 84 93 89 88 87 85 84 86 82 89 90 88 88 89 92 94 95 96
95 100 97 72 71 66 80 81 74 55 39 33 41 65 71 65 62 66 71 71 69 59 54 56 64 70 78 84 93 90 86 79 78 83 83 88 88 85 88 90 92 93 92 92
78 97 97 81 54 58 69 76 81 74 56 37 30 40 60 61 63 64 69 67 68 65 64 66 80 81 79 85 86 86 89 85 79 80 82 87 84 82 85 90 91 92 93 91
59 83 85 87 61 45 54 72 72 54 67 63 61 70 70 65 68 71 70 66 73 77 75 77 82 86 85 84 85 78 82 83 87 81 85 81 83 82 84 87 89 91 92 92
73 77 72 58 58 62 58 72 70 58 56 58 58 67 75 82 82 77 74 74 75 73 71 73 76 82 84 88 86 88 81 77 83 88 83 87 86 82 85 83 84 86 88 89
77 74 71 74 66 70 38 55 50 63 65 54 65 71 71 77 79 78 72 75 77 74 74 75 78 76 75 76 81 79 75 79 82 85 88 86 87 90 84 83 86 85 84 88
76 69 78 80 67 48 56 51 55 62 68 63 69 75 78 73 67 86 76 75 78 77 74 74 72 74 72 74 72 72 78 78 80 86 86 89 93 91 91 90 90 88 91 92
69 71 75 65 75 68 48 41 43 56 70 75 69 82 75 71 93 85 83 77 75 72 73 75 73 68 71 73 73 79 81 82 88 90 90 88 90 94 95 93 92 94 94 97
80 83 81 74 74 56 44 44 55 66 74 76 80 84 83 89 84 83 76 75 72 73 72 70 71 72 72 71 71 79 82 89 87 85 86 87 88 91 95 96 98 99 99 99
92 91 85 78 83 69 50 54 71 74 74 66 68 72 85 90 87 83 78 80 78 75 72 72 77 76 72 73 75 79 84 79 80 82 85 86 89 91 92 98 99 99 98 98
95 95 92 69 60 61 80 87 79 77 71 76 79 83 86 88 86 80 81 79 78 76 76 75 74 76 74 73 79 87 84 78 80 82 84 85 86 90 92 97 98 98 98 98
86 90 99 96 74 81 90 85 83 80 85 84 82 81 79 86 84 82 77 76 77 80 80 76 75 77 80 74 76 80 80 77 78 83 85 86 90 91 91 92 94 95 97 96
95 99 100 92 78 88 92 90 78 77 80 76 80 80 80 78 79 78 79 80 82 80 76 75 79 81 79 75 77 77 77 77 81 85 86 88 89 90 93 96 95 96 98 92
98 100 98 99 99 99 97 95 95 94 88 79 80 86 82 78 83 81 82 80 79 80 76 77 83 84 78 74 77 79 76 75 80 84 86 90 89 90 89 90 96 96 95 95

GFSCGP_sfc_rhum_114.txt.gz
RH
16 20 12 8 10 10 13 13 13 11 12 20 19 17 15 14 14 17 17 17 16 15 13 12 12 18 32 37 40 48 56 62 84 87 93 89 84 90 81 77 90 94 93 93
14 20 11 7 7 10 14 15 14 11 10 16 16 14 11 11 13 15 15 15 13 12 11 11 13 24 42 41 47 48 51 59 80 80 72 71 84 84 82 84 89 89 93 94
19 11 9 11 16 15 15 16 14 14 12 12 15 16 13 11 10 10 11 11 10 11 12 15 17 21 34 46 52 49 50 57 72 67 71 64 66 78 79 83 89 90 92 93
20 13 12 12 18 14 18 11 14 16 17 18 13 16 10 12 12 10 11 13 15 19 22 22 20 19 29 47 54 56 53 58 64 63 64 64 60 62 67 68 74 89 78 83
25 18 17 17 13 14 17 13 17 20 20 19 16 18 12 10 10 13 13 20 28 30 32 32 27 21 23 46 62 73 68 68 67 62 58 58 56 56 66 64 71 77 84 91
24 18 18 17 14 11 15 20 19 19 19 26 18 18 12 10 14 13 29 32 36 35 35 34 36 31 31 55 72 81 74 74 75 69 61 61 64 71 73 71 78 84 90 95
33 18 15 17 20 14 15 23 22 26 27 23 12 17 15 11 18 21 33 39 38 37 41 39 39 39 41 56 73 83 72 77 84 80 70 65 69 75 72 72 67 84 97 98
61 40 18 15 19 16 17 20 22 23 22 20 17 23 16 11 14 32 37 38 39 42 46 44 47 49 53 66 69 81 74 77 80 75 70 70 71 64 64 60 64 87 94 95
83 57 19 17 14 14 17 22 15 16 16 24 16 18 13 16 14 35 38 40 45 48 51 52 53 57 60 68 73 81 80 73 77 66 66 67 69 66 64 65 77 91 90 94
92 83 31 28 13 13 13 13 21 16 24 22 12 17 18 24 30 37 41 43 48 52 57 62 61 65 66 69 73 79 81 74 73 65 67 64 64 63 65 74 87 93 92 92
94 96 45 30 19 15 20 26 20 15 20 19 22 18 17 28 33 40 42 43 47 52 54 60 71 77 77 79 79 82 85 81 78 71 71 67 69 64 72 78 82 92 93 93
88 98 73 46 44 32 14 22 22 27 24 21 20 18 33 30 33 40 44 42 43 46 49 52 60 76 83 88 85 85 86 86 79 77 72 75 72 68 77 88 88 92 96 93
70 86 59 50 51 71 68 18 22 25 20 25 33 21 38 39 38 43 45 46 42 43 43 44 47 58 82 87 90 89 89 87 80 75 79 79 76 74 72 77 84 90 96 95
57 99 99 92 95 63 89 88 46 23 32 27 21 19 43 41 46 46 48 49 43 41 42 48 53 62 75 85 87 88 92 84 79 80 79 80 72 69 66 67 78 87 91 96
53 76 84 68 57 37 55 73 79 57 28 30 21 17 23 34 44 49 47 47 49 48 54 54 60 70 76 82 85 85 87 90 82 79 78 75 73 69 72 74 73 77 84 87
52 69 58 56 58 40 41 58 50 54 54 30 26 20 15 28 39 48 48 47 53 54 53 56 57 58 71 87 83 85 86 84 87 89 80 73 78 73 75 76 79 78 77 76
69 59 55 51 39 52 57 58 46 42 41 44 48 32 44 40 50 55 53 55 55 56 55 56 56 57 58 74 88 89 89 89 85 86 89 84 78 81 78 72 76 79 83 80
72 62 52 57 44 80 45 42 39 42 41 42 38 46 66 71 77 71 62 59 57 56 56 56 54 53 53 54 73 79 86 86 81 81 84 86 90 86 78 80 76 75 78 84
59 63 60 62 53 33 54 41 54 58 53 56 46 60 75 69 61 74 59 56 58 58 56 55 52 51 51 55 60 71 76 82 80 84 82 84 86 90 93 86 85 77 78 82
53 61 66 52 59 59 51 34 33 47 89 62 54 63 65 55 75 88 67 56 55 53 52 53 52 49 52 54 56 72 78 78 83 84 87 81 85 88 90 96 90 86 77 78
60 64 68 57 58 39 44 44 40 78 86 74 69 79 67 73 93 86 64 59 54 53 54 50 52 52 54 54 56 63 72 81 77 76 80 80 81 87 88 95 97 97 98 98
80 75 76 62 68 61 45 46 70 66 64 87 79 78 76 80 80 73 63 63 61 55 54 52 52 54 53 54 59 60 68 71 75 75 77 78 82 85 88 96 98 99 98 98
86 98 94 63 50 46 51 73 79 71 76 83 69 64 72 76 72 67 72 68 66 60 56 54 52 54 55 54 59 64 72 67 73 75 79 80 80 82 86 94 97 98 98 99
69 60 95 95 89 94 93 84 73 74 82 85 70 68 67 69 67 61 56 56 58 61 58 54 54 56 58 56 59 63 66 66 70 76 81 82 86 90 90 89 93 95 96 96
89 99 99 89 81 93 92 94 92 88 82 74 62 60 60 60 62 61 62 62 63 62 57 58 63 62 58 56 60 62 63 67 74 81 82 84 86 89 92 96 95 96 98 92
98 100 95 98 98 99 98 98 95 94 97 96 68 69 65 62 67 64 68 66 63 65 62 65 67 66 62 59 62 65 66 69 76 80 83 86 85 86 85 87 94 94 94 92

GFSCGP_sfc_rhum_117.txt.gz
RH
13 13 16 9 9 9 9 10 11 12 8 10 12 12 11 11 11 13 14 13 14 14 12 12 13 13 12 18 23 28 33 48 55 60 70 77 74 80 76 72 72 73 79 77
15 16 10 7 8 7 6 9 12 8 7 9 9 12 13 12 10 10 12 12 13 14 13 13 13 14 18 20 30 30 34 43 52 69 76 66 62 67 63 64 71 76 78 77
17 13 10 11 10 10 10 9 10 10 8 8 10 11 10 9 9 8 8 8 10 12 12 11 11 14 16 26 33 34 35 40 56 75 69 58 60 75 72 78 73 74 77 89
20 15 14 13 12 10 13 8 9 8 11 12 10 14 9 8 8 8 8 9 10 9 9 9 11 14 18 24 32 35 36 39 63 76 64 60 61 71 65 63 69 74 72 80
28 22 19 16 14 10 10 9 11 11 12 14 11 9 9 8 9 9 9 9 10 13 17 18 17 16 16 20 36 43 39 41 64 67 58 58 54 55 52 52 60 71 77 79
22 18 21 18 16 14 13 12 12 15 15 23 16 12 9 8 10 10 12 13 18 22 23 22 22 27 21 38 45 54 47 44 59 65 58 60 57 52 49 54 58 74 75 74
27 22 17 17 19 16 16 19 21 29 27 26 12 12 12 8 7 9 17 24 27 27 28 28 28 29 26 38 54 66 63 54 66 69 63 57 56 54 55 56 57 68 76 88
39 45 26 38 36 20 18 19 23 31 27 20 9 12 9 7 7 12 19 25 28 29 34 34 36 38 39 46 54 71 70 74 79 70 66 58 56 53 54 57 52 58 73 76
69 50 34 27 25 27 18 20 14 22 17 20 11 9 9 8 10 21 26 27 32 35 37 39 44 48 50 54 61 71 74 79 82 78 71 61 58 56 56 57 60 61 66 78
70 88 36 31 43 31 16 12 21 20 30 25 12 13 12 13 14 22 25 30 36 41 46 51 52 58 59 61 67 74 76 79 77 74 68 59 59 56 57 67 70 69 81 84
55 91 50 57 53 29 16 17 14 16 19 23 21 14 10 11 13 18 24 32 38 41 44 52 62 68 76 73 71 76 79 81 80 74 69 60 55 58 62 70 69 74 85 87
77 93 70 54 46 48 35 16 14 21 22 16 16 14 16 13 18 20 36 33 37 41 43 46 56 66 75 85 81 79 84 88 83 75 72 66 59 61 66 69 71 78 90 90
56 68 78 43 59 54 54 23 15 17 16 18 27 18 21 18 27 37 38 36 37 38 38 42 46 56 72 82 85 90 88 85 86 78 72 73 69 66 69 70 76 89 93 93
51 72 85 90 88 65 97 66 25 23 31 19 17 14 46 22 21 39 39 36 36 36 40 45 51 56 63 79 84 86 88 90 90 79 73 70 76 71 67 72 72 84 92 93
45 73 62 45 32 40 49 68 40 41 43 34 22 14 22 26 28 36 38 38 39 46 47 46 52 59 60 72 84 85 87 87 87 86 77 78 70 71 71 74 68 74 88 92
45 62 46 45 40 40 57 71 62 36 29 23 21 24 16 34 34 32 38 39 52 48 47 47 47 49 57 67 81 86 88 89 85 85 89 67 67 69 69 67 74 80 78 86
60 61 56 46 34 58 84 62 53 56 54 33 39 26 35 22 67 41 44 55 57 47 46 46 45 48 47 58 75 89 88 87 85 84 84 87 76 79 77 66 67 71 80 74
57 65 50 52 47 90 61 32 49 48 40 45 52 64 62 55 71 63 62 61 55 49 46 46 44 44 44 45 52 66 83 87 88 88 85 86 88 89 83 79 70 70 76 81
41 58 66 57 51 48 52 37 36 44 49 52 46 50 68 66 57 69 56 54 50 48 46 45 42 42 43 45 47 51 61 82 87 88 90 89 87 89 89 93 81 71 71 80
38 52 63 53 51 64 48 35 29 35 75 64 73 70 74 66 86 91 55 47 45 43 43 43 42 42 45 45 45 49 58 68 87 89 90 91 89 88 90 92 94 96 80 75
56 59 62 53 58 36 41 40 41 80 98 77 96 79 84 92 95 80 58 49 44 44 46 42 42 43 45 45 45 48 54 66 73 86 80 82 87 87 90 94 96 98 99 99
64 81 86 60 56 64 59 51 91 92 76 90 91 82 76 65 68 72 65 54 48 46 44 41 43 45 44 43 46 47 57 59 66 76 86 82 86 86 85 93 96 99 99 98
88 83 88 74 70 80 80 93 80 76 90 95 92 72 71 75 68 62 56 50 49 46 43 42 43 46 46 46 48 52 60 59 67 74 78 87 83 88 88 94 96 98 99 99
58 62 80 67 70 88 92 93 89 89 91 92 75 64 62 60 54 53 54 52 48 49 47 46 47 46 50 48 49 52 59 62 69 77 80 83 94 90 92 92 94 96 97 97
81 96 91 67 60 69 68 96 97 89 94 94 93 54 54 55 57 52 55 56 53 52 49 51 54 54 51 51 54 57 61 65 72 80 83 86 87 90 93 95 96 96 98 96
89 99 92 94 99 99 87 95 98 94 96 97 94 71 53 52 57 58 66 69 66 64 61 64 63 61 59 57 63 66 69 71 75 80 84 88 85 86 86 89 94 94 92 91